GFSGBSN_sfc_temp_003.txt.gz
Temp
63 62 61 61 60 60 61 61 61 60 60 60 60 59 59 60 60 59 59 58 58 59 58 58 57 57 53 54 62 76 68 68 70 71 69 69 66 65 62 62 60 59 60 61 64 66 64
63 61 61 60 60 60 61 61 60 60 59 59 59 58 58 59 59 59 58 58 58 58 57 56 56 57 52 56 77 77 72 72 73 69 69 70 69 70 64 64 62 64 60 60 61 63 63
61 61 60 59 59 59 59 60 59 59 59 58 58 58 58 58 59 58 58 58 58 57 56 55 56 56 57 64 73 71 76 73 73 72 70 73 74 69 66 61 65 63 58 58 58 58 58
61 60 60 59 59 58 58 60 59 59 58 58 58 58 58 58 58 58 58 57 57 56 55 55 56 54 59 76 72 76 74 77 77 76 76 78 75 71 65 65 63 58 54 50 58 60 59
61 60 60 59 59 58 58 59 58 58 58 58 57 57 57 57 57 57 57 56 56 55 55 55 49 51 62 77 74 78 75 74 76 77 75 81 73 63 63 55 51 51 45 48 53 61 57
61 60 60 59 59 58 59 59 58 58 58 57 57 57 57 56 56 56 55 55 55 54 54 57 59 55 67 67 73 75 75 75 72 71 70 68 61 57 54 52 44 46 48 42 51 55 56
61 60 60 59 59 59 60 59 58 57 57 57 57 57 57 56 55 55 53 51 53 53 53 60 62 63 67 73 74 73 74 74 71 66 57 59 55 49 51 53 56 54 50 50 49 57 51
60 59 60 60 59 59 59 58 57 57 56 56 57 57 56 56 55 55 50 56 62 64 55 65 64 66 70 71 65 68 73 65 63 55 58 56 49 56 60 58 56 55 51 48 54 56 52
59 59 59 59 59 59 58 58 57 56 56 56 57 57 56 55 55 52 53 61 66 65 54 63 67 67 70 73 63 64 68 64 60 56 55 51 55 62 59 55 54 51 48 49 50 52 53
58 58 58 59 59 58 58 57 57 56 56 56 56 56 55 54 52 56 58 65 65 64 47 56 63 68 70 69 62 70 70 66 61 54 56 55 59 58 55 54 52 47 54 54 52 47 41
57 57 57 57 58 57 56 56 56 55 55 56 56 56 54 56 55 58 67 65 64 62 29 58 63 75 69 65 64 66 70 66 57 57 56 52 53 54 53 52 55 52 55 52 52 45 44
57 57 57 57 56 56 56 55 55 54 54 55 56 55 54 54 52 61 64 61 62 41 33 54 62 60 61 62 62 64 65 67 63 58 57 54 58 56 53 57 56 58 53 50 47 44 33
56 56 56 56 56 56 55 55 54 54 54 55 56 54 56 62 61 63 61 59 40 32 55 53 55 59 57 55 59 58 56 53 50 46 45 53 53 56 57 52 55 53 46 35 35 30 30
56 56 56 56 56 55 55 54 53 53 54 55 55 54 54 59 62 61 59 50 35 49 52 58 57 56 54 56 54 55 52 49 53 51 46 44 40 52 58 52 48 48 46 34 31 26 35
56 56 56 55 55 55 54 53 53 53 54 54 54 52 57 61 63 60 54 35 41 49 57 57 56 51 50 56 55 53 48 48 50 51 47 43 44 55 55 56 53 48 41 47 36 33 31
56 56 55 55 54 54 52 52 52 53 54 55 56 56 58 62 61 58 47 42 50 57 58 58 50 53 48 51 51 49 48 52 51 53 53 50 42 51 56 56 55 52 53 40 34 28 25
56 55 55 54 54 52 49 52 52 53 54 55 56 54 59 61 59 51 39 44 54 61 60 56 53 51 52 50 50 47 47 51 53 54 54 49 45 46 51 48 45 48 45 42 40 32 26
55 54 54 54 53 51 52 52 52 53 54 56 52 47 59 59 49 42 44 53 56 58 62 59 57 54 52 51 48 47 47 49 53 52 47 48 42 32 44 52 53 49 45 43 30 33 28
54 54 54 53 50 51 51 52 52 53 55 55 50 51 59 58 38 32 49 55 57 56 57 56 54 55 54 49 45 47 48 52 53 51 48 49 39 31 39 47 50 46 47 44 39 32 32
53 53 53 51 49 50 51 51 52 53 54 56 51 43 50 50 47 49 48 51 51 58 57 58 56 56 53 49 50 46 47 51 52 52 50 50 42 38 33 38 42 40 44 44 41 29 31
53 53 50 49 49 49 50 52 52 52 53 57 51 47 50 38 42 48 52 52 51 51 56 58 54 54 51 43 43 43 47 48 52 51 49 47 38 38 40 42 43 42 43 43 41 40 34
52 51 49 49 49 50 52 52 52 52 53 55 51 48 47 45 50 49 46 51 53 53 54 52 52 51 51 45 49 45 48 46 45 49 44 43 34 33 34 40 40 38 42 42 42 42 41
52 51 49 49 51 53 52 51 52 52 54 53 53 52 52 41 44 45 43 52 54 54 53 55 53 49 44 48 49 49 49 49 49 47 38 35 31 31 29 32 33 30 38 43 43 42 41
52 52 52 53 53 53 52 51 51 52 54 58 55 53 46 36 40 46 52 53 53 53 51 52 53 48 52 53 52 51 48 47 47 43 44 33 30 26 24 26 22 41 45 47 44 41 41
52 53 54 53 52 51 51 51 51 52 53 60 56 54 48 35 43 49 51 49 50 50 48 49 52 53 54 47 38 38 34 37 37 43 41 40 29 27 23 23 33 42 44 42 41 40 43
52 53 53 52 52 51 51 51 51 51 52 59 54 53 51 45 44 54 49 50 41 42 43 46 53 53 48 32 32 29 30 35 33 38 41 38 31 29 25 20 21 37 44 49 47 34 44
52 52 52 52 52 51 51 51 51 51 53 59 54 55 54 47 50 52 48 48 48 44 40 44 46 46 46 28 24 29 31 39 32 29 27 27 23 22 18 17 29 41 47 49 34 36 44
51 52 51 51 52 51 51 51 51 51 52 58 55 55 55 48 50 52 54 50 49 47 41 47 45 42 34 31 27 28 27 32 32 36 34 32 27 25 25 19 27 46 45 39 43 41 45
51 52 51 51 51 51 50 50 50 51 51 55 56 56 55 53 52 54 54 54 54 56 49 45 48 45 41 35 32 34 31 33 28 29 40 32 36 32 35 34 44 46 46 46 45 44 42

GFSGBSN_sfc_temp_006.txt.gz
Temp
63 63 63 62 61 61 61 61 61 61 61 59 59 59 59 60 59 59 58 58 60 59 59 58 58 57 52 52 58 70 67 67 67 69 68 66 62 61 58 61 61 57 60 63 64 65 62
62 62 62 61 60 60 61 60 60 60 60 59 59 59 59 59 59 59 59 58 59 59 58 57 57 57 48 52 73 72 68 68 69 68 66 67 66 67 63 61 60 62 59 57 61 61 59
62 62 62 61 60 59 59 59 59 60 59 59 58 58 58 58 58 59 58 59 58 58 57 56 56 55 51 60 73 70 71 69 69 70 66 68 69 66 62 58 64 61 58 59 59 57 57
62 61 61 60 59 59 58 58 58 60 59 59 58 58 57 57 57 57 59 58 57 57 57 56 56 53 54 73 71 73 68 71 73 71 71 73 71 66 65 63 60 55 53 49 55 57 56
62 61 61 60 59 58 58 58 58 59 59 58 58 57 57 56 57 57 57 57 57 56 55 55 50 49 59 75 71 75 75 72 73 71 71 77 71 63 61 55 50 50 43 46 51 56 56
61 61 61 60 59 58 58 58 58 58 58 57 57 57 57 56 56 57 55 56 55 55 54 56 56 51 64 65 71 73 74 73 69 69 68 66 60 57 55 52 43 45 45 40 47 49 49
61 61 61 60 59 59 59 59 59 58 57 57 57 57 56 56 55 55 53 51 48 49 50 57 58 60 64 71 71 69 72 70 68 66 56 59 54 48 49 52 54 52 49 46 46 52 47
60 60 60 60 59 59 59 59 58 57 57 56 56 56 56 56 55 55 53 49 60 62 53 60 61 63 67 67 62 66 70 63 61 54 55 54 48 53 56 55 54 52 48 44 47 52 48
59 59 60 59 59 59 59 59 58 56 56 56 56 56 56 55 55 53 49 57 66 62 53 60 63 64 66 69 62 62 66 62 57 55 54 50 52 58 55 53 52 48 47 46 45 50 49
59 58 59 59 59 59 58 58 57 56 56 55 55 56 55 54 52 51 53 64 63 62 46 54 59 66 67 66 61 67 67 64 58 52 53 52 56 55 53 52 51 46 51 50 47 44 39
58 58 57 58 58 57 57 56 56 56 55 55 55 55 54 56 51 55 64 63 61 60 29 55 60 72 65 63 63 62 66 64 55 54 54 49 51 52 52 50 53 49 54 50 47 43 42
57 57 57 57 57 56 56 55 55 55 55 55 55 55 55 53 50 58 61 60 60 40 32 52 59 58 58 60 59 61 62 65 61 55 54 51 55 54 51 54 54 55 51 48 44 42 33
57 57 57 56 56 56 55 55 55 55 54 55 55 55 54 59 59 61 58 57 40 32 53 50 52 56 55 53 56 55 53 51 49 45 44 51 51 53 54 50 52 50 45 34 34 29 30
56 56 56 56 56 55 55 55 54 54 53 54 54 53 53 56 58 58 57 49 35 47 48 54 54 54 52 53 52 52 50 47 51 49 43 42 38 50 55 50 47 45 44 34 30 25 32
57 56 56 56 55 55 55 54 54 53 53 54 53 52 52 58 57 57 52 33 40 46 53 53 53 49 47 52 52 50 45 46 47 48 45 41 42 52 53 53 52 45 39 45 34 32 30
57 56 55 55 55 55 54 54 53 53 53 53 52 53 55 58 57 56 45 41 48 54 55 54 47 50 45 48 48 46 45 49 49 50 50 48 41 48 53 54 53 48 50 38 33 27 25
56 56 55 55 54 54 54 52 52 53 54 54 53 52 57 57 57 51 38 43 51 58 58 54 50 49 48 48 47 45 46 49 50 51 51 47 44 44 49 46 43 46 43 39 38 31 25
55 55 55 54 54 54 52 51 52 53 53 53 50 47 57 57 48 40 43 50 53 56 57 55 55 52 50 48 46 45 46 48 50 50 47 46 41 32 42 49 49 46 43 41 29 32 27
55 54 54 54 53 52 50 51 52 53 55 54 49 50 57 56 37 31 46 52 55 54 53 53 52 53 51 47 43 45 46 50 51 49 47 48 38 31 39 45 47 43 44 41 37 32 31
54 54 54 53 53 51 52 52 52 52 55 54 50 43 48 48 45 47 47 48 50 55 54 55 53 54 49 46 47 44 45 50 50 49 49 49 40 37 33 37 40 39 42 41 40 28 30
53 53 53 52 50 50 51 52 52 52 53 55 48 45 48 37 41 46 50 50 49 48 54 55 52 52 49 42 41 41 45 46 50 49 46 45 38 37 37 39 40 40 41 41 40 38 35
53 52 51 50 50 49 50 52 52 52 53 53 48 46 45 43 47 48 44 50 50 50 51 50 51 48 49 44 48 44 46 44 44 46 42 41 34 33 34 38 37 37 41 40 39 40 39
52 50 49 49 49 49 52 51 51 52 54 52 49 50 50 39 41 43 41 50 52 52 50 52 52 48 44 46 47 46 46 45 46 44 37 34 30 31 29 32 32 30 38 40 39 41 41
50 48 49 49 51 52 52 51 51 52 54 55 52 51 44 34 37 43 50 51 51 51 50 49 51 47 48 51 50 49 46 44 45 41 41 30 28 26 24 25 22 40 42 43 42 42 42
50 50 51 52 52 52 51 51 51 52 52 54 52 53 46 32 41 46 48 48 48 48 46 47 49 50 52 46 38 38 34 37 36 40 38 38 28 24 24 23 33 40 41 40 40 41 42
52 52 52 52 51 51 50 50 51 52 53 54 53 52 50 42 41 52 48 48 39 40 40 44 50 50 46 32 32 29 30 35 33 37 39 36 30 28 19 20 21 37 42 46 45 33 43
52 52 52 52 51 51 50 50 50 51 53 57 53 53 52 45 48 51 47 47 47 43 39 43 45 44 44 28 24 26 30 37 33 29 26 27 25 21 16 17 29 40 45 47 34 37 42
51 51 51 51 50 50 50 50 50 52 53 57 55 54 55 47 48 52 53 48 48 45 41 45 44 41 34 32 28 27 24 32 31 35 33 31 26 24 22 17 26 44 44 39 43 40 42
50 50 51 51 49 48 48 48 49 51 53 59 55 56 53 51 50 53 54 53 52 54 47 44 47 44 41 34 26 31 30 33 27 29 38 33 35 30 33 32 42 45 43 46 45 44 42

GFSGBSN_sfc_temp_009.txt.gz
Temp
63 63 62 62 63 62 61 61 60 60 60 60 59 60 60 60 60 59 59 59 59 60 59 58 58 58 54 53 60 73 67 67 70 71 73 70 67 66 63 65 66 64 67 67 68 70 70
62 62 62 61 62 62 61 61 60 59 60 59 59 59 59 59 59 59 59 58 58 59 58 57 57 57 50 55 77 72 68 68 71 72 70 71 70 71 68 66 66 68 67 67 67 67 68
63 61 61 61 61 61 60 59 59 59 59 59 59 59 58 58 58 59 58 59 58 57 57 57 57 56 51 61 77 72 72 71 72 73 69 71 74 71 69 65 69 66 65 66 65 67 66
62 62 61 61 60 59 59 58 58 58 59 59 59 58 58 57 57 58 58 57 57 57 56 56 56 54 54 73 74 73 72 74 73 74 74 75 74 71 69 69 65 63 61 59 65 67 64
62 61 61 61 60 59 58 58 58 58 59 58 58 58 57 56 56 57 57 56 56 56 56 55 52 50 58 74 74 79 76 75 71 71 73 76 74 67 68 62 59 58 55 56 60 61 64
62 61 61 61 60 59 58 58 58 57 58 58 58 57 57 56 56 56 55 56 56 55 55 57 56 52 65 70 74 76 80 78 75 69 69 68 66 63 61 61 52 55 55 56 58 58 59
61 61 61 61 60 59 60 59 58 57 58 57 57 57 57 56 56 55 53 52 51 51 50 58 60 61 67 73 73 75 77 74 73 70 62 64 61 58 61 61 60 58 57 56 55 56 54
60 61 61 61 60 60 60 59 58 57 58 57 57 56 56 56 55 54 54 50 60 66 57 58 61 62 67 70 67 72 78 70 67 61 64 62 56 61 61 60 59 58 54 51 53 55 55
58 60 60 60 60 59 59 59 58 57 57 56 56 56 56 55 54 53 51 52 65 67 57 61 62 64 69 70 66 68 73 69 65 60 59 56 60 62 60 58 56 55 54 50 52 54 56
57 58 59 60 60 59 59 58 58 57 56 56 55 55 55 54 51 52 52 61 60 63 50 56 63 68 70 69 64 72 72 69 63 57 58 59 61 59 58 56 58 53 56 54 51 52 49
56 56 58 59 59 58 57 57 57 57 56 56 55 55 54 56 53 55 64 65 62 62 35 58 64 75 69 66 67 68 70 69 60 58 60 56 58 58 56 56 58 54 56 56 54 51 51
56 56 57 58 57 57 56 56 56 56 55 55 55 55 54 54 53 56 62 63 61 44 36 55 63 62 62 63 63 65 67 68 65 59 59 57 62 60 60 58 58 57 56 54 52 51 44
56 56 55 57 57 56 56 56 55 55 55 54 54 55 55 57 57 61 60 58 44 37 55 53 56 60 59 57 58 59 57 56 56 51 50 56 56 60 61 58 59 57 53 45 43 42 41
56 55 54 57 56 56 56 55 55 54 54 54 54 54 55 56 58 56 58 52 40 48 49 58 56 57 55 57 56 56 55 53 56 54 49 49 47 57 60 58 55 53 53 44 35 36 43
55 54 54 56 56 56 55 55 54 54 53 53 53 53 52 57 59 56 54 37 42 47 56 55 56 53 53 56 55 54 52 52 54 55 51 48 48 59 58 60 60 52 49 52 41 38 40
55 54 54 55 56 55 55 54 54 54 53 53 52 51 55 60 58 56 47 43 51 55 58 56 50 53 49 52 52 52 52 54 54 56 57 53 47 54 58 60 58 56 54 46 44 35 33
54 54 54 55 55 55 54 54 54 53 53 54 53 52 58 58 57 53 42 46 53 58 58 56 53 51 52 51 51 51 51 54 55 56 58 54 51 50 55 52 52 52 49 44 45 40 37
54 53 53 55 55 55 54 54 54 53 53 52 51 48 58 56 50 44 46 51 53 57 60 58 58 55 52 52 50 49 50 53 54 56 54 53 47 43 49 55 56 55 51 48 41 38 35
52 52 52 55 55 54 54 53 52 53 54 52 49 51 58 57 41 37 49 54 56 56 56 57 55 56 55 50 47 50 51 54 54 55 52 53 46 40 46 52 54 52 50 46 43 40 36
51 51 52 54 54 54 53 51 51 52 54 55 52 45 51 49 48 49 49 51 52 56 56 57 54 55 52 50 50 47 49 53 53 52 48 51 45 44 42 45 48 46 47 47 47 40 39
51 51 53 54 54 52 51 51 51 52 53 52 50 47 51 40 43 48 52 52 51 51 57 58 55 54 52 46 47 45 50 51 52 50 50 51 44 44 42 43 46 47 46 46 46 46 43
51 52 53 53 52 51 51 52 52 52 53 51 48 47 46 45 48 49 46 50 52 54 54 54 53 53 54 48 51 46 49 49 50 50 47 46 40 40 40 42 42 43 47 46 45 45 45
51 52 52 51 51 51 51 51 51 52 55 52 51 52 52 39 43 45 43 49 52 54 52 54 54 51 48 51 51 49 49 48 50 49 42 41 36 38 36 36 38 37 42 45 45 47 49
52 52 51 50 50 50 50 51 51 53 54 55 53 52 46 36 40 44 49 52 52 53 52 52 54 51 51 54 52 53 49 47 48 44 45 36 35 33 35 31 33 48 49 49 48 48 49
50 50 50 50 49 51 51 51 51 52 54 55 53 54 47 34 42 46 49 49 49 49 49 50 50 52 53 50 43 42 39 40 39 42 42 42 36 31 34 34 39 47 45 45 44 49 51
49 49 50 51 51 51 51 51 51 52 54 55 54 53 51 42 42 52 48 49 43 43 44 46 51 52 49 38 38 36 37 40 40 41 43 40 36 38 30 33 31 44 49 51 52 42 52
51 51 51 51 50 50 50 50 51 52 53 56 54 54 54 47 50 52 49 48 49 46 43 46 48 47 49 36 34 36 39 41 39 34 31 33 31 33 26 33 37 46 50 52 41 45 48
51 51 51 51 50 50 50 50 51 52 54 56 54 55 56 49 50 53 54 49 49 49 44 47 47 45 39 37 36 36 35 38 38 40 36 37 33 31 27 30 33 48 50 44 50 49 49
51 50 50 49 49 47 48 49 51 53 54 55 55 55 56 52 51 54 55 55 56 56 50 47 51 47 46 39 35 34 33 33 33 37 41 37 40 38 38 40 48 50 49 52 50 50 51

GFSGBSN_sfc_temp_012.txt.gz
Temp
63 63 63 62 62 62 63 62 61 60 59 60 59 59 60 60 60 59 58 58 59 59 59 59 59 58 62 65 72 82 66 68 78 82 81 80 77 76 71 74 75 72 75 76 77 79 80
62 62 62 62 61 62 63 62 61 59 59 60 59 59 59 59 59 59 58 58 58 58 58 58 57 57 61 64 86 84 81 77 81 82 82 82 79 81 76 74 74 76 75 75 76 76 77
61 62 61 61 61 61 61 61 60 59 59 59 60 59 58 58 58 58 58 58 57 57 57 57 57 61 60 72 86 85 83 82 84 84 81 84 83 78 78 72 76 76 71 74 74 77 74
61 61 62 61 60 60 60 60 59 59 59 58 59 58 57 57 57 57 57 57 57 57 57 57 57 59 66 83 88 82 85 82 83 86 84 83 83 78 75 77 74 72 73 66 71 76 73
61 61 62 61 60 60 59 59 59 59 58 58 59 58 57 56 56 56 57 56 56 57 57 56 59 59 70 80 79 86 85 81 80 80 81 81 80 74 74 70 67 68 63 65 66 73 74
61 61 61 61 60 60 59 59 58 58 58 58 59 57 57 56 56 56 56 56 56 56 58 62 64 59 75 77 83 84 89 84 79 76 74 74 75 72 73 70 59 62 63 67 66 68 74
60 61 61 61 60 60 60 60 58 57 57 58 58 57 57 56 56 55 57 62 59 58 58 69 70 69 75 83 84 84 87 83 81 76 69 71 68 65 69 71 71 70 68 66 67 66 68
59 60 61 61 61 60 60 60 58 57 57 58 57 57 56 56 56 55 60 63 71 72 67 71 70 70 76 78 74 82 87 78 76 70 71 66 64 68 71 70 69 69 66 64 63 64 67
58 59 60 60 61 60 60 60 58 57 57 57 57 56 56 55 55 56 61 65 76 75 67 69 72 73 76 78 75 77 83 76 73 70 70 67 67 68 69 68 66 65 65 63 64 63 66
57 57 58 59 60 60 59 59 58 57 57 57 56 56 55 54 55 64 62 73 75 71 63 65 70 75 77 78 72 80 82 79 71 67 68 67 68 68 68 65 66 61 66 66 62 62 58
57 57 57 58 59 59 58 58 58 57 57 56 55 55 54 55 65 64 72 76 74 71 43 68 71 83 78 74 75 74 79 78 68 67 68 62 65 66 65 64 66 63 66 66 65 64 61
56 56 57 57 57 57 57 57 56 56 56 56 55 55 54 56 63 69 72 74 72 56 44 62 72 70 70 71 71 75 75 78 75 68 70 66 70 70 67 66 67 67 65 64 64 63 52
55 56 57 56 57 57 57 56 56 56 56 55 55 55 55 66 68 70 71 70 56 48 63 61 64 69 69 66 66 69 68 67 66 59 60 65 65 69 70 65 66 67 63 53 50 49 48
54 55 56 56 56 57 56 56 55 55 55 55 54 54 56 66 72 68 70 64 48 58 60 66 67 68 64 66 64 65 65 63 66 66 63 60 53 64 67 66 64 64 64 54 41 44 53
54 55 55 56 56 56 56 56 55 54 54 54 54 55 55 65 64 65 66 51 54 60 66 63 65 61 61 64 65 64 63 64 64 66 61 58 56 66 65 67 67 60 57 63 51 48 49
54 54 54 55 55 55 55 55 55 54 54 54 57 55 64 70 68 65 60 54 61 65 66 66 59 63 58 62 62 63 62 63 62 65 67 63 54 62 63 67 66 64 65 54 56 41 40
53 54 54 54 54 55 55 55 54 54 54 54 63 61 67 70 69 64 56 60 63 68 67 64 63 60 63 60 63 62 62 62 64 64 68 66 61 57 61 61 61 59 59 56 58 52 46
52 53 53 54 54 54 54 55 54 53 54 53 63 57 66 68 61 65 60 64 58 66 67 66 67 66 63 63 61 61 60 63 63 66 62 63 61 52 58 62 64 64 61 61 51 47 48
51 52 53 54 54 54 54 54 53 53 54 57 61 63 66 65 54 53 61 64 65 65 66 65 64 66 65 62 57 60 61 60 61 63 63 63 58 49 52 58 62 60 61 61 56 52 46
51 52 53 53 53 53 54 54 54 53 55 66 65 55 61 65 66 63 60 61 62 65 65 66 63 65 62 59 60 57 57 59 60 61 49 58 58 56 50 56 60 54 58 60 60 49 51
51 52 52 52 52 52 54 53 53 53 54 63 65 61 66 51 57 63 65 64 62 60 66 67 63 65 63 55 56 56 59 57 59 52 59 62 54 54 54 54 55 57 58 57 57 58 51
51 51 51 51 51 52 53 52 52 52 54 60 61 61 62 63 61 62 57 61 62 63 64 63 64 63 64 58 62 57 60 60 60 59 59 56 52 50 48 51 52 51 58 59 59 60 58
51 51 51 50 50 52 52 51 52 52 55 64 66 65 68 48 60 60 58 62 63 65 60 64 67 63 60 60 63 64 62 63 63 59 55 54 48 47 46 47 47 41 51 58 59 61 59
51 51 51 51 52 52 52 51 51 53 60 72 70 70 62 51 56 59 62 65 63 65 61 60 65 63 58 65 65 64 62 60 60 55 57 46 48 45 43 39 35 57 59 59 60 62 64
51 50 51 52 52 52 51 51 51 52 55 70 69 69 64 41 58 59 61 63 63 61 59 60 58 61 65 61 56 52 49 47 48 53 53 54 50 40 39 44 51 58 56 54 53 58 65
50 50 52 51 50 50 50 50 51 52 54 69 68 68 69 54 54 65 62 62 57 59 56 53 58 62 60 56 51 46 45 50 47 49 52 50 49 50 40 38 36 54 57 59 59 51 62
50 50 50 49 49 50 50 50 51 52 54 67 67 64 71 63 64 64 61 59 64 62 57 55 55 55 58 50 43 47 49 51 48 43 38 43 42 40 41 39 48 58 58 60 46 52 61
49 49 50 50 50 50 50 50 50 52 54 64 64 65 69 65 61 63 64 61 60 63 56 57 57 55 53 47 47 49 44 49 50 51 46 46 43 39 38 36 37 58 56 50 58 61 60
50 50 50 50 50 50 50 50 51 52 54 58 66 64 67 66 61 64 63 63 65 70 65 60 62 59 61 54 48 46 39 37 45 46 51 46 52 50 50 52 58 60 62 63 61 60 61

GFSGBSN_sfc_temp_015.txt.gz
Temp
62 61 63 63 62 62 63 62 61 61 60 60 60 60 60 61 60 59 59 58 59 59 59 59 60 59 63 68 76 82 66 68 80 81 84 83 80 79 74 78 79 75 79 79 81 82 81
61 62 61 62 62 62 62 62 61 61 60 59 59 59 59 59 59 59 58 58 58 59 59 59 59 57 64 65 92 91 86 83 86 86 86 86 82 85 80 78 77 79 79 79 81 80 80
61 61 61 61 61 61 61 61 61 61 60 59 59 59 59 59 58 58 58 58 58 58 58 58 58 65 66 74 93 92 89 88 88 89 85 88 88 82 81 76 81 79 73 77 77 78 77
61 61 61 61 60 60 60 60 60 60 60 59 59 59 58 57 57 57 57 57 58 58 58 58 58 66 66 90 95 90 91 87 91 91 89 88 88 82 78 81 77 73 75 66 75 78 79
60 60 61 61 60 60 60 60 60 60 59 59 58 58 58 57 57 56 57 57 57 58 57 58 62 65 72 79 85 92 92 85 85 87 87 86 83 77 78 71 69 72 62 66 69 80 78
60 60 60 61 61 60 60 60 59 59 59 58 58 58 57 57 56 56 56 57 57 56 61 69 71 64 77 79 88 89 92 89 83 80 77 77 77 72 72 70 57 62 66 69 68 75 77
59 60 60 60 61 61 61 61 59 58 58 58 58 58 57 57 56 55 57 66 64 64 67 72 75 75 80 88 91 88 91 86 83 80 72 74 68 64 69 72 73 72 70 68 73 75 73
58 59 59 60 60 61 61 61 59 58 58 58 58 57 57 57 56 55 61 69 76 75 69 76 77 79 83 84 77 85 92 79 76 71 75 70 61 73 77 75 72 71 68 67 71 74 72
57 58 59 59 60 60 61 61 59 58 58 57 57 57 57 56 55 56 65 72 83 80 69 75 79 78 81 83 79 81 87 83 75 71 66 63 70 74 72 71 69 70 68 66 67 72 74
56 57 57 58 59 60 60 60 59 58 57 57 57 57 55 54 55 70 68 78 80 77 63 68 72 79 82 83 76 86 88 82 76 70 71 63 75 71 70 69 71 63 72 71 68 66 60
55 56 57 57 58 58 58 58 58 58 57 57 56 56 54 56 68 69 78 83 81 73 45 72 75 88 84 77 80 79 87 82 70 72 71 66 70 71 69 69 72 64 72 71 70 68 65
55 56 56 57 57 57 57 57 57 57 57 56 55 55 54 57 63 75 79 79 74 55 46 65 75 73 73 76 76 82 80 84 81 73 75 64 77 75 73 72 73 73 69 69 70 67 54
54 55 56 56 56 56 57 56 56 56 56 56 55 55 56 67 69 77 76 72 55 48 69 65 67 73 71 70 71 73 71 70 67 59 62 69 70 73 75 68 72 72 66 54 53 52 50
52 53 55 56 56 56 56 56 55 56 56 55 55 54 55 69 76 73 72 63 49 61 64 72 71 71 66 71 71 71 70 67 74 71 62 61 55 69 74 71 67 67 67 54 44 47 55
52 52 53 55 55 56 56 56 55 55 55 54 54 56 58 63 68 69 66 50 55 65 71 67 70 64 65 69 69 69 68 69 73 74 62 61 59 71 71 73 73 67 60 70 58 57 52
52 51 52 54 54 55 55 55 55 55 54 54 62 55 63 69 68 66 61 54 65 72 73 72 61 67 61 65 64 66 66 72 69 72 75 68 58 68 68 72 71 68 72 57 59 44 43
52 51 52 53 54 55 55 55 54 54 54 55 64 60 74 73 69 63 55 60 69 74 74 68 67 65 67 65 67 65 67 70 72 71 75 72 65 62 66 64 66 64 62 63 63 57 47
51 50 50 53 54 54 54 55 54 54 54 55 62 56 70 71 59 63 60 67 66 72 73 72 71 70 67 68 65 66 65 70 74 74 67 72 66 55 62 69 71 70 66 65 52 51 53
50 50 50 53 54 53 54 54 54 54 55 63 60 62 68 68 52 55 67 68 71 70 70 69 68 72 73 68 62 67 68 66 68 70 68 69 62 52 56 63 68 64 67 67 65 57 52
49 50 50 54 54 54 54 54 53 53 55 66 66 55 60 63 69 64 63 65 64 72 72 73 72 73 69 66 69 64 65 64 66 69 52 61 64 59 51 59 66 59 64 66 63 52 53
47 50 52 52 53 53 53 53 53 53 55 63 68 63 66 52 61 66 67 66 65 63 71 73 68 69 67 61 64 63 67 62 64 54 64 66 57 62 64 63 63 64 64 64 62 62 55
49 50 51 52 52 53 52 51 52 53 55 58 65 66 69 65 65 65 60 65 66 68 68 66 67 70 71 64 65 63 66 65 63 64 65 65 56 57 53 62 61 58 63 65 65 64 65
50 50 51 51 52 53 52 50 52 53 56 61 72 67 71 57 64 63 64 66 68 71 66 72 72 70 67 67 70 71 72 71 70 65 62 60 54 51 49 53 54 44 54 62 65 68 66
50 51 51 52 52 52 51 50 52 53 57 71 71 73 60 56 63 63 67 69 69 70 66 69 73 70 66 73 72 71 69 67 66 63 67 53 54 52 47 41 34 61 67 67 64 68 71
50 51 52 51 51 51 50 50 52 53 54 66 74 72 66 46 64 66 66 67 71 69 67 67 65 70 73 70 60 54 53 51 55 61 61 63 55 46 40 47 55 60 65 61 59 61 71
50 51 51 51 50 50 50 51 52 52 54 58 67 74 73 61 61 70 66 69 63 63 60 58 66 71 67 63 56 50 48 54 51 54 59 57 55 52 45 38 35 56 62 65 65 54 67
50 51 51 50 50 50 51 51 51 52 53 57 71 69 76 66 72 71 66 65 71 68 64 59 59 59 65 55 45 51 52 59 50 47 40 46 46 43 45 41 50 64 64 66 49 53 65
49 50 49 49 50 51 51 50 51 51 52 55 72 73 76 70 68 70 74 69 70 70 59 63 60 60 58 50 49 54 48 54 54 58 51 49 46 41 46 37 37 65 63 54 61 66 66
49 49 49 49 49 50 50 50 50 51 52 54 67 74 78 73 65 70 69 70 74 77 73 65 69 64 65 60 55 55 44 41 52 47 59 50 57 54 55 54 64 67 66 69 68 64 66

GFSGBSN_sfc_temp_018.txt.gz
Temp
62 62 61 61 62 63 63 63 62 61 61 61 60 60 60 61 61 60 60 59 59 59 60 60 60 59 62 66 73 81 68 70 81 80 80 82 78 77 72 76 78 74 77 80 74 69 72
61 61 61 61 61 62 63 62 61 61 61 60 60 59 59 60 60 60 59 59 58 59 59 60 59 58 61 64 93 88 83 79 84 81 83 85 82 83 78 77 76 79 78 78 78 69 78
61 61 60 60 60 61 62 61 61 61 61 60 60 59 59 59 59 59 58 59 58 58 59 59 59 63 65 70 93 93 88 86 88 85 82 87 87 81 81 75 82 79 71 76 76 78 75
60 60 60 60 60 60 60 60 60 60 61 60 60 59 58 58 58 58 58 58 58 59 59 59 58 64 64 89 93 92 91 88 90 89 88 89 88 81 78 80 77 71 72 62 73 76 77
60 60 60 60 59 60 60 60 60 60 60 60 60 59 58 58 57 57 57 58 58 58 58 59 60 65 69 82 84 92 92 85 87 87 88 88 83 76 77 67 65 68 59 62 67 78 76
60 60 60 60 59 59 60 60 59 59 60 59 59 59 58 58 57 57 57 58 59 58 59 68 71 63 74 78 88 90 93 90 82 81 78 77 74 70 70 65 54 58 61 65 65 72 74
59 60 60 59 59 60 60 61 60 59 59 59 59 59 58 58 57 56 56 62 61 59 65 69 74 72 82 89 92 87 90 85 84 77 68 73 66 62 65 69 70 68 66 64 70 76 72
58 58 59 59 59 60 60 61 60 58 58 59 58 58 58 57 57 56 60 64 75 75 65 74 76 79 84 86 77 85 91 78 75 67 73 68 62 70 72 72 70 69 65 65 71 74 72
57 57 58 58 59 59 60 60 59 58 58 58 58 58 57 57 56 56 62 68 81 79 66 74 79 77 80 84 77 80 86 81 72 69 68 60 62 68 72 69 67 68 65 64 66 70 73
56 56 57 58 58 59 59 59 59 58 57 57 57 57 56 55 53 67 64 74 75 75 58 67 72 78 82 82 74 88 89 81 71 67 67 66 69 69 70 68 70 61 69 69 67 63 56
55 55 56 56 57 57 57 57 58 58 57 57 56 56 54 55 65 68 78 82 80 72 42 72 74 89 84 76 79 79 89 82 70 66 68 63 61 67 66 65 70 63 68 68 69 65 57
54 54 55 55 56 56 56 56 57 57 57 56 56 56 54 55 60 67 74 76 73 52 42 66 75 72 73 75 77 81 79 84 81 72 70 64 73 72 68 72 73 72 67 69 68 64 44
53 54 54 55 55 56 56 56 56 56 56 56 56 55 56 67 65 76 73 67 52 45 69 65 67 71 70 69 71 73 70 69 65 58 58 65 68 75 76 69 73 70 64 51 42 43 45
53 53 54 54 55 55 56 56 56 55 56 56 55 54 56 66 72 72 68 54 45 59 62 74 71 70 65 70 70 70 68 64 71 69 63 54 53 69 74 70 60 64 64 51 32 33 49
52 52 53 53 54 55 55 55 55 55 55 55 54 56 57 61 65 66 56 45 51 63 69 69 70 64 64 70 69 68 66 65 70 71 52 48 53 68 73 75 72 65 60 69 56 44 49
52 52 52 52 52 54 55 55 55 55 54 54 59 55 58 65 66 61 51 49 60 71 74 72 62 66 60 65 64 65 65 72 70 75 63 51 43 64 70 73 72 67 71 56 57 41 40
51 51 51 53 51 51 54 55 55 55 54 55 61 54 68 69 65 56 48 55 63 74 76 69 66 65 66 65 66 64 66 70 70 73 75 70 61 61 67 64 63 63 60 62 62 56 43
50 49 51 52 52 51 53 54 55 54 54 53 60 50 68 68 54 58 53 61 64 71 76 72 72 70 67 68 65 65 64 70 76 75 66 71 65 52 61 71 73 69 64 64 48 48 50
49 50 51 51 52 51 53 54 55 54 54 55 56 58 66 66 49 50 60 63 68 68 70 69 68 71 73 68 62 67 69 69 71 71 66 69 60 49 55 64 68 63 66 67 65 55 47
49 50 50 51 51 51 53 53 54 54 54 57 59 48 52 56 65 58 57 60 62 72 72 73 71 73 70 66 70 65 67 65 69 70 54 64 63 57 48 57 63 59 63 66 63 46 47
49 49 50 50 51 51 53 53 54 53 53 52 57 56 58 47 54 60 63 63 62 63 72 74 69 69 67 61 64 63 68 63 66 56 65 66 56 60 63 65 64 62 63 64 61 61 51
49 49 49 49 50 50 53 52 53 53 53 50 53 60 64 60 61 59 58 60 63 67 67 66 66 69 70 64 66 62 67 64 62 64 64 66 54 56 53 62 62 58 62 64 63 64 63
49 49 49 49 50 51 54 53 52 52 52 51 62 65 65 55 58 57 57 63 65 69 71 74 71 69 66 68 72 70 70 72 71 64 61 60 52 48 45 54 52 42 52 59 62 66 65
49 49 48 50 51 53 53 52 51 51 52 61 65 66 54 52 58 60 62 67 67 69 66 72 74 69 69 76 73 71 70 68 68 65 69 53 52 48 43 40 35 58 69 68 64 66 69
49 49 50 50 51 52 52 51 51 50 51 58 63 57 54 46 61 63 65 67 70 71 69 69 67 72 75 70 58 52 50 49 56 64 63 63 53 45 38 43 52 58 65 62 59 59 67
49 50 51 51 51 51 52 51 50 50 50 54 58 59 58 56 58 69 66 69 63 62 61 60 70 74 72 62 53 48 46 53 51 54 62 59 55 48 43 38 35 55 63 67 66 50 65
49 50 50 50 51 51 51 49 49 50 51 53 55 58 57 58 69 68 65 64 70 65 60 61 60 60 66 51 42 50 49 61 48 45 39 44 45 39 43 39 46 64 66 67 47 49 63
49 50 50 50 50 50 50 50 49 50 51 52 54 60 56 61 69 73 76 70 70 67 56 62 60 61 58 50 48 52 46 54 54 58 49 45 43 39 44 36 34 66 63 52 59 65 65
49 49 50 50 50 49 49 49 50 51 51 53 50 59 63 64 63 70 69 72 72 76 67 64 66 63 62 58 54 54 41 41 48 45 63 49 55 50 50 48 63 68 65 69 68 64 64

GFSGBSN_sfc_temp_021.txt.gz
Temp
62 61 61 61 61 61 62 63 62 61 61 61 61 60 60 60 60 60 60 59 59 59 60 60 60 59 54 56 63 74 68 69 73 74 71 71 67 67 62 64 66 66 68 68 66 64 65
61 61 61 61 60 61 61 62 62 61 61 61 60 60 59 59 59 59 59 59 58 58 59 59 59 58 51 55 79 73 74 72 75 71 73 74 72 75 69 67 65 71 70 68 67 65 66
61 61 60 60 59 60 60 60 61 61 61 60 60 59 59 59 59 58 59 58 58 58 58 58 59 58 56 59 79 75 78 73 76 76 71 76 77 71 69 65 73 71 67 67 64 65 66
60 60 60 60 59 59 59 60 60 60 60 60 60 59 59 58 58 57 57 57 57 58 58 58 58 54 52 79 75 77 78 77 79 79 77 79 78 71 67 71 67 63 61 54 65 68 67
60 60 60 60 59 59 58 59 59 60 60 60 60 59 58 57 57 57 56 57 57 58 58 58 52 52 57 79 76 82 82 79 79 79 78 84 74 65 66 58 53 59 50 57 62 71 68
60 60 59 59 59 59 59 59 59 59 59 59 59 59 58 57 57 56 56 56 57 56 57 61 61 53 64 71 80 82 82 82 76 73 71 67 63 57 56 53 45 51 54 56 57 64 66
59 59 59 59 59 59 59 60 59 59 59 59 59 59 58 57 57 56 53 52 50 50 53 56 62 63 74 80 84 78 83 78 74 68 56 62 54 49 55 61 63 63 58 56 60 67 63
58 58 59 59 59 59 59 59 58 58 58 58 58 58 58 57 57 56 52 51 63 61 54 64 66 69 76 78 71 77 81 69 66 58 59 57 52 62 67 66 62 60 59 56 63 67 61
57 57 58 58 58 59 59 59 58 58 58 58 58 58 57 57 56 53 52 56 68 64 52 66 70 68 73 76 70 71 77 71 64 61 61 52 59 67 65 61 61 61 56 57 58 62 58
56 56 56 57 58 58 58 58 58 58 57 57 57 57 56 55 51 55 53 63 63 61 44 59 66 71 76 76 67 79 80 73 65 61 61 59 66 64 62 60 64 56 63 61 61 54 46
56 55 56 56 56 57 57 57 57 57 57 57 56 56 54 56 52 55 64 66 65 59 32 64 68 81 77 69 70 72 82 74 63 61 60 56 61 59 58 61 64 59 63 60 60 54 52
55 55 55 55 55 55 56 56 56 56 56 56 56 56 54 54 53 56 61 64 62 45 34 61 69 66 66 69 69 72 72 73 72 63 63 59 68 63 60 66 66 67 61 58 56 51 37
53 54 54 55 54 55 55 55 56 56 56 56 55 55 54 60 55 62 61 56 41 33 62 60 61 66 64 62 65 67 64 60 55 49 50 60 63 63 66 59 64 61 53 40 37 34 33
53 53 54 54 53 53 54 55 55 55 55 55 55 54 55 59 62 60 58 49 37 52 54 68 64 64 59 63 63 64 60 55 61 58 51 50 43 56 63 61 58 55 53 38 32 29 39
53 52 53 54 54 53 54 55 55 55 55 55 54 53 54 56 59 58 52 41 41 53 62 61 63 57 57 63 62 60 57 56 61 62 49 46 49 62 65 65 62 57 50 57 42 42 36
52 51 52 52 53 53 53 54 55 55 55 54 52 51 53 58 58 55 47 44 51 63 65 65 54 59 52 58 60 57 56 63 62 66 59 51 45 56 59 63 66 60 61 46 43 33 31
51 51 52 52 52 52 52 54 55 55 54 54 52 48 57 60 57 50 41 46 55 65 66 61 59 57 58 57 59 56 57 64 65 62 61 54 50 49 57 56 54 54 51 53 51 41 33
50 50 51 51 52 52 51 51 55 55 54 52 51 44 58 60 44 46 44 51 55 62 65 63 64 61 58 60 56 56 56 61 67 66 57 55 49 38 53 63 65 60 54 52 35 40 35
50 50 50 51 51 50 50 51 52 54 54 51 47 50 58 59 40 40 49 53 57 59 60 62 60 62 61 59 53 57 58 62 65 62 58 58 49 34 44 53 59 55 58 59 53 41 37
49 49 50 50 50 50 51 51 51 54 54 52 48 43 49 51 56 49 47 50 51 61 61 65 64 63 59 58 60 56 54 60 62 59 53 58 54 45 36 46 54 49 55 57 52 34 35
49 49 49 50 49 50 51 50 51 53 54 52 48 48 53 43 45 50 52 54 52 53 62 65 61 61 57 52 54 55 55 56 60 54 58 56 46 49 52 56 58 55 56 57 53 50 41
49 49 49 49 50 50 50 50 50 53 54 48 46 48 50 48 51 49 50 51 54 57 60 59 59 61 60 55 56 54 57 55 54 55 54 56 43 44 42 54 52 48 53 54 54 55 52
49 48 49 49 50 51 51 49 49 53 53 46 51 53 55 48 49 47 49 54 55 60 62 67 62 59 56 60 61 59 60 58 60 54 50 49 41 37 35 44 44 35 46 51 53 55 52
48 49 49 50 50 50 50 50 51 53 53 49 54 54 49 43 49 50 56 58 58 59 57 65 64 58 60 64 61 59 58 56 56 56 57 44 42 35 32 33 26 48 59 59 54 56 56
48 49 50 50 50 50 50 50 52 53 53 49 51 52 51 36 52 54 56 57 60 61 59 60 61 65 64 58 46 44 38 41 47 56 54 52 39 34 30 30 41 50 54 52 50 48 55
49 49 49 49 49 49 50 50 52 52 52 50 50 51 51 47 49 60 57 59 53 52 49 54 59 61 63 47 38 37 33 42 41 48 53 52 43 35 31 28 25 43 55 60 58 38 55
49 49 48 48 49 50 51 51 51 51 51 50 49 52 49 49 55 61 56 56 60 53 47 52 50 52 56 36 35 34 35 51 38 37 35 33 33 30 26 25 35 53 59 59 38 39 54
49 48 47 48 50 50 50 51 50 50 50 48 48 51 51 50 51 62 65 61 59 53 45 52 48 49 41 39 36 35 32 39 39 46 40 36 32 29 31 29 29 57 56 45 48 53 54
48 49 49 49 50 50 50 50 50 50 50 51 45 53 55 49 51 59 61 61 62 64 55 54 52 53 50 43 40 38 34 35 37 33 51 37 42 36 39 36 50 56 55 57 57 55 54

GFSGBSN_sfc_temp_024.txt.gz
Temp
61 61 61 61 61 61 61 61 61 61 60 60 60 60 60 60 60 59 58 58 59 59 58 59 59 59 53 53 59 71 68 68 70 71 67 66 63 63 58 62 62 59 64 64 65 66 65
61 61 60 60 60 60 61 61 60 60 60 60 60 60 60 60 59 59 58 58 58 58 58 58 59 58 51 53 74 72 70 69 70 67 69 68 67 68 65 64 60 65 65 63 63 66 66
61 60 60 60 60 60 60 60 60 60 60 60 60 59 59 59 59 58 58 57 57 57 57 58 58 57 52 58 72 70 74 70 71 70 67 71 72 67 64 63 68 66 60 61 61 62 63
60 60 60 60 59 58 58 58 59 60 60 60 60 59 58 58 58 57 57 56 56 57 57 58 58 52 51 72 68 73 71 73 74 73 72 74 74 69 64 66 64 59 62 50 60 61 65
60 60 60 60 59 58 58 58 58 59 60 60 60 59 58 58 57 57 56 56 56 57 58 58 51 51 53 73 71 75 75 74 73 73 72 80 70 63 63 55 51 53 46 52 55 64 63
59 60 60 59 59 59 59 58 58 58 59 59 59 59 58 58 57 56 55 56 56 55 57 59 59 50 60 67 75 78 75 77 71 69 68 65 59 54 54 51 42 48 50 49 54 61 60
59 60 59 59 59 59 59 59 58 58 58 59 59 59 58 58 57 56 53 51 52 51 50 54 58 58 67 73 77 76 77 74 70 66 55 58 52 47 52 56 60 60 55 52 54 63 59
58 58 59 59 59 59 59 59 58 57 58 58 58 58 58 57 56 56 52 49 56 58 50 61 62 63 69 70 65 72 77 67 63 55 56 53 49 58 63 63 59 56 55 53 58 62 59
57 57 58 59 59 59 59 59 58 57 57 57 58 58 58 57 56 53 49 52 63 62 49 59 64 63 66 70 65 67 73 66 61 56 56 50 57 64 63 61 56 55 54 53 53 58 57
57 56 57 57 58 58 58 58 58 57 57 57 57 57 56 55 52 53 51 59 60 59 42 52 60 65 71 71 63 74 75 68 60 57 56 56 61 61 58 56 57 49 61 58 57 52 45
54 56 56 56 56 56 56 57 57 57 57 57 56 56 54 57 52 53 60 61 58 57 27 59 62 76 72 65 66 67 76 69 59 59 58 55 56 55 56 57 60 56 59 57 57 50 47
53 54 55 56 56 55 55 56 56 56 56 56 56 55 54 53 51 53 60 60 57 41 31 55 65 62 62 64 65 67 69 70 67 60 57 57 61 61 59 63 62 64 58 55 50 47 35
54 53 55 55 55 55 55 55 55 56 56 56 55 55 55 58 52 57 60 56 40 35 56 55 57 61 59 58 60 62 60 57 53 47 47 55 56 60 62 56 60 59 49 38 37 32 32
54 52 54 54 55 55 55 54 55 55 55 55 55 54 55 58 56 56 57 49 35 46 49 61 60 60 55 59 58 59 56 52 55 55 47 46 42 55 61 58 52 52 50 36 33 29 38
53 52 53 53 53 54 54 54 54 55 54 55 54 53 53 56 55 56 51 40 39 47 58 57 58 53 52 58 58 56 53 53 57 57 48 44 46 57 59 61 59 52 46 53 40 38 34
53 53 52 52 52 52 53 53 53 54 55 54 51 51 52 56 57 54 47 43 47 57 61 59 51 54 48 53 53 52 52 57 58 61 58 52 44 53 58 62 59 55 58 44 40 32 30
52 52 52 53 52 52 52 53 53 53 54 55 50 46 55 58 56 47 41 44 51 60 60 56 53 52 54 52 54 51 54 60 60 57 58 53 49 47 55 53 53 51 49 49 47 38 33
52 52 51 52 52 52 52 53 53 53 54 52 48 41 55 58 42 45 43 49 52 56 60 57 58 55 53 54 53 52 53 58 61 59 54 54 48 36 48 60 59 54 52 49 34 38 32
51 51 51 51 50 51 51 52 52 53 54 49 44 47 54 56 38 38 47 51 53 54 56 56 56 58 59 54 50 53 55 59 60 60 55 55 45 34 42 51 54 53 55 53 48 38 36
51 51 51 51 50 50 51 51 52 52 53 49 46 40 46 49 52 46 43 45 46 56 54 57 57 58 56 53 54 52 52 57 58 59 54 55 48 43 36 44 49 46 51 52 48 33 36
50 50 50 50 49 50 51 51 51 51 53 49 45 45 48 39 42 46 48 48 45 47 56 58 55 55 53 48 49 52 53 54 56 52 54 53 45 47 49 51 52 50 50 51 49 47 39
49 50 50 50 50 50 51 51 51 50 51 45 43 46 48 44 48 44 46 45 47 50 54 54 52 55 55 52 53 50 53 51 52 53 52 52 43 42 41 48 49 46 50 49 50 50 49
49 49 49 49 50 50 50 50 50 51 49 45 47 51 50 46 46 43 44 47 49 53 55 59 58 56 51 56 58 57 59 58 56 52 48 47 39 36 36 40 42 34 44 49 50 51 51
49 49 49 49 50 50 50 49 49 50 48 48 49 48 46 41 46 45 49 51 51 54 52 59 61 55 57 61 58 56 54 53 54 51 53 42 39 33 30 32 26 46 54 54 50 49 51
49 49 49 49 50 50 50 50 49 50 49 46 50 47 45 36 47 48 50 51 54 56 54 58 58 61 62 54 45 42 36 41 46 51 50 52 38 33 30 29 39 47 51 50 47 44 51
48 49 49 49 49 49 50 50 49 50 50 47 48 49 46 41 44 54 50 53 49 49 51 52 56 56 56 43 37 35 33 40 39 45 50 46 40 35 29 27 25 41 51 56 53 36 52
48 48 49 49 49 49 49 50 49 49 50 49 47 49 46 43 52 56 50 51 57 49 50 49 51 51 51 36 33 32 34 46 36 36 34 31 31 29 23 24 33 47 54 55 38 39 52
48 48 49 49 49 49 49 49 49 49 51 50 48 51 47 45 49 53 58 56 57 53 45 49 47 47 40 38 36 33 31 38 37 42 39 36 31 26 31 26 30 52 52 44 45 49 52
48 48 48 48 48 48 49 49 48 50 52 51 45 51 52 45 47 53 55 56 64 60 52 49 50 49 50 42 38 36 34 32 35 32 46 38 40 34 37 36 48 52 52 53 53 52 51

GFSGBSN_sfc_temp_027.txt.gz
Temp
61 61 61 61 60 60 61 61 61 60 60 61 60 60 60 61 60 59 58 58 58 58 58 58 59 59 52 52 59 69 67 66 66 67 64 64 60 58 54 57 57 56 60 61 63 62 60
61 61 60 60 60 60 61 60 60 60 60 60 60 60 60 60 60 59 58 58 57 57 57 58 58 58 49 51 71 69 67 66 66 64 64 65 64 65 61 60 58 61 60 59 60 61 65
60 60 60 60 59 59 60 59 59 59 59 60 60 59 59 59 59 58 58 57 57 57 57 58 58 56 49 57 69 66 70 66 66 67 65 68 67 63 63 60 65 61 56 58 59 60 60
60 60 60 59 59 59 58 58 58 58 59 59 60 59 58 58 58 57 57 56 56 57 57 58 58 50 48 69 65 67 67 69 70 69 69 70 68 65 60 64 61 57 55 51 57 61 61
60 60 60 59 59 58 58 58 58 58 58 59 59 59 58 57 57 57 56 56 56 57 57 57 49 49 52 70 66 71 72 69 71 70 69 76 67 60 60 52 48 51 46 48 55 62 60
60 60 59 59 59 58 59 58 58 58 58 58 58 58 58 57 57 56 55 56 56 55 56 58 57 48 59 64 71 72 68 71 68 66 65 62 56 52 51 49 41 44 47 47 49 58 56
59 59 59 59 59 59 59 59 58 57 57 58 58 58 58 57 57 56 53 51 51 51 52 54 55 55 61 69 72 69 72 70 67 62 52 56 50 45 49 52 54 53 50 49 52 60 55
56 59 59 59 59 59 59 59 58 57 57 57 57 58 57 58 57 56 51 49 56 57 49 58 59 60 65 67 61 67 74 64 60 54 54 51 47 55 58 58 56 57 51 51 56 58 57
56 56 58 58 58 58 58 59 58 57 57 57 57 57 57 57 56 52 49 53 63 61 48 56 60 60 62 65 60 62 70 63 58 54 52 48 54 60 59 58 54 52 50 50 52 54 53
56 55 55 57 58 58 58 58 57 57 56 56 56 56 55 56 51 53 51 60 60 58 43 50 56 61 65 67 60 70 70 66 57 55 54 52 58 57 55 54 54 48 56 55 53 49 43
55 55 55 55 56 57 56 56 57 57 57 56 55 56 54 56 54 52 59 60 58 55 28 56 58 71 66 63 63 65 71 65 57 56 55 53 55 53 53 55 57 52 57 54 52 48 44
54 55 55 55 54 56 56 56 56 56 56 56 55 56 54 54 52 54 58 59 57 39 30 52 61 58 58 61 61 63 65 66 64 57 54 54 58 57 57 59 59 59 54 51 47 44 34
54 54 54 54 54 53 56 55 55 55 56 56 55 56 54 58 51 56 57 56 41 31 54 52 54 57 55 54 57 59 57 54 51 45 45 51 53 57 59 54 56 55 47 37 36 32 32
54 54 54 54 54 53 54 55 54 54 55 56 55 54 55 58 55 54 57 48 35 43 46 57 56 55 52 55 55 55 53 50 53 51 44 44 41 53 57 55 51 49 47 35 32 28 36
54 54 53 53 53 54 54 54 55 54 54 55 54 52 53 56 58 54 51 39 39 45 53 53 54 50 49 54 55 53 51 49 54 54 47 42 45 54 58 60 58 52 45 49 37 34 33
54 53 53 53 53 53 54 54 54 54 54 54 47 48 51 59 58 52 45 43 47 54 56 55 48 51 46 49 50 50 49 55 54 57 56 50 43 51 56 56 57 54 55 42 38 32 31
53 53 53 52 53 52 53 53 54 54 54 54 46 43 53 57 56 45 38 44 50 59 57 51 49 50 51 49 50 47 50 56 57 55 56 51 48 46 52 50 50 50 47 46 45 36 31
52 52 52 52 53 52 52 52 54 54 53 51 45 38 52 57 43 44 39 47 52 55 56 54 54 52 50 51 50 49 50 56 58 56 52 53 46 35 48 54 56 51 49 47 34 37 31
52 52 52 52 52 51 51 51 52 53 52 47 41 44 52 54 38 38 45 48 51 52 52 52 51 54 53 50 47 50 52 57 57 56 52 52 43 33 42 49 51 48 50 49 44 36 34
51 51 51 52 52 51 51 50 52 53 54 47 42 37 45 47 50 46 42 44 45 54 52 53 52 54 51 50 52 49 51 55 56 55 51 54 45 42 36 43 47 43 48 49 46 32 34
51 51 51 51 52 51 51 51 52 52 53 46 42 42 45 38 41 44 46 45 44 46 52 53 48 50 49 43 46 47 50 51 54 51 52 53 44 45 46 48 49 49 49 48 46 44 38
51 50 50 51 51 51 51 51 51 52 52 42 39 42 47 42 46 43 45 43 45 48 48 47 48 53 52 47 49 47 51 49 50 51 49 49 41 42 40 45 45 44 49 48 47 47 46
50 50 50 50 50 51 51 51 51 51 51 41 45 47 46 44 43 42 42 44 46 50 51 55 54 53 47 52 55 54 53 54 55 51 46 45 38 36 36 38 39 34 42 46 48 50 49
50 50 49 50 50 50 50 49 50 51 50 46 47 46 43 38 43 43 46 48 47 50 48 54 55 50 54 56 55 54 51 51 51 48 50 40 38 33 30 32 25 45 50 50 47 46 47
49 49 49 50 50 49 49 50 50 51 51 43 47 45 43 34 45 46 45 46 50 52 50 52 55 58 58 52 44 41 36 41 43 47 47 47 36 31 31 30 38 45 48 47 45 43 47
49 49 49 49 49 49 50 50 50 50 50 44 44 47 44 40 42 51 46 49 44 45 45 49 58 55 52 41 35 35 34 39 36 42 47 43 39 36 28 28 27 41 48 53 51 36 50
48 48 49 49 49 49 50 49 49 50 51 47 44 47 46 40 48 52 46 46 52 48 45 47 50 49 51 33 30 32 32 44 36 35 34 32 30 30 24 25 33 45 52 53 37 39 49
47 48 49 49 49 49 49 49 49 50 50 46 44 49 45 41 44 49 51 49 52 51 43 47 48 46 36 38 36 32 31 37 35 40 38 36 31 26 26 24 30 50 49 43 45 45 49
47 48 48 48 48 48 49 49 49 49 50 49 43 50 51 44 45 51 52 53 51 58 55 47 51 48 47 41 37 35 31 29 35 32 43 37 39 34 37 36 47 49 48 51 50 49 49

GFSGBSN_sfc_temp_030.txt.gz
Temp
61 61 60 60 60 60 61 61 60 59 59 60 60 60 60 61 61 60 59 58 58 58 58 58 59 59 54 52 58 65 66 66 64 65 62 62 58 56 51 54 54 53 57 59 61 60 59
60 60 60 60 60 60 60 60 59 59 59 59 59 59 60 60 60 59 58 58 57 57 57 58 58 58 51 51 68 67 64 64 64 63 61 62 61 62 58 55 55 59 58 57 59 59 61
60 59 60 59 59 59 59 59 59 58 58 58 59 59 59 59 59 59 58 57 57 57 57 57 58 56 50 57 66 63 67 64 65 65 62 65 64 59 59 57 61 59 55 58 56 58 59
60 59 59 59 59 59 59 58 58 58 58 58 59 58 58 58 58 58 57 57 56 57 57 57 57 52 50 66 63 65 64 66 67 66 65 67 66 61 57 61 59 53 53 48 56 58 59
59 60 60 59 58 58 58 59 58 58 58 58 58 58 57 57 57 57 57 56 56 57 57 57 49 50 52 67 64 69 69 67 67 66 66 73 63 56 57 51 48 49 42 48 51 60 58
59 58 60 59 59 58 58 58 59 58 57 57 57 57 57 57 57 56 56 56 56 55 56 57 56 49 58 60 67 68 65 69 66 64 62 59 54 50 49 48 41 43 44 41 47 56 54
57 58 58 59 59 59 59 59 58 57 57 57 57 57 57 57 57 56 53 50 50 49 51 54 55 55 59 66 67 67 67 66 64 62 51 53 49 44 49 52 52 51 47 45 50 57 54
57 57 58 57 58 59 59 59 58 57 58 57 57 57 57 57 57 56 51 48 54 53 48 56 57 58 62 65 58 64 69 61 58 51 52 50 45 53 55 54 53 52 48 48 53 56 53
56 56 57 57 57 57 59 59 58 57 57 57 56 56 56 56 55 53 48 52 60 57 47 55 58 58 60 63 58 59 66 60 56 52 50 46 51 57 57 55 53 50 48 48 50 51 48
55 55 56 56 57 57 57 58 58 57 56 56 56 55 55 55 52 50 48 57 59 57 43 50 54 58 61 62 58 66 68 63 55 53 51 50 56 56 53 52 53 45 53 50 51 46 40
55 55 55 55 56 55 55 57 57 57 57 56 55 55 55 55 50 49 56 59 56 54 27 55 54 68 62 61 61 62 68 63 55 54 53 50 51 51 50 52 55 51 54 50 50 46 43
55 55 55 55 55 55 55 54 56 56 56 56 56 55 55 53 53 52 58 57 56 41 29 50 58 55 55 58 58 60 61 64 61 55 51 51 56 54 54 57 57 56 51 49 46 43 34
54 54 54 55 54 54 55 54 54 56 56 55 56 55 54 57 52 53 57 53 41 31 52 49 52 54 53 51 55 56 54 52 49 44 43 48 51 54 56 51 53 51 45 36 35 32 32
54 54 54 54 54 54 54 54 54 55 55 55 55 54 54 56 58 53 55 46 33 42 46 54 54 52 49 53 53 53 51 47 49 49 42 42 40 51 55 53 50 46 46 34 31 28 35
54 54 54 54 54 54 54 54 53 53 54 54 54 49 50 54 57 56 49 36 37 44 52 51 52 47 46 52 51 51 48 47 51 52 46 40 42 51 54 55 53 47 42 48 36 33 32
54 54 53 53 53 53 53 53 53 53 54 54 47 46 46 57 56 53 43 40 46 52 56 53 46 49 43 46 48 49 46 51 52 55 54 50 41 50 53 54 53 50 52 40 36 32 30
53 53 53 53 53 53 53 53 53 52 54 53 46 41 48 57 54 46 37 41 48 56 57 51 47 46 48 47 48 45 48 52 55 53 54 49 46 44 49 48 48 46 44 43 43 35 31
52 52 53 53 53 53 53 53 53 53 53 50 44 35 51 54 42 44 41 44 51 53 56 53 51 49 48 48 46 46 48 53 56 54 50 51 45 35 46 51 52 49 47 44 33 36 30
52 52 52 52 52 52 52 52 53 53 52 46 39 41 51 53 36 38 45 47 49 51 52 50 49 51 51 47 44 48 49 55 54 54 50 51 42 33 40 46 47 46 47 47 41 35 33
52 52 52 52 52 51 51 52 52 53 52 47 40 33 43 46 49 43 41 43 43 53 51 53 49 50 48 47 48 46 48 53 53 54 51 54 43 41 38 42 45 41 46 45 44 32 34
51 51 52 51 51 51 51 52 52 52 51 46 40 37 46 37 38 42 45 44 42 44 52 51 46 48 47 42 44 44 47 48 51 50 50 51 42 41 44 47 47 47 47 44 44 42 38
51 51 51 51 51 51 51 52 51 51 51 43 36 38 46 44 43 42 44 43 42 46 48 46 45 48 48 44 47 44 47 47 48 49 48 47 42 40 39 43 44 42 46 45 44 44 43
50 51 51 51 51 51 51 51 50 51 50 40 42 42 42 43 42 40 41 44 44 48 50 52 50 48 44 51 56 52 53 51 49 48 44 44 38 36 36 36 39 34 40 44 44 46 46
50 51 51 51 50 51 51 51 50 50 50 40 42 44 40 36 41 41 43 45 46 48 46 52 52 48 52 56 54 52 50 48 49 46 47 38 37 34 30 32 25 44 47 47 46 46 46
50 51 51 51 50 50 50 50 50 50 51 44 43 42 41 35 42 44 44 44 47 50 48 50 54 56 57 53 45 41 36 38 40 44 44 45 35 31 31 30 37 42 46 45 44 44 47
50 50 51 50 49 50 50 49 50 51 52 47 41 44 43 37 38 48 46 46 42 42 43 45 56 55 53 44 35 34 33 38 36 40 44 42 38 36 27 27 27 40 48 50 50 37 47
50 50 50 49 49 49 50 49 50 51 51 47 43 46 42 37 44 46 44 43 48 45 40 44 49 46 50 32 31 33 34 42 35 36 34 32 30 30 22 25 33 44 49 50 37 40 47
50 49 49 48 48 49 49 50 50 50 51 46 44 46 42 41 43 48 47 46 48 48 41 44 46 43 35 37 34 34 30 36 35 39 38 37 32 27 27 24 30 48 47 42 45 43 46
48 48 48 48 48 49 49 49 50 50 50 48 40 46 47 42 44 49 49 50 49 53 51 46 46 45 45 40 35 34 31 28 35 33 41 38 40 35 38 37 46 47 46 50 48 47 47

GFSGBSN_sfc_temp_033.txt.gz
Temp
61 61 60 61 61 61 61 61 60 59 59 59 59 59 60 61 61 60 59 58 58 58 58 58 59 59 57 59 62 67 66 66 67 69 69 68 66 64 61 62 63 60 64 65 65 64 63
60 60 59 60 60 61 61 60 59 59 58 58 58 58 59 60 60 60 59 58 57 57 57 58 58 58 56 55 71 68 66 66 69 69 68 70 69 69 64 63 62 64 64 63 62 64 64
59 60 59 59 59 59 60 60 59 59 58 58 58 58 58 59 59 59 59 58 57 57 57 58 58 56 53 60 69 68 69 69 68 70 68 70 72 68 67 63 67 65 61 62 63 63 62
59 59 59 59 59 59 59 59 59 59 58 58 58 57 57 57 57 58 58 57 57 57 57 58 57 54 53 69 68 68 68 70 70 70 71 73 73 68 66 67 64 61 60 56 61 61 61
58 58 59 58 58 58 58 58 58 59 59 58 57 57 57 57 57 57 57 57 57 57 57 57 52 52 56 69 66 71 71 70 69 70 71 74 71 64 65 60 58 57 54 55 58 64 62
58 58 58 59 58 58 58 58 58 58 59 58 57 57 57 56 56 56 55 56 56 56 56 57 57 52 61 65 70 70 70 72 70 68 68 67 62 61 59 59 50 52 53 56 56 62 62
58 58 58 58 58 58 58 59 58 57 57 58 58 57 56 56 56 56 55 54 53 51 52 55 57 56 61 68 70 70 69 70 71 67 59 61 58 54 58 57 59 58 55 54 59 63 60
57 57 58 58 58 58 58 58 58 57 57 57 57 57 56 56 56 55 54 51 55 56 48 57 57 58 63 67 61 66 72 65 63 58 59 57 53 59 59 58 58 57 55 55 58 59 59
56 56 57 57 57 57 58 57 56 57 57 57 57 57 56 55 55 54 52 54 60 60 47 54 58 58 61 65 59 62 69 64 60 56 55 53 59 59 58 57 55 56 55 54 55 57 57
56 56 56 56 57 57 57 57 57 56 57 56 56 56 55 55 52 53 51 59 59 59 42 49 53 59 61 64 59 68 70 67 61 57 55 57 60 58 58 57 58 54 59 56 54 54 50
55 55 55 55 56 55 55 56 56 56 57 56 56 56 55 54 51 50 57 59 57 56 31 55 54 68 62 61 64 62 69 67 58 57 58 56 56 56 56 57 59 57 59 57 57 53 52
55 55 55 55 55 55 55 55 55 55 54 56 55 56 55 53 53 54 57 59 56 41 31 51 57 54 55 59 62 63 65 68 65 59 58 58 62 61 61 61 60 61 57 54 52 51 44
54 54 55 55 54 54 55 54 54 54 54 55 55 56 55 56 51 57 59 54 40 32 52 50 52 54 54 54 56 59 57 55 55 49 49 55 57 61 62 59 60 59 53 46 44 42 42
54 54 54 54 54 54 54 54 54 54 54 54 55 54 54 55 58 55 56 45 32 42 47 55 55 53 51 55 55 56 54 52 55 55 48 49 46 57 60 60 57 55 54 45 36 37 44
54 54 54 54 54 54 54 54 54 53 53 53 54 50 49 52 56 55 49 36 39 45 51 51 55 49 49 53 55 54 52 54 56 56 51 45 48 58 59 61 61 54 50 54 42 39 40
54 54 54 54 54 54 53 53 53 53 53 53 47 46 46 53 55 50 43 40 44 53 55 54 47 51 45 49 50 52 49 54 55 57 60 53 47 54 57 61 58 57 58 47 45 37 35
53 53 53 53 53 53 53 53 53 53 53 53 45 39 50 54 53 45 36 41 47 54 56 52 49 48 49 48 50 48 50 55 57 55 59 54 53 50 55 54 54 52 51 49 50 45 40
53 53 53 53 53 53 53 53 53 53 53 49 43 34 49 53 38 42 40 45 49 52 56 54 53 51 49 50 48 48 49 55 57 57 54 56 50 43 51 56 59 56 54 52 44 41 40
52 51 52 52 52 53 53 53 52 53 52 45 37 40 48 50 33 37 44 45 49 49 51 51 50 52 54 50 46 49 51 56 54 56 54 54 48 42 47 52 55 53 53 51 47 44 40
51 51 50 51 52 53 52 52 52 52 53 46 39 32 40 42 47 42 41 41 43 51 51 53 51 53 52 49 51 49 50 54 54 57 51 57 48 47 43 49 52 47 50 51 51 42 44
51 51 51 51 51 51 52 51 51 52 52 45 39 37 41 33 36 41 44 43 41 42 50 53 49 50 48 44 47 46 51 52 54 51 54 56 47 47 49 51 52 52 51 49 49 50 46
50 51 51 50 50 51 51 51 51 51 52 42 36 37 41 41 42 39 41 41 42 45 48 46 48 50 50 46 50 47 51 50 51 51 51 52 47 46 46 48 49 48 51 50 50 49 49
50 50 50 51 51 52 51 51 50 51 50 41 42 43 42 42 41 37 37 42 44 48 49 53 51 48 47 51 55 54 56 56 55 53 48 48 43 42 41 43 46 39 45 49 50 52 53
50 50 50 51 51 52 51 50 50 50 50 45 43 42 38 35 40 39 42 44 45 47 45 51 53 48 52 57 56 55 52 50 51 49 52 43 43 41 37 37 33 52 53 54 53 53 54
49 49 50 51 51 51 50 50 50 50 51 46 44 43 40 35 42 41 43 42 46 50 47 50 52 55 57 54 46 44 41 43 44 46 48 49 42 37 36 38 43 49 51 51 50 55 55
49 50 50 50 50 51 50 49 50 50 51 46 43 45 43 39 38 47 44 45 41 42 44 47 54 55 53 44 39 37 36 41 40 43 47 43 44 44 34 35 34 48 55 55 57 46 55
49 50 50 50 50 50 49 49 50 51 50 47 41 46 43 37 42 44 43 42 48 46 43 45 48 47 52 37 35 35 37 46 39 37 37 38 37 38 33 37 41 51 54 56 44 50 54
49 49 50 50 50 50 49 49 50 50 51 48 42 46 42 38 42 45 46 45 48 48 40 44 45 46 40 37 37 38 35 41 41 43 41 41 38 35 35 35 37 52 52 48 55 53 53
49 49 50 50 50 49 49 49 50 49 50 50 41 46 46 41 41 46 48 50 50 56 50 48 47 47 46 42 39 37 35 35 40 39 44 41 45 42 45 46 53 53 56 56 55 55 52

GFSGBSN_sfc_temp_036.txt.gz
Temp
60 61 60 60 60 60 61 60 60 59 59 59 59 59 59 60 60 60 59 59 59 59 59 59 59 59 66 69 74 79 67 68 78 79 79 77 75 74 70 72 72 69 73 74 74 72 72
59 60 59 60 60 60 60 60 60 59 59 59 58 58 58 59 59 59 59 59 58 58 58 58 59 58 65 63 80 79 79 77 81 81 79 79 77 77 73 71 70 73 72 71 72 71 71
59 59 59 58 59 59 59 59 59 59 58 59 58 58 58 58 58 58 58 58 58 57 58 58 59 64 61 67 82 81 79 81 81 82 78 80 80 76 75 71 75 73 68 73 72 70 69
58 59 59 58 58 57 58 59 59 59 59 59 59 58 57 57 57 57 57 57 57 57 58 58 58 62 62 77 83 77 81 79 81 82 79 81 81 77 74 76 74 69 70 59 67 70 71
59 59 58 58 58 58 57 58 58 58 59 59 58 58 57 56 56 56 56 57 57 57 58 58 60 60 65 70 72 81 82 78 79 79 80 80 78 74 74 70 67 68 62 61 63 72 69
59 59 59 58 58 58 58 57 57 58 58 58 58 59 57 56 56 56 56 56 59 57 61 64 64 57 68 71 77 77 83 81 77 77 74 73 74 70 71 68 58 60 62 65 63 69 69
58 59 59 59 58 58 58 59 58 57 58 58 59 59 58 56 56 56 60 68 64 60 60 65 66 65 70 77 78 77 79 77 78 75 68 71 67 63 68 70 68 67 64 63 68 71 68
57 57 58 58 58 58 58 58 57 57 57 58 58 58 58 57 56 56 62 61 62 62 57 69 67 69 72 74 68 75 80 72 70 66 70 65 62 70 70 69 66 65 63 63 67 67 67
56 56 57 57 57 57 58 58 57 57 55 57 57 57 57 56 56 56 63 63 69 68 57 64 68 67 69 71 67 73 75 74 69 67 66 64 66 69 67 66 64 65 63 63 62 66 67
56 55 56 56 57 57 57 57 57 56 56 55 56 56 56 55 53 63 61 67 69 66 51 59 60 66 68 72 64 79 78 75 70 66 67 66 70 66 66 65 66 60 68 64 63 61 57
55 55 55 56 56 56 56 56 56 56 56 56 55 56 56 54 53 58 64 67 65 61 38 62 61 74 70 68 70 70 79 75 67 66 66 63 65 64 63 66 69 64 67 65 64 62 59
55 55 55 55 55 55 55 55 55 55 56 56 55 56 55 56 58 62 66 65 62 48 38 56 63 59 59 64 68 72 71 76 77 69 68 68 71 70 69 69 70 69 66 64 63 62 51
54 54 55 55 55 55 55 54 55 55 55 55 54 54 55 59 55 66 64 60 46 40 58 56 57 60 61 60 63 66 65 63 62 56 57 64 66 70 70 65 67 67 63 52 50 49 48
54 54 54 55 54 54 54 54 54 54 54 54 54 53 54 57 62 60 56 47 39 52 54 61 60 60 56 62 63 64 63 61 68 67 62 56 52 65 70 67 64 64 64 53 41 43 53
54 54 54 54 54 54 54 54 54 54 54 54 54 49 53 54 59 55 47 36 45 54 60 59 60 54 55 60 62 62 61 61 66 68 58 56 57 66 67 70 70 61 57 65 52 50 50
54 54 54 54 54 54 54 54 54 54 54 53 51 46 48 59 58 48 40 41 52 62 62 61 53 59 53 56 56 59 58 65 65 70 73 63 54 63 64 68 66 65 68 54 57 43 41
54 54 54 54 54 54 54 54 53 53 53 53 48 39 49 59 56 41 34 45 53 64 63 59 57 57 58 56 59 58 57 61 68 67 72 68 62 56 62 60 62 60 59 59 60 55 46
52 52 54 54 54 54 53 54 53 53 53 51 45 34 53 55 38 39 38 50 55 58 63 60 61 60 58 58 57 58 57 61 69 71 61 68 62 53 59 65 67 68 64 63 52 50 52
52 52 53 53 53 53 53 53 53 52 52 49 39 40 51 51 33 36 47 49 55 54 57 58 57 60 61 57 53 58 59 65 67 67 65 65 58 50 54 58 63 61 64 65 61 56 52
52 52 52 52 52 53 53 53 52 52 52 52 39 33 40 42 51 46 46 46 45 56 57 61 59 61 58 56 57 55 56 58 63 68 56 62 62 56 49 56 63 56 61 63 61 52 53
50 51 51 52 52 51 52 52 52 52 51 48 39 38 41 32 39 47 50 50 43 44 56 59 55 57 56 51 54 53 55 56 58 54 64 64 56 60 62 64 64 62 62 62 59 60 54
50 50 50 51 52 52 51 51 52 51 51 43 37 42 46 47 44 45 46 48 47 47 53 51 52 56 58 53 56 51 54 56 57 58 61 64 56 59 55 62 60 58 62 64 62 63 62
50 50 50 50 51 51 51 51 51 51 50 41 48 55 50 44 43 43 42 48 49 52 54 58 57 55 52 54 58 58 57 57 59 59 58 57 56 52 49 54 54 46 56 61 62 65 63
49 50 50 50 51 51 51 50 51 50 50 47 51 53 45 42 43 44 45 49 50 51 50 56 58 55 59 61 61 61 58 58 59 61 63 55 54 54 48 42 36 60 66 67 63 66 68
48 50 50 50 50 51 51 50 50 50 50 50 53 51 48 38 47 46 46 47 50 53 52 55 59 63 63 56 49 46 47 49 51 57 57 60 55 48 42 45 55 56 59 60 59 62 70
49 49 50 50 50 50 50 50 50 50 50 50 50 57 51 45 45 52 46 47 44 47 50 53 63 63 58 50 47 40 40 47 47 50 53 54 54 51 43 43 38 59 68 69 67 55 72
48 48 49 49 48 49 48 49 49 50 50 50 51 56 50 45 53 54 47 42 50 50 49 53 54 53 58 45 40 43 42 52 46 43 40 44 46 43 46 44 54 64 65 67 51 57 70
49 49 48 48 49 50 50 50 49 50 50 51 48 53 52 47 48 50 51 47 48 52 48 54 51 51 48 42 43 46 42 47 49 54 47 47 45 42 48 41 41 64 61 58 67 67 69
48 49 49 49 49 50 50 49 49 49 49 52 44 53 56 50 47 51 51 52 47 59 58 56 55 54 54 48 49 51 42 40 48 44 54 46 53 51 53 56 67 65 69 70 70 71 66

GFSGBSN_sfc_temp_039.txt.gz
Temp
60 60 60 60 60 60 61 61 60 59 59 60 59 59 59 60 60 60 59 59 59 59 59 60 60 60 67 72 78 84 68 69 80 83 83 82 79 79 75 77 78 74 77 79 80 78 78
59 59 59 60 59 59 60 60 60 59 59 59 59 59 58 59 59 59 59 58 58 59 59 59 60 58 69 65 88 87 85 82 86 85 84 85 82 83 78 77 75 77 77 77 78 77 77
59 59 59 59 59 59 58 58 59 59 59 59 59 59 59 58 58 58 58 58 58 58 58 59 59 67 66 71 88 89 86 86 89 88 83 87 86 81 81 76 81 78 72 76 77 77 76
59 59 59 59 58 58 58 58 58 59 59 58 59 59 58 58 57 57 57 57 57 58 58 58 59 68 63 86 90 86 88 86 88 89 86 88 87 81 79 82 78 74 74 65 72 76 77
59 59 59 59 58 58 57 58 57 58 59 58 58 58 58 58 56 56 56 56 57 58 58 58 61 62 65 74 78 86 89 83 85 86 86 86 83 78 80 72 69 72 63 65 66 76 76
59 59 59 59 58 58 58 58 58 57 57 58 58 58 58 58 57 56 56 56 61 58 62 70 71 62 71 74 83 86 88 86 82 81 78 77 77 72 74 71 59 63 65 67 57 72 74
59 59 59 59 58 58 59 59 58 57 57 57 58 58 58 58 57 56 59 73 67 65 67 67 71 71 76 82 83 82 87 81 82 78 69 75 69 65 70 73 74 71 68 66 67 75 71
57 57 58 58 58 58 58 58 58 57 57 57 56 58 58 58 57 56 61 67 71 68 60 73 74 74 80 80 73 80 86 74 72 68 73 71 64 72 76 74 71 70 67 67 71 74 71
56 56 57 57 58 58 58 58 57 57 57 56 55 57 57 57 56 58 63 70 77 73 60 68 75 74 75 79 71 76 80 77 72 68 70 66 71 76 71 70 67 68 66 67 66 71 74
56 56 56 56 57 57 57 57 57 57 56 56 55 55 56 56 53 67 65 75 76 71 54 63 67 71 76 77 68 83 83 78 74 67 71 70 76 70 69 68 70 62 73 69 67 65 59
55 55 55 56 56 55 55 56 56 56 56 56 55 55 55 54 59 61 70 74 73 67 39 67 70 79 76 69 76 75 85 79 69 69 72 67 69 68 66 69 73 66 72 69 69 66 64
55 55 55 55 55 55 55 55 55 55 56 56 55 55 54 57 61 61 64 67 67 50 39 61 68 63 63 67 72 79 76 80 80 72 73 71 79 75 72 75 73 75 69 69 69 65 53
54 55 55 55 55 55 55 55 54 55 55 55 55 55 54 60 57 67 59 55 47 42 63 60 61 65 63 62 65 71 67 65 63 58 60 67 69 75 75 68 72 70 64 52 51 50 49
54 54 54 55 54 54 54 54 54 54 54 55 54 54 56 56 66 62 50 44 40 54 56 66 65 64 58 64 63 66 65 62 69 68 63 58 55 69 74 70 67 66 65 53 33 45 52
54 54 54 54 54 54 54 54 54 54 54 54 54 58 57 56 61 62 42 34 45 56 65 62 63 58 58 63 63 64 63 63 68 70 59 59 60 75 74 75 73 65 60 70 56 58 53
54 54 54 54 54 54 54 54 54 54 53 54 53 52 54 59 59 51 38 37 51 62 67 66 56 61 57 60 60 62 62 69 67 72 73 67 58 69 71 74 73 69 72 57 59 44 42
53 54 54 54 54 54 54 54 54 53 53 54 49 42 58 57 55 42 32 43 53 64 67 62 59 59 61 60 62 61 62 69 72 71 73 69 63 63 67 63 64 64 62 64 63 58 46
53 53 53 54 54 54 54 54 53 53 53 50 44 36 55 58 37 39 35 49 54 60 65 64 64 63 61 63 60 61 61 67 74 73 64 68 64 56 60 71 74 70 65 65 53 52 56
52 52 53 53 53 53 53 53 53 53 53 47 39 41 56 55 32 38 46 47 55 57 60 60 59 63 64 62 56 62 65 72 71 70 66 68 61 51 56 63 69 64 67 68 66 63 53
51 52 52 51 51 52 53 53 53 53 53 47 40 33 41 43 49 46 45 46 46 59 60 62 61 63 62 58 64 59 61 69 70 70 60 64 63 57 51 58 65 59 64 67 64 54 54
51 51 51 52 52 52 53 53 53 52 52 47 40 41 42 33 39 47 50 49 47 49 59 63 58 59 59 54 57 57 62 64 63 60 65 66 56 61 63 66 67 65 64 65 62 63 55
51 51 51 51 51 52 52 52 53 52 52 44 35 48 47 47 44 46 46 47 49 53 56 54 55 59 59 54 57 49 58 59 58 63 62 66 56 60 57 65 65 62 66 67 66 66 65
50 50 50 50 51 51 52 52 52 51 51 42 43 58 52 47 43 44 46 48 50 55 59 62 60 60 57 58 54 60 62 60 60 58 60 60 56 54 49 61 60 51 61 64 66 69 67
50 50 51 50 50 51 51 52 52 51 51 44 46 55 46 41 41 46 49 52 51 54 54 60 62 59 65 69 66 62 60 61 57 58 62 56 56 56 48 48 39 59 71 71 66 69 72
50 50 51 51 50 50 51 51 51 50 51 45 54 53 47 40 47 48 50 51 54 56 54 57 62 67 70 63 53 49 48 51 53 55 55 60 55 49 44 47 55 61 67 66 64 64 73
50 50 51 50 50 50 50 51 51 50 51 47 55 59 51 47 45 53 50 53 49 51 53 52 65 67 65 55 49 42 40 49 47 48 54 55 58 51 49 43 39 58 70 75 74 56 74
50 49 50 50 49 49 49 50 51 50 50 48 48 57 54 48 54 53 49 49 56 53 49 54 54 58 62 49 41 44 44 56 44 42 38 43 45 44 46 46 54 68 74 77 53 57 75
49 49 49 49 48 49 49 50 50 48 49 49 48 59 55 50 54 52 57 53 55 56 47 53 52 54 47 45 46 49 46 52 49 55 48 40 44 43 48 45 41 71 70 61 68 74 75
49 47 49 49 48 49 49 50 50 50 49 51 45 59 59 51 46 57 58 60 62 62 59 58 54 55 56 51 53 53 48 46 50 42 60 45 50 50 56 56 67 70 70 75 78 76 76

GFSGBSN_sfc_temp_042.txt.gz
Temp
60 60 60 60 60 60 60 61 60 60 60 60 59 60 60 60 60 59 58 58 59 59 59 60 60 60 65 70 74 78 68 69 79 80 80 81 78 77 72 77 78 74 76 79 81 79 78
59 59 59 59 59 59 60 59 59 59 59 59 60 59 60 60 59 59 58 58 58 58 59 59 60 58 65 59 90 87 84 79 84 82 82 84 81 83 77 76 75 78 77 77 80 78 79
59 59 59 59 59 59 59 59 58 58 58 59 59 59 59 59 59 58 58 57 57 57 58 59 59 64 62 64 89 90 88 84 86 86 82 86 86 79 79 74 81 78 71 75 76 78 74
60 59 59 59 59 58 58 58 58 58 58 58 59 59 59 59 58 57 57 57 57 57 58 59 59 64 59 85 89 86 89 85 89 90 87 89 87 80 76 79 76 71 72 63 72 75 71
59 59 59 59 58 58 58 57 57 58 58 58 58 58 58 58 58 57 56 56 57 58 59 60 60 63 61 77 76 83 88 82 85 86 86 88 82 75 76 69 65 68 60 64 68 75 71
59 59 59 59 59 58 58 58 58 57 57 57 57 57 57 57 57 57 56 56 61 60 63 68 69 62 69 71 80 83 87 86 82 80 77 76 74 68 70 66 54 60 61 65 63 69 73
59 59 59 59 58 58 59 59 58 57 57 57 57 57 57 57 58 57 58 65 67 60 64 64 68 66 73 83 85 81 85 82 81 76 65 72 64 60 66 70 71 69 66 63 68 71 68
57 57 58 58 58 58 58 59 58 57 57 57 57 56 57 57 57 57 59 59 71 70 58 72 73 73 77 81 72 78 86 73 71 64 70 67 61 70 74 73 71 69 65 65 71 74 71
56 56 57 57 57 57 58 58 57 57 57 57 56 56 56 57 57 57 58 62 76 75 58 64 72 73 74 78 71 74 81 75 69 65 67 62 68 75 72 70 67 66 64 65 63 68 72
55 55 55 56 57 57 57 57 57 56 57 56 56 55 55 56 53 63 62 73 75 74 50 59 68 73 77 77 68 81 84 76 70 65 68 67 74 72 69 66 69 61 72 69 66 63 56
55 55 55 55 56 55 55 56 56 56 56 56 55 55 55 54 58 61 63 66 74 66 34 68 72 83 78 70 73 73 83 76 65 67 69 64 68 68 65 67 72 65 70 67 67 63 62
55 55 55 55 55 55 55 55 55 55 55 56 55 55 54 54 55 62 68 64 65 46 36 61 69 66 66 69 70 76 73 79 76 69 71 69 77 74 71 73 74 75 68 67 66 62 49
54 54 55 55 55 55 55 55 54 54 55 55 55 55 55 61 51 66 61 54 44 38 62 58 62 65 63 62 64 66 66 64 60 54 56 65 67 75 76 68 73 70 63 50 47 47 46
54 54 54 55 55 55 55 55 54 54 54 55 54 54 56 61 62 59 54 43 37 51 53 68 67 66 59 63 62 63 63 60 66 64 59 55 52 67 73 68 65 64 63 50 34 34 46
54 54 54 54 54 54 54 54 54 54 54 54 54 52 54 57 61 56 43 33 41 50 61 57 63 58 59 62 63 61 61 61 65 66 56 55 57 72 73 73 71 64 57 67 46 45 41
54 54 54 54 54 54 54 54 54 54 54 54 49 47 49 57 59 51 38 34 46 58 61 63 53 59 54 59 58 59 59 66 64 69 70 63 54 68 71 73 72 67 71 55 56 40 38
52 53 53 53 53 54 54 54 54 54 54 53 46 40 53 57 54 41 32 39 48 57 61 56 54 55 59 59 60 58 59 66 69 69 71 67 60 58 68 64 62 63 60 61 61 56 43
52 52 52 52 53 53 54 54 54 54 53 51 44 34 53 56 37 38 36 44 51 54 59 59 60 58 58 60 59 57 59 65 72 71 64 68 61 52 58 70 71 68 63 62 50 50 53
51 52 52 52 53 53 53 54 54 53 53 47 39 39 51 53 31 32 41 45 50 51 54 55 56 61 62 58 53 59 62 69 72 70 65 67 57 46 53 62 68 62 65 66 64 60 51
51 51 52 52 52 52 53 53 53 53 53 48 39 33 40 43 49 41 39 42 44 53 53 57 59 62 58 55 58 53 59 66 70 71 57 62 61 54 46 54 62 58 63 64 61 49 49
51 51 51 51 51 52 52 53 53 53 52 47 40 36 44 33 36 44 45 47 44 45 52 56 54 57 56 51 54 51 54 59 64 62 66 64 54 58 61 64 64 62 62 63 60 60 53
51 51 51 51 52 52 52 51 52 52 52 45 34 41 48 47 44 42 43 43 45 50 51 48 50 55 59 54 55 48 50 55 54 63 62 63 53 57 54 62 63 58 64 65 64 64 64
51 50 50 51 51 51 52 52 51 51 51 44 43 49 48 43 43 39 41 45 47 52 55 57 56 55 54 60 64 57 54 52 48 46 58 58 54 52 46 57 56 47 58 63 64 68 66
50 50 50 50 51 51 51 51 51 51 50 44 42 49 40 38 43 42 46 48 48 52 50 57 59 56 63 63 59 56 52 52 48 48 60 56 55 53 44 44 37 57 69 68 64 67 69
50 50 50 50 50 50 50 51 51 52 52 46 45 47 43 36 47 46 46 48 51 54 52 54 60 64 69 57 52 44 40 39 44 52 53 56 50 42 41 43 52 58 64 62 60 60 70
49 50 50 50 50 50 50 50 50 51 52 48 45 49 46 41 43 52 48 50 45 48 50 54 63 67 64 55 39 36 32 41 40 47 56 52 52 42 43 39 36 53 65 72 70 52 71
50 50 50 50 50 50 50 50 50 51 52 49 45 50 47 42 52 52 47 47 54 51 49 53 56 55 61 47 40 37 39 52 42 41 40 41 41 37 41 40 49 63 68 71 49 53 72
49 49 49 49 50 50 50 50 50 50 51 48 45 50 47 43 51 50 53 51 52 54 47 54 51 52 48 38 41 43 40 47 48 54 47 40 36 38 42 39 37 66 65 57 64 68 72
48 48 49 48 49 49 49 49 50 50 50 49 43 52 56 47 46 56 57 54 49 52 57 57 54 54 53 46 41 48 42 45 48 41 59 42 48 43 46 46 52 56 64 69 71 69 72

GFSGBSN_sfc_temp_048.txt.gz
Temp
60 60 60 60 59 60 60 60 59 59 58 58 59 59 60 61 60 59 58 58 58 58 58 58 59 59 56 53 57 72 68 68 69 70 68 67 62 60 57 60 61 59 63 67 68 63 58
59 59 59 59 59 59 59 59 59 58 58 58 58 58 59 59 60 59 58 57 57 57 57 58 59 59 52 46 71 75 70 68 70 67 67 67 66 67 63 62 58 63 64 64 68 64 63
59 59 59 59 59 58 58 58 58 58 58 58 58 57 58 58 58 59 58 57 57 57 57 58 59 58 52 51 67 68 72 68 69 70 67 70 69 64 65 61 65 65 58 62 64 63 60
59 59 59 59 58 58 58 58 58 58 58 58 58 57 57 57 57 57 57 57 57 57 58 58 58 56 48 67 64 65 66 66 71 73 72 73 72 68 63 64 63 58 55 49 61 62 61
59 59 59 59 58 58 58 58 57 57 58 57 57 57 56 56 56 56 56 56 57 58 58 58 54 50 46 67 64 69 70 68 72 73 72 79 70 63 61 53 48 49 45 49 55 63 61
59 58 58 58 58 58 58 58 57 57 57 57 57 57 56 56 55 55 55 56 58 57 57 61 59 48 56 60 69 72 69 72 69 68 67 65 59 54 51 47 39 44 46 42 49 58 58
58 58 58 58 58 58 58 58 58 57 57 57 57 57 56 56 55 55 53 52 50 49 52 52 53 53 61 69 73 69 71 69 68 63 54 59 51 46 49 52 55 54 51 50 55 62 57
57 57 57 57 57 57 58 58 57 57 57 57 56 56 56 56 55 55 52 45 50 50 41 57 59 60 64 67 60 66 71 62 60 53 57 53 48 57 58 57 55 54 52 52 57 62 59
56 56 56 57 57 57 57 57 57 56 56 56 56 56 56 55 55 51 48 51 60 57 42 52 60 60 61 64 57 60 66 62 57 53 53 51 55 62 59 56 54 55 52 53 54 58 56
55 55 55 55 56 56 56 56 56 56 56 55 55 55 55 54 49 49 48 57 57 58 37 46 54 59 63 64 55 69 69 64 58 54 55 53 61 59 56 55 57 50 60 59 57 50 43
54 55 55 55 55 55 55 55 55 55 55 55 55 55 55 55 46 45 54 57 59 51 23 54 58 69 64 59 61 61 70 62 55 56 55 51 54 55 54 56 60 55 60 59 57 50 45
54 54 54 54 54 54 54 54 54 54 55 55 55 55 54 50 46 49 55 56 51 37 25 47 61 57 55 58 60 63 61 65 63 56 57 55 61 58 57 63 62 64 58 55 52 47 37
53 53 53 54 53 54 54 54 54 54 54 55 55 54 53 54 43 50 53 48 34 25 50 48 54 58 55 52 55 57 54 52 49 43 45 54 56 61 62 56 60 58 49 39 36 34 33
53 53 53 53 53 53 54 54 53 54 54 54 54 53 53 53 50 50 48 40 28 40 42 54 54 54 50 54 54 54 51 46 52 50 46 43 39 55 61 58 54 53 50 37 30 30 37
53 53 53 53 53 53 53 53 54 53 54 54 54 49 48 49 50 49 40 31 33 40 49 47 51 46 46 53 53 52 48 49 52 54 44 42 44 59 61 63 60 53 46 54 40 39 33
52 52 52 52 52 52 53 53 53 53 53 54 47 46 46 49 49 46 35 33 39 48 50 49 40 46 41 44 47 47 47 54 54 57 58 51 42 56 61 61 61 58 58 45 41 32 30
52 52 52 52 52 52 52 53 53 53 53 53 46 40 49 50 49 38 29 34 41 48 49 44 43 43 44 44 47 46 48 55 56 57 58 55 48 49 55 52 53 52 50 50 48 41 32
51 51 51 51 52 52 52 52 52 53 53 50 44 35 47 52 35 36 31 39 45 44 48 45 46 45 43 45 44 45 46 52 57 56 51 56 49 43 49 58 60 57 53 52 40 39 39
50 51 51 51 52 52 52 52 52 52 53 47 40 39 47 47 30 31 38 38 42 41 43 44 43 46 47 43 38 45 48 57 55 55 46 51 46 35 42 51 57 52 54 54 50 44 37
50 50 51 51 51 51 51 52 52 52 53 47 36 32 39 40 40 36 35 35 36 44 41 43 41 44 42 40 45 41 44 53 55 55 50 52 48 44 39 45 51 48 53 55 52 35 38
50 50 50 50 51 51 51 51 51 52 52 47 36 34 39 32 33 36 39 39 35 35 44 45 41 41 39 34 38 40 45 49 54 51 52 49 39 46 50 54 55 54 56 54 50 48 42
50 50 50 50 50 50 51 51 51 51 51 44 33 35 40 36 40 36 37 35 36 38 40 38 37 42 43 37 39 36 42 44 45 50 48 47 38 41 43 52 53 51 53 55 55 53 51
49 50 50 50 50 50 51 51 51 51 50 43 44 42 43 39 37 34 34 35 38 41 43 45 43 41 40 43 47 47 48 48 48 48 44 44 39 36 34 46 47 39 50 53 52 54 54
49 49 50 50 50 50 51 51 51 51 50 46 45 43 37 33 36 35 39 40 39 41 38 45 46 42 47 54 49 46 45 45 44 45 49 40 38 37 31 37 33 49 58 58 54 56 56
49 49 50 50 50 50 50 51 51 50 51 46 46 43 38 33 37 38 39 40 41 43 41 42 46 50 52 47 39 36 30 35 39 44 44 46 38 32 30 32 42 47 53 52 51 53 58
49 49 50 50 50 50 50 50 50 50 50 46 45 45 42 36 35 43 39 41 36 36 37 41 50 50 46 41 35 28 27 34 34 38 45 42 41 36 32 29 27 43 54 60 57 41 57
49 49 50 50 49 49 50 50 50 50 51 47 43 46 41 34 39 44 39 38 43 39 36 39 43 43 47 32 29 26 28 39 31 31 34 32 32 31 31 30 36 48 52 57 43 43 51
48 49 49 49 49 49 49 49 50 50 50 47 43 45 41 33 38 47 48 41 43 43 36 40 40 39 35 31 30 29 25 34 33 38 35 33 31 30 32 31 31 51 52 45 47 48 52
49 49 49 49 49 49 49 49 49 50 50 50 42 45 46 39 38 47 50 50 53 52 46 43 41 42 43 36 32 32 29 27 32 29 44 35 39 34 38 38 50 52 52 54 53 50 53

GFSGBSN_sfc_temp_051.txt.gz
Temp
60 60 59 59 59 59 59 59 59 58 58 58 58 58 58 59 59 59 59 58 58 58 58 58 59 59 55 50 54 67 68 67 67 68 66 64 61 59 56 57 57 56 59 62 63 62 58
59 59 59 59 59 59 59 59 58 58 58 58 58 58 58 58 58 58 58 57 57 57 58 58 58 58 53 44 67 69 67 65 67 64 64 65 63 64 59 58 57 60 60 61 61 59 60
59 59 59 58 58 58 58 58 58 57 57 57 57 57 57 57 57 57 57 57 57 57 57 58 58 56 51 49 63 63 65 64 65 66 63 65 66 61 60 58 63 61 55 58 60 59 57
58 59 59 58 58 58 58 57 57 58 57 57 57 57 56 56 56 56 56 56 56 57 57 58 58 55 47 64 60 62 61 63 67 67 68 68 68 63 60 62 60 55 51 46 56 59 60
59 58 58 58 58 58 57 57 57 57 58 57 57 57 56 56 55 55 55 55 56 57 58 58 52 51 46 65 60 65 65 63 68 67 67 74 66 60 58 51 47 47 42 46 53 58 55
58 58 58 58 58 57 58 58 57 57 57 57 57 56 56 56 55 55 55 55 57 55 56 58 58 48 54 58 66 69 65 67 65 65 62 61 57 52 48 47 38 41 43 39 45 54 53
57 57 58 58 57 57 58 58 57 57 56 56 56 56 56 56 55 55 53 51 46 46 49 49 52 52 58 66 70 65 68 65 65 60 51 56 49 45 49 51 51 49 47 45 49 57 53
56 56 57 57 57 57 57 57 57 56 56 56 56 56 56 56 55 55 50 45 48 50 41 53 53 55 61 63 55 62 67 59 56 49 54 50 47 55 56 54 51 50 46 47 53 58 54
55 56 56 56 56 56 56 57 56 56 56 55 55 56 55 55 54 50 46 49 59 56 42 48 54 54 59 60 54 57 62 59 54 50 50 47 52 59 55 52 50 49 46 48 49 55 53
55 55 55 56 56 55 56 56 56 55 55 55 55 55 54 54 48 47 45 53 57 56 34 43 49 55 60 60 51 65 66 61 55 52 51 50 58 55 52 52 52 45 54 54 52 47 42
54 54 54 55 54 54 54 54 54 55 55 55 54 54 54 54 45 44 53 54 56 50 23 52 54 64 61 54 57 58 67 60 52 53 52 48 51 51 51 53 55 50 56 53 52 47 44
54 54 54 54 54 54 53 53 54 54 54 54 54 54 54 49 47 47 51 52 49 35 24 44 56 53 51 53 55 60 58 63 60 53 53 54 57 56 54 58 57 60 54 51 48 44 35
53 53 53 53 53 53 53 53 53 53 54 54 54 54 53 51 42 47 49 45 36 26 46 45 49 53 52 49 52 55 51 51 48 42 42 50 52 55 58 51 54 53 45 35 34 32 33
53 53 53 53 53 53 53 53 53 53 53 54 54 53 52 51 49 49 44 38 29 38 40 51 50 51 49 52 52 53 49 44 50 49 42 42 38 52 57 54 50 49 47 35 28 28 36
53 52 52 53 53 53 53 53 53 53 53 53 53 49 48 46 48 47 37 28 33 38 46 44 48 44 45 50 51 50 48 46 51 51 43 39 42 55 57 58 56 49 43 51 38 36 32
52 52 53 52 52 52 52 52 53 53 53 53 47 46 47 47 48 44 34 31 38 46 45 45 38 44 39 43 46 45 46 51 51 54 55 47 40 53 56 57 56 54 54 42 38 31 29
52 52 52 52 52 51 52 52 52 52 53 53 45 40 48 49 49 38 28 32 39 47 46 40 39 39 40 40 44 44 45 51 55 54 55 52 45 45 52 48 48 48 45 46 45 38 32
51 51 51 51 51 51 52 52 52 52 52 49 43 34 47 51 35 36 31 37 44 43 47 44 43 42 41 41 40 43 44 49 55 53 47 51 45 40 47 55 56 52 49 48 39 37 36
50 50 50 51 51 51 51 51 52 52 52 46 39 37 46 47 30 31 37 37 40 41 41 42 41 41 44 40 37 41 44 52 55 53 48 49 41 34 42 47 51 47 51 51 47 42 38
50 50 50 50 50 51 51 51 51 51 52 46 35 31 38 40 38 36 33 34 34 42 40 42 40 42 40 38 42 39 42 50 53 53 50 51 44 38 33 40 47 43 50 51 50 37 38
49 49 50 50 50 50 51 51 51 51 51 45 36 33 38 31 33 37 38 38 34 35 42 42 38 38 37 32 35 35 44 46 51 51 50 48 37 41 41 45 48 49 50 50 48 47 42
49 49 49 49 50 50 51 51 51 50 50 43 32 35 39 35 39 36 37 34 36 38 40 37 35 39 39 35 37 34 39 40 42 47 44 46 38 38 38 45 47 45 50 52 53 49 48
49 49 49 49 50 50 50 50 50 49 48 41 42 42 41 37 35 33 34 36 36 41 42 43 40 38 36 40 43 45 44 44 44 44 43 41 37 33 31 39 38 36 45 50 51 53 52
50 49 49 49 49 50 50 50 50 49 49 44 43 42 36 32 34 35 39 39 38 40 37 42 43 38 44 49 47 45 44 44 43 43 45 39 38 35 30 33 28 42 50 54 52 54 55
49 49 49 49 49 50 50 50 50 50 49 45 45 42 38 32 37 38 39 38 40 42 40 41 43 48 50 44 36 33 29 33 37 42 42 43 36 31 26 30 37 43 50 46 42 44 55
49 49 49 49 49 49 49 49 50 50 50 47 45 47 42 35 34 42 39 40 34 35 36 39 47 49 45 38 34 28 25 32 31 36 43 40 39 31 31 28 25 40 53 56 54 40 51
48 49 49 49 49 49 49 49 50 50 50 47 45 48 42 36 42 43 38 36 41 37 33 37 40 40 43 30 28 26 27 37 30 30 31 31 33 31 29 29 33 44 51 52 38 38 51
48 48 49 49 49 49 49 49 49 50 50 46 44 46 41 35 39 45 46 41 41 41 33 38 39 38 33 29 28 29 23 31 33 36 33 32 31 30 33 29 26 50 47 40 45 48 50
48 49 49 49 49 49 49 49 49 50 50 49 41 46 46 39 39 45 44 49 51 51 45 43 42 40 40 33 30 30 25 24 31 27 40 31 35 31 35 35 47 48 49 51 51 50 52

GFSGBSN_sfc_temp_054.txt.gz
Temp
59 59 59 59 59 59 59 59 58 58 57 58 58 58 58 59 59 58 57 57 57 58 58 58 59 59 55 48 53 66 68 66 64 66 64 62 58 57 53 54 56 52 56 59 61 60 56
59 59 59 59 58 58 59 58 58 57 57 57 57 57 57 58 58 58 57 57 57 57 57 58 58 58 49 43 66 65 63 63 64 62 63 63 61 61 57 56 54 58 58 58 58 57 58
59 59 59 58 58 58 58 57 57 57 57 57 57 57 57 57 57 57 57 56 56 56 57 57 58 56 48 48 63 62 63 61 62 63 62 64 64 59 57 54 60 58 52 55 57 55 55
58 58 59 58 57 57 57 57 57 57 57 57 57 57 56 56 56 56 56 56 56 56 57 57 58 54 45 64 59 61 59 61 64 64 64 65 64 60 57 59 57 51 49 44 54 54 55
58 58 58 58 57 57 57 57 57 57 57 57 57 56 56 56 55 55 55 55 55 57 57 57 52 51 44 65 58 63 63 61 64 64 63 72 63 57 55 49 45 45 39 43 50 56 52
57 57 58 57 58 57 57 57 57 57 56 56 56 56 56 56 55 55 54 55 56 56 56 56 57 46 53 58 64 66 62 64 62 61 59 57 54 48 46 45 37 40 40 38 43 48 50
57 57 57 57 57 57 57 57 57 56 56 56 56 56 56 55 55 55 52 48 46 44 46 47 48 49 57 64 68 62 64 61 59 57 49 52 46 44 48 51 50 48 45 43 46 52 50
56 56 56 57 56 57 57 57 56 55 55 56 55 55 55 55 55 54 48 44 49 49 39 51 50 50 56 59 50 61 65 56 53 48 52 48 46 52 56 52 50 48 44 43 49 54 52
56 56 56 56 56 56 56 56 55 55 55 55 55 55 55 54 54 49 45 46 57 54 40 46 51 51 55 57 51 55 60 57 52 48 50 47 49 57 55 49 48 45 43 44 46 49 50
55 54 55 55 56 55 55 55 55 54 55 54 54 54 54 54 47 45 44 54 55 54 35 41 45 51 58 55 48 64 64 60 52 49 48 48 55 52 49 49 50 42 50 50 48 44 38
54 54 54 54 54 55 54 54 54 54 54 54 54 54 53 54 44 42 48 52 55 50 21 50 51 63 59 53 55 57 64 57 50 50 50 46 49 49 47 49 52 48 53 50 48 43 39
53 53 54 54 54 53 53 53 53 53 53 53 53 53 53 49 47 47 49 48 49 35 25 43 52 50 49 53 53 57 55 59 58 52 49 51 54 53 54 55 55 55 50 48 45 41 32
53 53 53 53 53 53 53 53 53 53 53 53 53 53 51 51 46 46 46 43 33 26 44 41 45 50 49 48 49 51 48 48 44 40 40 48 50 54 56 50 51 50 43 34 32 30 31
53 53 53 53 53 53 53 53 52 52 52 53 53 52 50 50 48 48 43 35 25 36 37 47 46 47 44 48 49 50 45 41 49 47 42 40 37 51 55 52 47 45 44 33 28 28 34
52 52 52 52 52 52 52 52 52 52 52 52 52 44 45 46 50 47 39 26 30 36 42 39 43 41 42 47 47 48 46 43 48 50 44 40 41 54 55 57 56 46 41 48 36 34 31
52 52 52 52 52 52 52 52 52 52 52 52 41 42 43 49 52 45 34 29 35 45 43 41 35 40 37 41 42 43 44 49 49 53 53 48 40 51 53 55 52 51 52 39 36 30 28
51 52 52 52 51 51 51 52 52 52 52 52 40 38 48 51 48 39 29 31 36 44 45 39 37 36 38 38 41 41 43 48 49 52 52 47 43 44 50 46 45 46 43 43 43 36 31
50 51 51 51 51 51 51 51 51 52 51 48 41 32 46 49 35 34 31 36 43 41 45 43 41 39 38 40 38 41 41 45 50 50 45 49 44 37 45 52 53 50 46 45 35 36 34
50 50 50 50 51 51 51 51 51 51 51 44 37 37 46 47 30 31 36 36 39 38 40 40 38 39 41 37 35 41 43 49 50 50 46 48 39 32 38 45 48 44 47 48 44 39 34
50 50 50 50 50 50 50 50 50 51 51 45 36 30 38 40 39 36 33 33 33 40 39 40 39 40 38 36 39 36 40 47 49 50 49 49 42 38 31 36 41 38 45 47 46 35 35
49 49 50 50 50 50 50 50 50 51 51 44 37 32 37 30 32 36 37 37 33 34 39 40 36 37 35 31 33 34 41 42 46 50 48 46 37 40 42 42 43 41 43 45 43 43 39
49 49 49 49 50 50 50 50 50 50 50 41 32 34 39 36 39 35 35 33 35 36 40 34 33 37 37 32 35 34 38 38 39 45 44 44 36 36 37 44 42 39 43 45 46 46 45
48 48 48 49 49 50 50 50 50 50 49 40 40 41 39 37 35 33 33 35 35 40 40 42 39 36 34 38 41 42 43 42 42 39 39 40 36 33 31 37 39 33 38 41 43 48 48
48 48 49 50 50 50 49 49 50 50 49 43 42 41 35 31 34 34 38 39 38 39 37 42 43 37 41 46 45 42 39 40 40 40 42 38 37 33 30 31 25 41 48 47 43 46 49
48 49 49 50 50 50 49 49 49 50 50 43 43 41 37 31 36 36 38 37 40 42 39 41 44 47 48 42 36 32 29 33 35 40 40 42 37 28 25 26 35 40 47 43 43 43 52
48 49 49 49 49 49 49 49 49 50 50 45 43 45 41 34 33 40 36 38 33 34 36 39 47 46 44 37 32 27 25 31 30 37 40 38 39 33 30 23 22 35 48 51 51 36 48
48 48 49 49 49 49 49 49 49 49 50 46 43 46 41 35 40 41 36 35 41 38 34 37 41 38 41 33 30 28 28 35 28 32 31 31 33 32 30 28 30 42 48 51 34 37 48
48 48 48 48 48 48 49 49 49 49 49 46 43 46 42 34 39 44 45 39 40 41 33 38 38 35 31 29 28 28 23 31 30 34 32 30 29 26 32 29 23 46 46 41 45 47 47
48 48 48 48 48 48 49 49 49 49 49 48 41 46 47 39 39 45 48 50 50 49 45 43 39 36 36 30 28 29 25 24 30 25 36 30 34 30 33 33 43 45 46 51 50 49 51

GFSGBSN_sfc_temp_057.txt.gz
Temp
59 59 59 59 59 59 59 59 59 58 57 57 57 58 58 58 58 58 57 57 57 57 58 58 59 59 55 50 55 68 66 67 67 68 68 67 65 63 61 62 62 59 64 64 67 65 64
59 59 59 59 58 58 59 58 58 57 57 57 57 57 57 57 58 57 57 57 56 57 57 58 58 58 52 44 69 67 65 66 67 67 67 68 67 68 64 63 63 64 64 66 66 66 65
59 58 58 58 58 58 58 57 57 57 57 57 57 57 57 57 57 57 57 56 56 56 57 57 58 57 48 48 66 66 64 66 68 67 66 68 70 67 66 61 66 65 60 62 64 65 63
58 58 58 57 57 57 58 57 57 57 57 57 57 57 56 56 56 56 56 55 55 56 57 57 58 55 45 63 64 61 63 63 67 68 66 71 70 67 65 66 62 61 58 54 62 61 59
58 57 57 58 57 57 57 57 57 57 57 57 56 56 56 55 55 55 55 55 55 57 58 57 53 52 46 65 58 65 64 62 66 67 67 71 68 63 62 58 55 53 52 51 57 62 59
57 57 57 57 57 57 57 57 57 57 56 56 56 56 55 55 55 55 54 55 56 56 57 57 57 49 54 57 66 66 64 65 64 63 63 62 60 57 55 55 46 49 49 50 54 59 59
57 57 57 56 56 56 57 57 57 56 55 55 55 55 55 55 55 54 53 50 49 48 49 47 49 49 55 61 66 65 65 63 63 61 53 57 52 48 53 57 56 55 52 51 55 59 58
57 56 56 56 56 56 56 57 56 55 55 55 55 55 55 55 54 54 50 47 47 47 38 50 49 50 56 59 48 59 67 59 56 52 55 52 47 56 58 57 56 55 51 52 56 58 57
55 55 56 56 56 56 56 56 55 55 55 54 54 54 54 54 54 50 47 47 56 54 39 46 52 50 51 55 49 53 62 59 55 51 52 50 53 58 56 53 51 53 51 50 53 55 58
54 55 55 55 56 55 55 55 55 54 54 54 54 53 53 53 48 47 47 53 55 53 35 41 45 50 56 56 48 62 65 61 55 51 52 52 58 55 54 52 54 48 54 55 52 51 47
54 54 54 54 55 54 55 54 54 54 54 53 53 53 53 54 48 45 50 52 53 49 25 50 50 63 58 52 55 56 65 60 53 52 53 49 50 52 51 53 56 53 56 54 54 50 49
53 53 54 54 54 54 54 53 53 53 53 53 53 53 53 49 49 50 51 49 48 34 25 43 53 50 49 53 54 57 57 62 62 53 54 54 59 58 57 56 58 58 55 53 51 49 41
53 53 53 54 53 53 54 53 53 53 53 53 53 53 51 52 46 51 49 45 32 26 45 41 43 50 49 48 49 52 49 49 48 42 43 51 52 57 59 54 56 56 51 42 40 39 40
52 52 53 53 53 53 53 53 53 52 52 52 52 52 50 50 52 51 46 37 26 37 38 46 46 46 44 49 49 50 46 44 51 50 46 43 40 53 58 55 50 51 51 43 34 36 43
52 52 53 52 53 53 53 53 52 52 52 52 51 45 45 47 51 49 39 27 31 37 42 39 43 41 42 47 46 48 46 44 49 52 45 43 44 56 57 58 59 49 45 54 43 40 39
52 52 52 52 52 52 52 52 52 52 52 52 42 41 42 48 50 45 34 32 34 43 43 42 35 40 36 40 42 44 46 48 46 53 55 50 43 53 55 59 58 56 57 45 43 36 34
51 51 51 51 52 51 51 52 51 52 52 51 42 37 44 49 49 39 29 32 37 44 45 39 37 36 38 38 41 42 44 48 49 50 54 52 48 47 53 51 50 51 50 49 50 43 38
50 50 50 51 51 51 51 52 51 51 51 47 41 31 45 48 35 35 32 34 41 41 45 43 42 40 38 40 39 41 41 45 50 52 48 51 46 40 46 55 57 56 51 52 42 40 40
49 50 50 50 51 51 51 50 51 51 51 44 36 37 45 45 29 30 35 35 40 38 41 41 39 40 42 39 37 42 43 51 50 50 46 50 43 37 42 49 52 48 50 52 48 44 41
50 50 50 50 50 50 50 50 51 51 51 44 36 30 37 39 39 35 33 33 34 41 40 41 39 41 39 37 42 38 41 48 50 50 49 51 45 41 37 40 45 42 46 48 48 40 43
49 49 50 50 50 50 50 50 50 50 50 43 36 32 38 29 32 34 35 36 33 33 40 41 38 38 37 33 35 36 42 44 48 48 50 48 40 43 44 44 44 44 45 47 45 47 42
49 49 49 49 49 50 50 50 50 50 50 40 32 34 37 36 36 34 35 33 35 36 38 36 36 39 39 35 37 36 40 40 40 45 43 45 38 41 39 45 43 41 46 46 48 48 48
49 49 49 49 49 49 49 49 50 50 49 39 40 40 38 36 35 32 34 36 36 40 41 44 41 38 36 39 43 44 44 44 43 39 39 39 39 37 36 39 40 37 43 45 46 48 48
48 48 48 48 49 49 49 49 49 50 49 41 41 40 34 29 33 34 37 37 38 39 37 41 43 38 44 49 47 45 42 41 41 41 44 38 38 36 33 35 29 45 50 51 49 51 52
47 48 48 49 49 49 49 49 49 49 50 43 43 40 36 30 35 35 37 37 41 42 39 39 43 47 49 43 36 34 34 36 37 40 41 43 39 32 31 32 38 46 49 46 47 48 52
47 47 48 48 48 49 49 49 50 49 49 45 43 44 39 33 33 41 36 40 35 34 34 36 45 46 46 36 33 27 28 33 32 36 42 40 41 37 31 29 26 41 50 54 54 41 53
47 48 48 48 48 49 49 48 49 48 49 46 43 45 40 33 40 41 37 36 42 39 34 38 39 37 45 34 30 30 30 38 32 32 32 33 35 32 32 31 35 46 50 53 38 43 54
47 48 48 48 48 48 48 48 49 48 49 46 43 45 40 33 39 45 46 41 39 39 34 38 37 36 35 31 31 32 30 36 36 38 36 33 31 31 35 29 28 49 50 44 46 51 53
47 47 48 48 48 48 48 48 49 49 49 48 40 45 45 38 39 46 47 50 49 48 43 42 41 38 39 35 34 36 32 32 36 31 40 35 39 37 39 39 47 50 48 48 48 46 49

GFSGBSN_sfc_temp_060.txt.gz
Temp
60 60 59 59 59 59 59 59 58 58 58 58 58 58 58 58 58 58 57 57 57 57 58 58 58 59 61 63 64 80 69 71 76 76 77 76 73 73 69 73 74 69 75 76 78 77 76
59 59 59 58 58 59 59 58 58 58 58 58 57 57 57 58 58 57 57 57 56 56 57 57 58 58 58 53 75 77 74 76 76 76 76 78 76 78 73 72 71 75 74 76 77 76 77
59 58 58 58 58 58 58 58 58 58 58 57 57 57 57 57 57 57 56 56 56 56 56 57 58 61 55 58 74 76 71 74 76 76 73 78 80 74 75 70 76 74 68 72 74 75 74
58 59 58 58 58 57 57 57 57 57 57 57 57 56 56 56 56 56 56 55 56 56 57 57 58 60 54 74 72 67 71 70 74 76 74 79 79 74 72 75 70 68 69 63 74 74 73
58 58 58 58 57 57 57 57 57 57 57 56 56 56 56 55 55 55 55 55 55 57 58 58 57 57 56 68 64 70 71 63 71 72 74 76 74 69 72 65 64 65 60 63 68 74 71
58 58 58 58 57 57 57 57 57 56 56 56 56 56 55 55 55 54 54 55 58 58 62 63 63 52 62 62 69 69 70 67 66 67 66 67 68 63 65 63 53 59 60 65 64 70 70
57 57 57 57 57 57 57 57 56 56 55 55 55 55 55 55 55 54 57 64 60 58 56 52 57 56 61 67 71 69 68 64 67 65 59 63 59 55 60 65 67 67 63 63 69 70 65
56 57 56 56 57 57 57 57 56 55 55 55 55 55 55 54 54 54 61 55 49 51 40 55 56 56 62 63 54 64 69 60 59 56 62 59 53 62 65 67 64 63 60 62 68 68 65
55 56 56 57 56 56 57 56 56 55 54 54 54 54 54 54 54 57 56 55 60 58 45 51 58 55 57 60 52 57 64 61 57 56 60 55 58 63 62 61 59 61 59 61 61 65 67
55 55 55 55 55 55 56 55 55 55 54 54 54 54 53 53 52 59 57 61 63 59 38 48 53 57 58 58 51 63 67 60 57 55 58 57 64 59 60 59 62 56 65 63 61 59 55
54 54 54 54 55 55 54 55 55 54 54 54 53 53 53 53 55 55 58 62 62 53 33 53 55 67 62 55 58 58 68 61 50 55 58 56 56 57 56 59 65 59 66 61 62 59 59
53 53 54 54 54 54 54 54 54 53 53 53 53 53 53 57 57 59 62 60 57 38 32 47 56 54 52 56 56 60 58 65 65 56 57 59 64 63 63 64 64 66 61 60 61 59 48
53 53 53 53 53 54 54 53 53 53 53 53 53 53 53 59 53 60 58 55 39 36 52 45 46 53 53 52 53 54 52 50 51 44 47 56 57 63 64 60 64 62 57 48 45 45 45
53 52 52 53 53 53 53 53 53 53 53 52 52 52 55 59 61 57 50 45 32 42 44 52 49 51 49 54 54 53 50 47 56 56 52 46 43 56 63 60 57 56 58 51 38 42 51
52 52 52 52 52 53 52 53 52 52 52 52 52 55 53 58 59 55 42 34 40 43 47 45 49 45 47 52 51 52 50 49 53 57 48 46 49 61 62 63 63 56 51 62 51 51 48
52 52 52 51 52 52 52 52 52 52 52 52 48 49 51 59 58 48 36 35 42 48 47 46 40 45 41 46 48 50 49 51 50 57 60 54 46 58 60 64 64 61 65 49 52 40 39
50 51 51 51 51 52 51 51 51 51 52 52 46 42 56 59 54 40 30 37 45 51 50 44 42 42 43 43 47 47 47 51 52 54 60 55 52 51 58 55 55 56 54 57 58 53 44
51 51 51 51 51 51 51 51 51 51 51 48 44 34 54 55 35 36 32 41 45 47 52 49 47 45 43 45 44 45 44 49 54 55 51 56 51 47 53 59 64 63 58 58 48 47 51
50 50 50 50 50 50 51 51 51 51 51 48 40 40 49 50 30 32 40 42 44 44 47 47 46 46 48 43 40 46 48 55 54 51 48 54 50 41 46 55 57 55 58 58 59 57 49
50 50 50 51 51 51 51 51 50 50 51 46 39 32 40 41 42 37 38 37 39 47 47 49 47 47 45 42 47 43 46 52 54 53 48 53 49 48 42 49 54 49 54 55 55 48 49
49 49 49 49 49 50 50 50 50 49 50 45 37 34 44 32 34 37 38 38 40 39 46 48 44 45 43 37 42 42 47 50 53 51 53 51 41 47 49 50 51 51 51 53 52 54 48
49 49 49 49 49 49 49 49 50 49 50 41 33 34 39 40 43 37 35 37 37 43 43 42 41 45 45 40 42 40 46 47 45 51 48 50 44 46 44 49 49 47 52 54 54 55 56
49 49 49 49 49 50 50 50 50 50 49 40 41 45 36 40 40 36 37 39 42 45 45 49 47 43 42 45 49 50 50 50 49 46 44 45 45 43 39 46 46 41 49 53 55 57 57
48 49 49 49 49 49 49 49 49 49 49 48 47 45 35 29 37 40 43 42 40 43 42 47 47 40 47 52 52 51 50 48 49 49 50 43 42 44 39 39 31 50 58 58 55 57 60
48 48 48 49 49 49 49 49 49 49 49 43 50 43 37 31 41 41 42 42 45 47 44 43 46 49 47 42 37 38 39 40 42 47 48 49 44 39 36 38 46 51 54 52 52 54 58
46 47 47 48 48 48 49 49 49 49 49 45 46 51 41 35 38 46 43 44 38 39 41 43 44 45 42 38 36 31 31 39 36 40 49 48 47 41 37 34 31 49 55 59 59 47 60
48 48 48 48 48 48 48 48 49 49 49 46 41 50 45 34 40 44 42 42 42 39 37 38 38 37 40 37 33 34 35 43 35 35 33 35 39 35 36 36 42 54 57 60 43 45 57
48 48 47 48 48 48 48 48 49 49 49 46 43 47 45 36 41 48 48 45 44 41 36 42 37 37 35 33 35 38 37 43 41 44 38 38 37 35 39 34 32 55 55 47 50 56 55
48 48 48 48 48 47 47 48 48 49 48 48 39 48 50 41 38 49 51 52 53 52 45 41 44 43 45 40 40 43 38 41 43 37 49 39 46 42 45 45 53 56 53 54 54 52 52

GFSGBSN_sfc_temp_063.txt.gz
Temp
60 60 59 59 59 59 59 59 59 58 58 58 58 58 58 58 58 58 57 57 57 57 57 58 58 59 63 65 68 87 71 75 80 78 77 78 76 76 71 76 79 75 78 81 83 82 82
59 59 59 59 59 59 59 59 59 58 58 58 57 57 57 57 57 57 57 57 56 57 57 57 58 57 61 55 81 86 81 80 80 79 78 81 78 81 76 76 76 79 79 79 82 81 81
59 59 59 58 58 58 58 58 58 57 57 57 57 57 57 57 57 57 56 56 56 56 57 57 58 62 60 63 83 86 79 77 78 78 74 81 83 78 79 73 80 79 72 76 78 80 78
59 59 59 58 58 58 57 57 57 57 58 57 57 56 56 56 56 55 55 55 55 56 57 57 58 64 57 79 84 80 81 76 78 79 78 79 82 77 74 79 76 71 72 65 76 79 79
58 58 58 58 58 57 57 57 57 57 57 56 56 56 55 55 55 55 55 55 55 56 58 59 61 62 59 71 71 78 79 72 73 75 77 79 78 71 71 65 64 68 62 65 70 81 79
58 58 58 58 57 57 57 57 57 57 56 55 56 56 55 55 55 54 54 54 60 59 61 70 69 56 65 66 75 75 78 75 68 64 68 69 68 64 64 61 51 60 63 67 68 76 75
57 58 57 58 57 57 57 57 57 56 55 55 55 55 55 55 55 54 57 70 65 62 65 60 62 61 66 72 76 73 75 69 69 63 51 66 59 57 61 62 63 66 68 67 72 78 72
56 56 56 57 56 57 57 57 56 56 55 55 55 55 55 55 54 54 60 59 57 56 46 60 62 62 66 68 58 67 74 63 59 51 56 55 55 65 67 65 64 64 64 65 71 75 69
56 55 56 56 56 57 57 57 56 55 55 55 54 54 54 54 54 57 63 61 68 62 49 58 64 63 63 64 57 61 70 66 57 49 51 48 60 65 64 62 61 64 62 64 64 72 71
55 55 55 55 55 56 56 55 56 55 55 54 54 54 53 53 53 61 60 67 69 62 42 56 60 64 64 61 54 68 72 64 56 49 50 55 62 60 59 58 62 58 68 67 66 64 57
55 54 54 54 54 54 55 55 55 55 54 54 54 53 53 53 58 56 62 68 67 56 37 59 60 72 66 59 61 61 70 64 54 53 54 53 59 58 56 59 64 60 68 66 65 62 62
54 53 53 54 54 54 54 54 54 54 54 54 53 53 53 59 60 62 67 65 60 37 37 53 61 59 59 63 60 62 62 66 62 50 53 55 64 63 62 64 65 68 65 64 64 61 50
53 53 53 54 53 53 53 54 53 54 53 53 53 53 53 60 54 63 64 56 43 39 57 52 52 57 58 58 59 58 53 51 48 39 42 50 52 61 66 59 63 64 59 48 47 48 46
53 53 53 53 52 53 53 53 52 53 53 53 52 52 57 62 61 63 58 48 35 49 50 58 55 57 54 58 57 57 53 48 53 55 48 44 40 54 64 60 57 60 59 50 39 43 52
53 53 52 52 52 53 53 53 52 52 53 52 52 57 57 61 62 61 47 38 44 50 55 50 54 51 52 56 55 55 55 52 55 55 47 48 50 63 64 63 62 59 54 63 53 54 50
52 52 52 51 51 51 52 52 52 52 53 52 54 53 55 64 62 53 39 37 49 54 53 53 45 51 46 50 52 54 53 55 53 57 60 56 46 60 61 64 63 59 67 52 55 40 39
51 51 50 51 51 52 52 52 52 51 52 52 52 42 60 64 59 42 34 42 49 56 55 49 48 47 50 48 50 51 47 53 55 55 58 58 53 52 60 56 55 55 55 57 58 54 44
50 51 51 51 51 51 52 51 52 51 51 49 48 34 59 60 39 42 36 45 48 52 56 52 52 50 48 49 47 49 48 52 55 55 51 57 53 46 48 62 66 62 57 58 48 44 53
50 50 50 51 51 51 50 50 51 51 50 52 39 44 56 53 33 36 43 45 48 49 51 50 49 52 54 49 43 50 52 58 57 52 48 53 50 41 45 52 61 58 60 59 59 56 45
50 50 50 50 50 50 50 51 51 50 51 49 39 33 46 44 47 41 40 41 44 52 50 53 52 54 51 47 52 47 49 55 57 55 49 51 49 48 42 50 58 52 57 59 57 47 50
50 50 50 50 50 50 50 50 51 50 50 45 42 37 45 34 40 41 43 43 42 42 51 52 48 49 48 43 46 45 50 53 56 53 55 52 39 44 53 55 56 58 56 57 53 54 48
49 49 49 49 49 50 50 50 50 50 50 40 35 39 45 43 45 43 42 38 41 45 48 45 44 48 51 45 47 43 49 51 50 55 51 54 40 39 44 52 53 51 55 59 58 59 58
49 50 49 49 49 49 50 50 50 50 48 39 48 48 42 40 42 39 40 42 43 48 50 52 49 49 47 49 52 52 53 53 50 48 47 48 46 39 33 47 47 41 51 54 56 61 60
49 49 49 49 50 49 49 49 49 50 49 44 48 48 36 34 40 41 45 45 46 47 45 51 52 48 52 56 55 54 52 50 52 52 53 45 46 45 38 41 28 52 61 62 58 61 63
48 48 48 49 49 49 49 49 49 49 49 47 50 45 42 33 43 43 44 44 47 49 47 47 52 56 54 47 39 38 39 42 44 50 51 52 46 41 36 39 48 52 57 56 55 55 62
48 48 47 47 46 48 48 49 49 49 49 48 48 51 42 35 39 48 46 48 43 42 44 48 48 51 46 37 35 32 33 40 39 45 53 52 49 43 41 34 33 51 60 63 62 48 62
48 48 49 48 48 47 48 48 49 49 49 47 43 51 43 34 46 48 43 44 50 46 41 46 38 38 39 35 33 35 36 44 37 37 39 40 41 37 38 38 46 59 61 62 44 46 59
48 48 48 48 48 48 48 48 48 48 49 46 43 46 41 37 46 51 51 46 48 46 39 39 37 37 35 33 37 39 38 41 42 45 43 40 38 37 40 37 34 60 59 49 53 58 58
48 48 48 48 48 48 48 48 48 48 49 48 41 44 46 38 44 54 55 57 55 51 43 40 41 41 46 42 43 42 38 40 43 35 52 39 47 44 46 46 56 59 56 58 59 56 56

GFSGBSN_sfc_temp_066.txt.gz
Temp
60 60 59 59 59 59 60 60 59 58 58 58 58 58 58 58 58 58 57 57 57 57 57 58 58 58 59 62 64 82 71 74 78 78 75 73 70 71 67 71 74 71 75 79 81 81 81
59 59 59 59 59 59 59 59 58 58 58 58 57 57 57 57 57 57 57 56 56 56 57 57 58 58 56 49 78 86 84 81 81 80 77 76 73 76 72 72 71 75 76 77 80 79 81
59 59 58 58 58 58 58 58 58 58 57 57 57 57 57 57 56 56 56 56 56 56 57 57 58 60 55 58 80 81 80 79 80 78 73 78 80 74 75 69 77 75 69 74 76 78 76
58 58 59 58 58 58 57 57 57 57 57 57 57 56 56 55 55 55 55 55 55 56 57 57 58 60 53 76 81 77 80 78 81 79 77 78 78 72 70 75 72 68 68 60 72 76 78
58 58 58 58 58 58 57 57 57 57 57 57 56 56 55 55 55 55 55 55 55 57 57 58 57 58 56 76 72 79 80 73 76 77 77 78 74 67 67 61 58 61 55 60 65 77 76
58 58 58 58 57 57 57 57 57 57 56 56 56 55 55 55 54 54 54 55 58 59 63 68 67 58 64 65 74 76 80 76 70 69 67 66 65 59 60 56 47 52 55 60 62 73 75
57 57 57 57 57 57 57 57 57 56 56 56 56 55 55 55 54 54 55 60 62 59 64 60 62 62 66 73 77 73 77 71 70 65 54 60 51 49 55 59 62 61 58 57 65 75 73
56 57 57 57 56 57 57 57 57 56 56 55 55 55 55 54 54 54 56 60 60 58 45 59 62 63 68 70 60 66 76 63 61 54 58 52 43 55 63 62 60 59 53 55 65 74 71
56 56 56 56 57 56 57 57 56 56 55 55 55 54 54 53 54 56 60 60 70 64 47 57 67 66 66 67 59 61 68 65 59 52 54 47 51 57 55 60 57 57 55 57 59 68 72
55 55 55 55 56 55 55 56 55 55 55 55 54 54 53 53 51 61 58 68 69 62 39 55 60 65 66 64 57 69 71 64 58 48 50 46 53 53 49 53 60 53 63 62 62 60 54
54 54 54 54 54 54 54 54 55 55 55 54 54 53 53 53 53 56 62 68 66 56 33 60 62 74 69 60 63 64 71 64 54 49 46 42 49 46 44 48 60 55 63 60 61 59 58
53 53 53 53 54 54 54 54 54 54 54 54 53 53 53 56 56 59 64 64 56 35 33 54 63 60 60 64 62 64 62 66 64 55 52 51 58 51 49 55 58 61 55 56 59 57 46
53 53 53 53 53 53 53 53 53 53 53 54 53 53 53 58 51 62 62 54 37 34 59 54 55 59 59 58 61 59 54 51 48 41 41 49 49 55 60 52 58 58 48 40 40 42 41
53 53 53 53 53 53 53 53 53 53 53 53 53 52 55 58 61 61 53 43 31 49 53 60 57 58 53 60 60 59 54 48 54 52 46 38 37 51 58 54 49 52 48 42 32 37 45
53 53 52 53 53 53 53 53 52 52 52 53 52 54 54 57 60 59 42 33 41 49 57 54 54 51 53 58 56 57 55 53 55 54 44 42 41 59 58 59 57 50 42 55 48 49 43
52 52 52 52 52 51 51 51 52 52 52 53 49 50 51 61 59 51 35 34 46 57 57 55 45 53 48 53 51 54 53 54 53 57 59 51 40 55 60 59 58 56 60 44 49 34 34
52 51 51 51 51 51 51 52 52 52 52 51 47 41 55 61 55 41 29 37 48 56 58 50 48 49 51 49 51 51 51 52 55 53 56 54 49 48 57 54 50 52 50 50 50 48 40
51 51 51 51 51 51 51 51 51 51 50 46 42 33 59 60 38 40 32 42 50 53 57 53 53 50 49 50 49 49 49 53 56 55 48 52 50 43 48 60 58 57 51 52 41 42 48
50 50 50 50 51 51 51 51 51 51 50 46 37 44 56 49 31 35 43 44 49 49 51 51 49 52 53 49 44 50 52 58 57 52 46 48 46 39 43 49 55 51 55 54 52 46 38
50 50 50 50 50 50 50 50 50 51 50 46 36 33 45 44 44 40 39 41 42 52 50 52 51 54 50 47 51 47 50 56 58 57 49 49 44 42 38 44 46 48 53 53 52 40 42
49 49 50 50 50 50 50 50 50 50 50 44 36 36 42 33 39 40 42 41 40 42 51 53 48 49 48 43 46 46 51 53 56 53 53 46 37 43 44 48 54 52 51 53 43 46 41
50 49 49 49 49 50 50 50 49 50 49 39 33 38 46 40 41 40 42 40 40 43 48 46 46 49 51 45 47 44 49 50 48 52 49 49 37 42 40 50 51 50 52 55 53 55 55
49 49 49 49 49 50 49 50 50 49 48 38 41 43 40 39 41 39 37 41 44 47 49 51 48 48 47 49 50 52 53 53 48 45 46 43 43 38 34 40 42 41 50 50 52 52 57
49 49 49 49 50 50 49 49 49 49 49 45 42 41 35 32 39 39 43 43 42 47 44 51 52 40 52 57 56 54 53 52 52 51 52 43 41 38 33 34 28 51 61 60 57 57 60
48 49 49 49 49 49 49 49 49 49 49 46 46 38 38 33 41 41 43 44 46 48 44 48 51 51 54 50 42 39 40 41 44 49 49 50 44 34 32 33 40 48 55 55 54 51 51
48 48 49 49 48 47 46 48 49 49 49 47 46 48 40 34 37 46 43 46 38 41 43 46 47 52 49 43 37 30 30 39 38 43 52 50 49 38 36 30 30 49 60 65 62 43 58
48 48 48 48 48 48 47 47 48 49 49 47 46 49 41 34 44 46 41 42 48 45 40 44 42 40 44 36 31 31 32 44 32 37 38 39 39 34 34 32 41 57 60 63 42 42 57
48 48 48 48 48 48 48 47 48 48 49 47 46 49 41 35 42 47 49 43 45 45 37 40 38 39 35 31 34 36 36 40 38 39 42 39 35 34 37 34 31 60 57 48 50 56 57
47 47 48 48 48 48 48 47 47 48 48 48 41 49 50 39 43 51 53 55 52 48 40 41 40 40 44 40 42 43 37 40 40 33 44 36 45 41 43 42 54 58 54 57 57 54 55

GFSGBSN_sfc_temp_069.txt.gz
Temp
60 59 59 59 59 59 59 59 59 58 58 58 58 57 58 58 58 58 57 56 56 57 57 57 58 58 53 50 54 71 71 71 69 71 68 66 62 60 56 61 63 61 65 70 73 73 73
59 59 59 59 59 58 59 58 58 57 57 57 57 57 57 57 57 57 56 56 56 56 56 57 58 58 49 40 67 73 72 72 73 69 68 68 65 67 63 62 61 66 67 68 71 71 73
59 59 59 59 58 58 58 57 57 57 57 57 57 56 56 56 56 56 56 56 55 56 56 57 58 57 49 47 66 67 67 67 71 69 65 69 69 63 63 58 68 68 61 66 68 68 68
59 58 58 58 58 57 57 57 57 57 57 57 57 56 55 55 55 55 55 55 55 56 56 57 58 55 46 66 67 67 68 68 72 72 69 70 70 64 61 64 63 58 58 51 64 68 70
58 58 58 58 58 57 57 57 57 57 57 56 56 56 55 55 54 54 54 54 55 56 57 58 52 49 47 70 62 68 69 67 69 70 68 75 67 58 60 53 48 53 44 50 58 69 68
57 58 57 57 57 57 57 57 57 57 56 56 56 56 55 55 54 54 54 54 56 57 58 63 60 48 55 60 69 72 72 71 65 62 61 59 55 50 50 47 37 43 47 50 53 63 66
57 57 57 57 57 56 57 57 57 56 56 56 55 55 55 54 54 54 52 48 51 49 53 51 53 53 59 67 70 66 70 66 64 58 47 54 45 41 48 54 55 54 53 51 55 62 58
57 56 57 57 56 57 57 57 56 55 56 55 55 55 54 54 54 54 49 46 55 51 41 54 55 56 61 64 56 63 68 57 55 47 51 47 41 51 56 54 51 53 51 50 58 63 61
56 56 56 56 56 56 56 56 56 55 55 55 55 54 54 53 53 50 49 53 63 57 39 48 58 57 59 63 55 57 61 58 53 48 48 46 48 55 52 47 46 49 51 52 53 59 61
55 55 55 55 55 55 55 55 55 55 55 54 54 53 53 53 48 49 48 61 60 58 34 45 55 62 64 62 53 64 65 58 53 47 47 46 52 51 48 46 50 42 57 58 56 53 42
54 53 53 54 54 54 54 54 54 54 54 54 54 53 53 53 44 43 53 60 60 50 22 56 58 70 65 56 58 58 65 57 48 47 46 44 46 45 44 48 52 46 55 53 51 46 46
53 54 54 53 53 53 54 54 53 53 54 54 54 53 53 50 46 50 57 56 53 34 24 51 58 55 55 56 58 58 56 58 58 51 47 47 52 48 49 52 52 54 50 51 50 45 34
53 53 53 53 53 53 53 53 53 53 53 53 53 53 51 53 41 54 55 47 33 25 52 50 52 57 54 53 54 53 49 45 41 36 38 46 47 51 51 44 51 51 42 34 34 33 32
53 53 53 53 53 53 53 52 53 52 53 53 52 52 49 51 50 51 46 38 25 41 46 59 55 54 49 54 55 52 47 40 47 45 40 38 34 48 52 47 46 46 42 35 28 29 38
52 52 52 53 52 52 52 52 52 52 51 52 52 43 43 48 50 47 39 27 31 42 52 50 52 46 46 53 53 52 47 45 47 48 39 39 40 53 54 57 54 42 39 49 35 40 33
52 52 52 52 51 51 51 51 51 51 52 52 40 40 42 52 50 43 34 29 37 48 50 51 42 48 43 49 48 47 46 51 50 52 52 46 37 52 55 56 56 47 51 35 34 29 28
50 51 51 51 51 51 51 51 52 52 52 51 38 34 45 50 48 38 26 31 39 48 49 47 45 43 44 45 47 45 47 49 52 50 51 46 43 43 52 48 46 46 39 39 40 40 33
51 51 51 51 51 51 51 51 51 51 51 46 37 29 46 49 33 34 28 37 44 43 49 47 48 46 43 44 43 44 45 47 53 50 44 47 41 36 43 51 53 51 47 42 34 35 41
51 50 50 50 51 50 51 51 51 51 50 40 35 34 47 43 28 29 36 38 41 40 42 46 45 48 48 43 38 45 47 52 51 47 43 46 39 32 38 46 50 46 49 50 45 42 36
50 50 50 50 50 50 51 50 50 50 50 41 35 28 34 36 36 33 33 34 37 46 44 48 46 47 44 42 46 41 45 52 53 48 49 47 40 37 31 37 44 40 45 49 44 35 37
50 50 49 49 49 50 50 50 50 50 49 41 35 28 35 22 27 32 35 36 33 35 46 48 43 44 42 38 41 40 46 48 52 49 46 42 33 39 40 44 46 46 41 47 42 41 37
49 49 49 49 49 50 49 50 50 50 49 39 32 28 35 33 37 33 33 33 35 39 36 40 42 45 45 41 41 38 42 43 40 46 42 44 34 37 37 43 44 43 47 50 51 47 43
49 49 49 49 50 49 50 50 50 49 48 34 35 41 34 32 34 31 31 34 37 42 45 46 42 39 38 43 45 45 45 45 44 41 39 39 37 33 29 38 37 34 44 49 49 48 47
49 49 49 49 49 50 50 50 49 49 48 38 37 39 30 25 31 34 38 40 34 36 37 45 46 39 46 49 49 47 46 46 45 44 45 38 37 36 29 33 26 45 53 55 51 52 51
49 49 49 49 49 50 49 49 50 49 49 40 40 38 33 27 33 36 38 39 42 37 38 40 46 49 48 45 37 34 30 34 39 44 43 43 37 28 26 29 37 44 51 50 46 41 52
48 49 49 49 49 49 49 48 47 49 49 42 41 41 37 29 29 40 37 40 33 33 36 40 43 44 44 37 29 26 24 33 33 39 47 44 40 32 28 27 26 44 54 59 53 36 50
48 48 48 48 48 48 48 48 48 46 49 43 39 43 37 32 36 38 32 33 40 35 32 37 37 38 40 29 27 24 24 38 28 31 33 33 32 30 28 27 34 49 55 58 37 37 51
47 48 48 47 48 48 48 48 48 47 48 44 39 42 37 30 37 40 41 35 37 37 31 36 36 37 34 24 26 28 25 33 33 38 35 31 29 29 31 27 26 54 54 42 45 50 50
47 47 47 47 47 48 48 48 48 47 48 47 35 43 43 37 35 44 44 46 44 45 38 38 36 35 37 31 31 32 28 31 35 29 39 31 36 31 35 33 46 50 48 51 51 48 48

GFSGBSN_sfc_temp_072.txt.gz
Temp
59 59 59 59 59 59 59 59 59 58 57 57 57 57 57 57 57 57 57 56 56 57 57 57 58 58 53 46 49 65 69 69 67 66 64 62 59 56 51 54 57 55 59 63 65 66 66
59 59 59 59 58 58 59 58 58 57 57 57 57 57 56 56 57 56 56 56 56 56 56 57 57 58 47 37 61 66 66 66 67 64 64 63 61 62 57 56 54 60 61 62 65 65 67
59 59 58 58 58 58 58 57 57 57 57 57 57 56 56 56 56 56 56 55 55 55 56 56 57 57 48 44 60 59 62 61 64 65 62 65 64 57 58 55 62 61 55 60 62 61 62
58 58 58 58 58 57 57 57 57 57 57 57 56 56 55 55 55 55 55 55 55 55 56 56 57 52 43 61 58 60 60 62 66 68 66 67 64 59 56 60 59 54 52 46 58 62 65
57 58 58 57 57 57 57 57 57 57 57 56 56 56 55 55 54 54 54 54 55 56 57 57 51 47 42 64 59 64 62 61 65 67 64 73 62 55 55 48 44 48 41 45 51 63 63
57 57 57 57 57 57 57 57 57 57 56 56 56 56 55 55 54 54 53 54 55 57 57 58 58 46 52 57 64 67 64 66 62 59 58 56 51 46 44 42 34 40 42 41 46 58 60
57 57 57 57 57 57 57 57 56 56 55 56 55 55 55 54 54 54 52 46 49 47 50 48 50 50 54 62 65 61 66 63 60 54 45 50 42 37 43 47 49 48 46 45 50 59 54
56 56 57 57 57 57 57 57 56 55 55 55 55 55 54 54 54 54 49 46 51 52 40 53 52 52 57 59 51 58 64 54 52 44 47 43 39 47 51 51 49 47 44 43 52 60 56
55 55 56 56 56 56 56 56 55 55 55 55 55 54 54 53 53 49 46 51 59 57 39 46 53 53 53 56 50 53 58 55 49 45 45 40 45 52 50 48 46 46 44 45 47 56 55
55 54 54 54 55 55 55 55 55 54 54 54 54 54 53 53 47 46 45 55 56 54 33 41 49 56 57 58 49 61 61 56 50 45 46 44 48 49 46 44 47 41 52 51 49 48 38
53 53 54 54 53 53 53 54 54 54 54 54 53 53 53 53 43 40 50 54 55 48 23 52 56 67 61 54 55 56 61 55 46 45 45 41 43 42 43 45 49 44 52 47 48 42 40
53 53 53 53 53 53 53 53 53 53 53 53 53 53 53 47 42 46 50 51 48 32 24 47 56 53 51 53 54 54 53 56 54 46 45 44 49 47 46 51 52 52 46 46 47 43 32
53 52 53 53 53 53 53 53 53 53 53 53 53 53 50 50 37 47 48 42 28 23 48 47 48 53 50 48 50 50 46 44 39 35 35 41 42 46 50 44 49 46 39 33 33 32 30
52 52 53 53 53 52 52 52 52 52 52 52 52 51 48 49 45 43 42 34 24 37 40 51 49 51 46 51 49 48 43 38 44 41 36 33 31 43 49 46 41 43 39 33 26 27 33
52 52 52 52 52 52 52 52 51 51 52 51 51 40 40 42 44 43 37 24 28 37 45 42 45 45 44 50 48 47 42 40 43 44 36 34 37 48 50 52 50 42 36 45 35 36 32
52 51 52 52 51 51 51 51 51 51 51 51 38 36 37 48 44 43 33 27 33 43 44 42 34 44 38 41 43 44 43 48 46 48 48 42 34 47 50 53 52 47 49 34 35 27 27
51 51 51 51 51 51 51 51 51 51 51 51 36 31 41 45 44 37 24 28 37 44 46 39 36 36 41 40 41 42 43 46 49 48 49 42 40 39 48 43 43 41 38 39 39 38 31
51 51 51 51 51 51 51 51 51 51 50 44 33 25 42 47 31 33 29 34 41 41 44 42 42 41 41 43 40 42 43 45 50 49 42 43 38 31 40 51 53 48 42 39 34 33 37
51 51 50 50 51 51 50 51 50 51 50 37 34 34 41 41 26 26 32 36 39 37 38 40 41 43 44 39 36 42 45 50 49 45 42 43 35 28 35 42 48 44 47 44 42 40 35
50 50 50 50 50 50 50 50 50 50 50 40 34 23 29 33 32 28 30 31 31 41 40 41 41 43 41 39 42 38 43 48 50 47 49 46 38 34 29 35 41 37 43 44 40 34 35
50 50 50 50 50 49 50 50 50 50 49 41 35 27 30 20 30 31 31 31 30 31 39 41 39 41 40 34 37 37 43 45 47 47 44 41 32 35 39 41 42 43 43 42 39 41 36
49 49 49 49 50 50 50 50 49 50 49 38 30 25 30 29 33 29 31 30 31 35 34 35 36 37 40 37 40 36 41 40 39 44 40 41 32 34 33 41 42 39 44 44 41 42 41
49 49 49 50 50 50 50 50 50 50 47 36 36 35 31 30 28 24 29 32 32 35 37 37 38 35 34 40 41 43 43 44 43 40 37 37 34 30 27 35 36 32 41 45 43 47 45
49 49 49 49 50 49 50 50 49 50 48 41 35 33 28 23 28 29 34 36 33 34 32 38 40 34 44 48 46 45 45 44 43 42 42 35 34 32 27 30 24 42 50 51 49 49 48
48 49 49 49 50 49 49 49 49 49 50 39 38 37 32 24 30 32 34 35 38 37 35 35 42 44 46 42 34 33 30 33 37 41 40 41 34 26 25 25 34 43 48 46 45 41 47
49 48 49 48 49 49 49 48 49 49 48 43 40 38 36 28 26 37 33 35 31 32 33 38 41 41 42 34 31 26 24 31 31 37 42 40 37 29 28 23 23 39 50 54 52 35 47
48 48 48 48 48 48 48 48 48 49 48 42 39 40 37 30 35 37 31 33 38 33 31 35 35 37 37 30 25 25 23 35 26 29 29 29 29 27 26 24 31 45 53 56 35 36 50
48 48 48 48 48 48 48 48 48 48 49 43 40 40 37 32 34 38 39 33 33 33 28 35 34 37 33 24 26 27 24 31 30 34 33 30 27 25 27 24 23 50 51 41 43 46 48
47 47 47 47 47 47 47 48 48 48 48 45 38 40 41 36 32 41 43 42 41 40 35 36 33 33 37 32 29 29 24 25 32 26 38 29 34 30 32 32 42 46 46 49 48 44 44

GFSGBSN_sfc_temp_075.txt.gz
Temp
59 59 59 58 58 58 58 59 58 57 57 57 57 57 57 57 57 57 56 56 56 56 56 57 57 57 54 44 46 61 67 66 65 63 60 59 56 52 48 50 52 51 54 58 60 60 59
59 59 58 58 58 58 58 58 57 57 57 57 57 57 56 56 57 56 56 56 55 55 56 56 57 57 50 36 58 62 62 62 63 61 60 60 58 58 54 52 50 55 56 57 59 59 59
59 58 58 57 57 57 57 57 57 57 57 57 57 56 56 56 56 56 55 55 55 55 55 56 56 54 48 44 56 57 57 57 60 62 58 62 61 55 54 52 58 57 51 54 56 56 55
57 57 57 57 57 57 57 57 57 57 57 57 56 56 55 55 55 55 55 55 55 55 56 56 57 54 42 59 56 56 56 58 61 60 61 64 63 57 53 57 55 50 49 43 53 57 58
57 57 57 57 57 56 56 57 57 57 57 56 56 56 55 55 54 54 54 54 55 56 57 57 52 48 42 62 56 61 61 59 61 62 62 70 60 53 52 45 41 43 39 42 47 58 57
57 57 57 57 57 57 57 57 57 55 55 55 55 55 55 54 54 54 54 54 55 56 57 57 56 45 50 55 61 64 62 62 58 58 56 54 49 44 41 39 33 36 38 37 42 49 53
57 57 57 57 57 57 57 57 56 55 55 55 55 55 55 54 54 54 51 48 48 47 51 48 49 49 54 60 63 60 63 60 59 53 44 48 40 36 40 43 46 45 43 40 43 52 50
55 55 56 56 56 56 56 56 55 55 55 55 55 55 54 54 54 53 48 47 48 48 38 51 51 51 56 58 49 57 61 52 51 43 45 41 37 45 48 47 45 44 41 41 47 53 53
55 55 55 55 55 55 55 55 54 54 54 54 54 54 54 53 53 47 43 48 54 51 37 45 52 51 52 54 48 50 57 52 47 44 42 38 43 49 47 44 43 43 41 41 43 50 53
53 53 54 54 54 54 54 54 54 54 54 54 53 53 53 52 46 42 42 51 52 49 30 39 47 52 55 54 45 57 59 54 48 43 43 41 47 46 44 43 44 37 48 48 45 43 36
53 52 53 53 53 53 53 53 53 53 53 53 53 53 52 52 40 38 46 49 51 46 21 49 52 64 58 51 54 53 59 53 44 44 44 40 42 41 40 43 47 41 48 45 45 41 40
53 53 53 53 53 53 53 53 53 53 53 53 53 53 53 46 39 42 45 47 44 28 22 44 53 50 49 53 53 53 54 55 53 45 43 43 46 45 44 48 48 51 44 43 43 42 30
52 52 52 52 52 52 52 52 52 52 52 52 52 52 50 48 37 42 43 39 27 23 44 41 43 47 47 46 49 49 46 43 39 34 33 39 40 44 48 41 45 47 39 31 29 29 29
52 52 52 52 52 52 52 52 52 51 52 52 51 51 46 47 42 42 39 32 21 34 37 46 44 43 41 47 47 47 42 37 43 40 34 31 30 40 46 43 40 41 39 32 25 26 30
52 52 52 52 52 52 51 51 51 51 51 51 49 39 37 40 42 40 35 21 27 33 41 37 41 41 41 45 43 44 40 39 41 42 35 32 34 44 46 48 46 39 34 44 34 35 29
51 50 51 51 51 51 51 51 51 51 51 50 37 34 35 42 43 43 32 26 30 40 41 40 33 38 33 37 38 39 39 45 44 45 45 40 32 44 46 49 47 44 48 33 35 27 25
50 50 51 51 51 51 51 51 51 51 51 49 35 29 39 42 42 36 25 26 34 42 41 36 34 33 33 35 40 38 41 44 46 44 46 42 38 37 44 39 38 40 38 38 39 36 29
50 50 50 50 51 50 50 50 51 51 50 42 32 20 39 42 32 28 23 32 40 38 41 38 39 39 33 34 38 38 40 44 48 48 42 43 37 30 36 46 49 44 41 39 33 31 34
50 50 50 50 50 50 50 50 50 50 49 35 30 29 42 43 21 24 31 33 37 35 36 37 36 39 41 32 29 38 41 49 48 46 42 45 35 28 33 39 45 40 43 42 40 38 33
50 50 50 50 50 50 50 50 50 50 50 39 33 17 27 31 30 25 22 27 31 40 36 38 37 40 37 33 37 37 37 48 49 47 48 45 36 32 27 33 40 35 41 43 40 33 34
50 50 49 49 50 50 50 50 50 50 49 40 34 25 28 16 30 30 31 30 26 28 38 39 35 37 36 31 35 33 42 44 45 47 43 39 32 33 36 38 39 39 39 42 37 37 34
50 50 49 49 49 50 50 50 50 49 48 38 31 28 32 28 30 27 30 28 29 31 31 33 33 36 35 32 36 34 39 40 38 42 39 40 31 32 31 38 38 36 40 42 43 42 40
49 49 49 49 49 50 50 50 50 50 45 34 38 37 31 29 28 21 20 29 30 35 36 38 35 33 32 35 41 40 39 41 39 37 37 37 33 29 25 32 32 29 37 40 43 45 44
49 49 49 49 49 50 50 49 49 49 45 37 33 33 29 22 27 28 31 32 30 33 32 36 38 33 39 46 44 43 43 41 40 40 41 35 33 30 25 29 20 39 48 48 45 47 48
48 49 49 49 49 50 50 49 49 48 49 40 39 37 30 23 30 30 30 32 33 36 33 36 37 43 45 40 32 33 30 33 36 39 38 39 33 26 23 23 32 38 45 43 41 41 47
48 49 49 49 49 49 48 49 49 49 49 43 38 40 36 27 25 34 30 33 29 30 31 33 39 43 41 34 31 26 25 30 31 35 39 37 36 29 26 21 19 36 46 52 50 36 48
48 48 48 48 48 48 48 49 49 49 49 44 40 43 37 30 32 34 30 30 34 33 29 32 34 36 38 30 25 25 26 34 27 29 29 28 28 26 24 23 28 42 47 50 32 36 47
48 48 48 48 48 48 48 48 48 48 49 45 37 42 36 30 31 38 39 33 34 32 28 34 32 34 33 26 27 27 25 30 30 32 31 31 27 22 25 25 22 44 44 38 42 44 44
47 47 47 47 47 47 48 48 48 48 48 47 37 42 41 34 30 37 41 43 41 39 35 35 32 33 33 30 31 31 24 23 29 24 36 23 32 30 31 30 39 41 42 44 45 42 41

GFSGBSN_sfc_temp_081.txt.gz
Temp
59 59 58 58 58 58 58 58 58 57 57 57 57 57 57 57 57 57 56 56 56 56 56 56 57 57 53 46 50 62 64 63 65 63 62 60 58 56 53 54 55 52 56 59 61 62 62
58 58 58 57 58 57 58 57 57 57 56 57 56 56 56 56 56 56 56 56 55 55 55 56 56 57 48 39 62 62 59 61 64 62 62 62 60 62 57 55 54 56 57 58 59 60 61
58 58 58 57 57 57 57 57 56 56 56 56 56 56 56 56 55 55 55 55 55 55 55 56 57 55 46 47 60 61 59 59 62 63 60 63 64 60 59 54 59 57 52 56 58 58 58
58 58 57 56 56 56 56 56 56 56 56 56 56 55 55 55 55 54 54 54 54 55 57 57 57 53 44 61 63 58 58 59 61 62 62 65 65 61 58 60 56 52 52 46 56 57 60
57 57 57 57 56 56 56 56 56 56 55 55 55 55 55 54 54 54 54 54 55 56 57 57 52 50 44 63 57 63 62 59 61 60 61 67 63 57 55 50 46 46 43 44 49 59 59
57 57 57 57 56 56 56 56 55 55 55 55 55 55 54 54 54 53 53 53 54 56 56 57 55 45 52 55 62 64 62 61 59 57 57 57 55 50 47 46 37 40 41 44 44 54 56
57 57 57 56 56 56 56 56 55 54 54 54 54 54 54 54 53 53 50 50 45 46 46 44 48 49 53 60 64 62 64 61 60 57 49 52 47 42 46 47 49 47 44 43 47 53 50
56 56 55 55 55 55 55 55 54 54 54 54 54 53 53 53 53 52 48 43 42 43 33 46 45 46 52 56 47 55 63 55 53 46 49 46 41 49 50 48 46 45 42 42 48 52 51
55 55 55 55 55 54 54 54 54 53 53 53 53 53 53 52 52 46 43 44 50 47 35 42 50 49 52 53 44 48 56 55 50 46 45 42 47 49 47 46 43 44 41 42 42 49 51
53 53 54 54 54 53 53 53 53 53 53 53 52 53 52 51 46 42 43 49 48 46 33 41 48 52 53 53 43 55 57 55 50 45 45 45 51 48 45 44 46 39 48 46 44 42 37
53 53 53 53 53 52 52 52 52 52 52 52 52 52 52 50 42 40 46 46 48 44 25 46 49 61 55 48 53 51 59 54 46 45 46 43 44 43 43 45 48 43 49 46 45 42 40
53 53 52 53 52 52 52 52 52 52 52 52 52 52 52 46 42 44 44 44 45 33 25 39 49 46 46 50 51 53 53 56 55 48 46 47 50 48 48 49 50 50 46 45 44 41 31
52 52 52 52 52 51 51 51 51 51 51 51 51 51 48 47 39 43 43 43 33 27 41 34 36 41 41 42 46 49 46 45 42 37 37 42 44 48 50 45 48 46 40 33 30 30 33
51 51 52 52 51 51 51 51 51 51 51 51 51 48 44 45 42 42 42 36 25 31 31 40 38 40 39 40 40 42 43 40 45 44 37 36 34 42 48 47 43 42 42 35 25 30 34
51 51 51 52 51 51 51 50 50 51 51 50 47 39 39 42 43 42 36 25 27 30 35 34 37 34 35 39 37 39 39 41 44 46 39 35 36 45 47 48 49 40 36 44 33 37 31
51 51 51 51 51 50 50 50 50 50 50 49 38 36 38 41 43 39 28 28 30 37 37 36 29 34 28 33 34 35 35 44 41 46 49 44 36 45 45 50 48 45 47 34 35 27 27
51 50 50 50 50 50 50 50 50 50 50 48 35 33 42 42 42 32 22 27 32 39 39 33 31 30 32 31 33 33 35 40 40 42 46 46 42 39 45 42 40 40 37 38 37 35 31
50 50 50 50 50 50 50 50 50 50 48 41 33 25 42 43 30 29 26 31 37 35 40 37 36 34 32 33 31 32 33 35 40 38 39 46 41 35 39 47 49 46 41 41 33 31 35
50 50 50 50 49 49 49 49 50 49 47 35 29 30 40 41 23 26 32 32 35 34 35 35 34 37 38 33 28 34 36 41 38 37 37 42 38 32 35 40 43 39 40 40 40 37 32
50 49 50 49 49 49 49 49 49 49 47 36 30 21 32 35 34 29 26 27 29 37 35 37 35 37 34 32 36 31 34 39 39 37 42 42 37 35 33 35 40 36 40 43 38 31 32
49 50 49 49 49 49 49 49 49 49 48 37 33 26 31 23 28 31 31 29 27 28 35 36 33 32 30 28 31 32 36 36 40 40 42 39 31 36 38 39 39 38 39 40 38 39 33
49 49 49 49 49 49 49 49 49 49 47 37 30 28 31 30 31 29 30 29 29 30 31 30 30 33 33 28 30 27 32 34 33 37 35 39 31 34 33 38 38 36 40 40 40 41 41
49 49 49 49 49 49 49 49 49 48 44 33 35 38 32 30 29 25 25 29 30 32 33 35 34 31 30 33 36 36 38 38 37 34 34 37 35 33 30 36 36 33 38 40 41 44 43
49 49 49 49 49 49 49 49 49 49 43 35 34 35 28 23 29 30 31 31 29 31 28 34 35 30 37 40 39 40 39 38 38 37 40 35 37 34 30 32 23 39 47 46 42 45 48
48 48 49 49 49 49 49 49 49 49 47 37 35 33 28 22 31 31 31 31 33 33 31 32 36 41 42 35 30 30 31 32 35 38 39 40 37 31 27 28 35 39 42 40 39 41 46
48 48 48 49 49 49 49 49 49 48 49 43 40 39 34 27 28 34 32 32 28 28 30 32 41 42 36 32 31 25 25 32 30 33 38 38 39 35 29 24 22 37 42 46 46 36 42
48 48 48 48 48 48 48 48 48 48 48 43 41 42 36 29 33 35 31 29 34 31 28 30 32 32 35 30 28 27 29 34 29 30 30 31 32 30 29 27 32 38 43 46 34 33 41
48 48 48 48 48 48 48 48 48 48 49 43 41 42 37 32 35 38 38 33 34 33 27 32 31 31 30 27 29 28 29 31 31 34 33 32 29 28 30 26 24 40 43 35 37 42 38
47 47 48 47 48 48 48 48 48 48 48 46 39 42 42 34 34 38 40 42 41 40 35 34 31 30 32 30 31 32 29 31 30 28 37 30 33 32 34 35 38 38 37 38 41 39 38

GFSGBSN_sfc_temp_084.txt.gz
Temp
60 60 59 59 58 58 58 58 58 57 57 57 57 57 57 57 57 57 56 56 56 56 56 56 57 57 60 58 63 71 64 68 73 72 71 71 68 68 63 66 69 63 67 71 71 70 71
60 59 59 58 58 58 58 58 57 57 57 57 57 56 56 56 56 56 56 56 55 55 55 56 57 57 57 52 71 71 70 71 74 72 71 71 69 71 66 65 64 68 65 67 69 68 69
59 59 58 57 58 57 57 57 56 56 56 56 56 56 56 55 55 55 55 55 55 55 56 57 57 60 55 59 72 73 71 70 72 73 68 72 72 68 67 62 68 65 59 65 67 68 65
58 58 58 57 57 56 56 56 56 56 56 56 56 55 55 55 55 55 55 54 54 55 57 57 57 60 54 69 74 69 72 69 73 73 70 73 74 68 65 67 61 55 60 53 65 66 66
58 58 57 57 56 56 56 56 56 55 55 55 55 55 55 54 54 54 54 54 55 57 57 57 58 56 56 68 65 71 71 67 69 68 70 71 70 64 63 56 53 54 48 53 57 67 66
57 57 57 57 56 56 56 56 55 55 55 55 55 54 54 54 54 53 53 53 55 57 60 62 62 50 60 61 68 69 73 69 66 64 62 62 63 58 58 54 44 48 48 54 52 61 62
57 57 57 57 56 56 56 56 55 54 54 54 54 54 54 54 54 53 57 63 60 55 56 55 57 55 59 67 70 67 71 68 67 63 55 60 54 50 53 54 56 55 51 48 55 60 56
57 57 57 57 56 56 55 55 55 54 54 54 54 54 53 53 53 53 61 53 48 49 45 54 55 54 59 60 51 61 69 60 60 54 59 53 49 59 59 56 52 52 50 51 56 59 56
54 55 56 56 55 55 55 54 54 53 53 53 53 53 53 52 52 56 54 50 56 54 44 52 57 56 58 58 53 56 62 62 57 54 54 51 54 57 55 53 49 50 48 50 50 55 58
54 54 55 55 54 54 54 53 53 53 53 53 52 53 52 51 52 54 53 57 57 54 48 50 54 57 60 59 51 63 63 61 57 52 54 53 59 52 51 50 52 46 55 51 50 48 46
54 54 54 54 53 53 52 53 52 52 52 52 52 52 52 50 52 54 54 57 57 51 36 52 54 66 65 53 58 57 64 58 51 53 52 49 49 50 48 50 54 49 54 51 51 48 48
53 53 53 53 53 52 52 52 52 51 51 52 52 52 51 53 55 55 57 56 54 44 34 46 53 51 53 56 57 59 57 61 60 53 55 53 57 53 54 55 56 55 50 50 51 48 37
53 53 53 53 52 52 52 51 51 51 51 51 51 51 53 56 51 56 55 55 44 38 48 41 42 48 49 48 52 53 52 51 50 42 44 51 50 56 55 51 54 53 46 40 37 34 40
52 52 52 52 52 51 51 51 51 51 51 51 50 48 49 54 55 54 54 49 35 37 38 45 44 47 44 46 48 49 50 49 54 51 47 43 39 50 55 52 50 49 48 41 31 37 44
52 52 52 52 51 51 51 50 50 50 51 50 49 55 55 53 54 55 51 40 38 37 40 39 44 40 42 44 45 47 47 46 51 53 42 42 42 51 52 54 55 46 42 51 39 44 38
52 52 51 51 51 51 50 50 50 50 50 48 54 52 50 53 54 53 46 36 38 42 42 41 34 39 35 40 40 43 44 44 39 46 48 48 40 50 51 53 53 50 54 37 41 31 33
51 51 51 51 50 50 50 50 50 50 49 48 51 47 51 55 53 50 36 37 38 44 43 38 36 35 37 36 39 39 41 45 41 42 44 51 48 44 49 45 46 44 41 42 41 39 36
50 51 51 50 50 50 50 50 50 50 49 49 47 38 52 53 42 44 38 37 39 41 44 41 41 39 37 39 37 37 38 43 44 40 35 48 46 41 44 51 56 52 47 46 39 35 39
50 51 50 50 50 50 50 50 50 50 48 50 43 45 54 50 32 36 38 37 39 39 40 39 38 41 43 38 32 39 41 47 46 38 34 36 43 37 39 45 50 46 46 43 42 42 37
50 50 50 50 50 50 50 50 50 49 48 51 43 33 45 48 45 36 30 32 34 42 40 41 40 42 38 37 42 35 39 45 43 43 41 37 38 42 37 40 47 41 45 48 44 37 39
50 50 50 50 50 49 49 49 49 49 48 51 43 35 40 32 36 38 37 34 26 32 41 42 39 35 34 31 35 35 39 38 43 42 34 37 35 40 44 45 46 45 45 46 44 45 39
50 49 50 49 49 49 50 49 49 49 48 49 35 40 44 40 38 36 35 35 33 35 34 35 34 39 38 33 35 32 37 37 35 37 33 35 33 34 33 44 44 41 46 47 47 47 48
49 49 49 49 49 49 50 49 49 49 48 47 41 46 44 36 37 35 34 33 34 37 38 40 38 36 36 39 42 43 43 40 36 33 33 35 38 34 28 41 41 37 43 45 46 49 49
49 49 49 50 49 50 49 49 49 49 48 52 48 47 40 33 39 38 36 37 35 37 34 40 41 35 42 49 47 46 46 44 41 40 39 34 37 42 35 37 27 43 52 51 48 49 47
49 49 49 50 49 49 49 49 49 49 47 52 49 47 41 34 41 37 37 37 39 40 38 39 43 46 49 40 31 35 37 37 39 40 41 43 40 37 33 34 40 43 45 44 43 44 47
48 49 49 49 49 49 49 49 49 49 48 50 49 50 45 36 38 39 37 39 35 36 37 37 46 48 41 32 31 28 30 35 33 36 43 45 44 39 35 25 26 41 48 52 51 39 49
48 49 48 48 49 49 49 49 49 49 49 48 44 49 41 33 43 41 35 35 39 37 35 38 38 38 38 31 29 27 30 41 33 33 34 37 39 35 35 32 39 44 49 53 36 35 45
48 48 48 48 48 48 48 48 48 48 49 48 45 47 39 35 43 43 43 37 37 37 33 40 37 35 33 29 30 31 35 39 38 40 38 37 36 35 37 32 28 45 48 39 39 43 40
48 47 48 48 47 48 48 48 48 48 48 48 43 47 44 36 37 45 46 48 47 46 39 41 35 31 34 31 33 35 34 37 36 33 44 33 36 37 41 37 39 40 39 41 40 37 37

GFSGBSN_sfc_temp_087.txt.gz
Temp
61 61 60 60 59 59 59 59 59 58 57 57 57 57 57 57 57 57 57 56 56 56 56 57 57 57 61 63 68 74 66 68 76 75 74 74 71 71 67 71 74 70 73 75 77 77 76
59 59 59 59 59 59 59 59 58 57 57 57 57 57 56 56 56 56 56 56 55 55 56 56 57 57 58 57 79 79 78 77 78 77 76 77 74 77 71 71 70 73 74 72 74 75 76
58 58 58 58 58 58 58 58 57 57 57 56 56 56 56 56 56 55 55 55 55 55 56 56 58 61 61 64 80 81 78 76 80 79 74 78 79 73 73 67 73 70 64 68 71 72 71
58 57 57 57 57 57 57 57 57 56 56 56 56 56 55 55 55 55 55 54 54 55 56 58 58 64 59 77 81 77 79 76 78 79 77 79 79 73 70 73 68 61 62 56 70 73 73
57 57 57 57 57 56 56 56 57 56 55 55 55 55 55 54 54 54 54 54 55 57 57 58 61 62 60 68 71 77 77 72 76 76 76 78 74 67 68 61 57 60 53 57 63 70 68
57 57 56 56 56 56 56 56 56 55 55 55 55 55 55 54 54 53 53 53 57 56 60 68 68 57 66 66 72 74 79 75 71 70 67 66 67 61 62 60 48 53 56 60 59 67 67
56 56 56 56 56 57 57 57 55 55 55 54 54 54 54 54 54 53 56 66 60 58 63 61 62 61 65 73 75 71 77 72 71 66 58 63 57 54 57 59 60 58 57 57 62 68 62
56 56 55 56 57 57 57 57 55 55 54 54 54 54 54 53 53 53 60 62 56 55 52 63 62 62 66 67 59 67 75 63 63 57 63 60 52 62 64 62 57 55 53 54 61 65 63
55 55 56 57 57 56 56 55 54 54 53 53 53 53 53 53 53 57 61 57 63 61 52 59 64 62 63 65 60 63 68 65 60 58 59 55 60 64 61 59 55 54 52 53 55 60 63
54 54 55 56 56 55 55 54 54 53 53 53 53 53 52 52 51 62 60 63 64 60 49 54 58 62 66 65 58 69 70 65 61 56 59 59 64 60 56 55 58 50 61 57 54 51 47
53 54 55 55 54 54 53 53 53 53 52 52 52 52 52 52 58 62 60 64 63 55 39 57 59 71 69 61 63 62 70 63 56 58 57 54 57 55 54 55 59 53 61 55 55 52 51
52 53 53 54 53 53 53 52 52 52 52 52 52 52 52 59 61 62 64 62 59 45 37 50 58 55 57 61 61 64 63 65 64 57 59 58 66 60 58 60 59 61 55 54 53 52 42
51 52 52 52 53 52 52 52 51 51 51 51 52 52 53 61 58 62 61 58 46 40 54 47 48 52 54 54 55 57 57 56 53 46 48 55 56 62 61 54 59 56 49 39 38 37 37
51 52 52 53 52 52 52 51 51 51 51 51 51 50 52 63 63 61 59 52 38 46 46 52 50 52 49 53 53 54 54 52 60 57 51 48 44 58 62 55 52 51 50 40 32 36 41
52 52 52 52 52 52 51 51 51 51 51 50 50 57 60 60 61 60 53 43 44 46 47 45 49 47 48 50 48 51 52 52 54 51 40 44 46 58 58 61 57 52 45 56 44 47 41
52 52 52 52 52 51 51 51 50 51 50 50 57 57 57 59 60 57 50 41 45 48 47 47 39 45 41 45 44 47 47 52 46 49 51 48 42 55 57 59 59 56 56 41 43 32 33
52 52 51 51 51 51 50 50 50 50 50 50 54 53 56 61 59 55 39 44 44 49 48 43 41 40 42 40 43 43 44 49 49 47 49 48 45 48 56 50 48 49 45 46 47 45 37
51 51 51 51 51 51 50 50 50 50 50 47 54 44 58 59 49 52 47 44 40 46 48 46 46 44 42 43 41 41 42 48 50 49 41 41 37 40 46 57 58 52 49 49 39 41 46
50 51 51 51 51 50 50 50 50 50 49 56 53 52 59 55 37 45 44 43 45 44 44 44 43 45 47 42 36 43 44 52 52 46 39 39 36 34 43 47 54 49 50 50 48 46 39
50 50 51 50 50 50 50 50 50 50 49 52 51 38 51 56 54 43 37 39 40 46 45 46 45 47 43 40 45 38 41 47 49 49 43 37 35 36 37 42 47 46 50 50 47 38 42
50 50 50 50 50 50 50 50 50 50 49 52 51 42 48 38 45 44 43 40 36 37 45 47 44 41 38 35 38 39 42 44 48 43 38 36 30 36 45 46 46 45 46 48 45 47 42
50 50 50 50 50 50 50 49 50 50 49 53 38 48 49 45 42 41 37 40 38 40 39 40 39 43 43 37 39 36 41 42 38 43 37 38 32 31 39 49 49 45 50 50 50 50 50
50 50 50 50 50 50 50 50 49 49 49 54 53 54 50 41 43 40 40 39 39 41 42 45 43 41 39 43 46 47 47 47 44 39 34 32 32 32 33 41 44 38 47 49 50 53 51
49 49 50 50 50 50 50 50 49 49 48 58 56 56 46 39 45 43 41 41 39 41 38 44 45 40 47 54 51 50 48 47 46 43 43 34 31 32 33 37 26 43 55 54 51 50 51
49 49 50 50 50 50 49 49 49 49 48 55 57 52 46 40 46 42 41 41 43 45 43 44 47 50 52 46 35 37 40 40 42 45 43 41 34 35 33 28 39 46 48 48 46 42 48
49 49 49 49 49 49 49 49 49 49 49 51 54 53 48 39 43 44 42 43 39 39 41 42 50 52 47 36 31 28 30 37 35 40 48 45 44 37 39 31 28 38 51 55 54 39 47
49 49 49 49 49 49 49 49 49 49 49 50 49 54 49 37 50 46 41 38 43 41 36 42 42 41 44 34 30 29 31 43 34 35 35 38 40 36 37 35 41 47 52 55 37 34 43
48 48 48 48 48 49 48 49 49 49 49 48 48 53 46 40 47 49 48 41 41 41 35 41 40 37 37 31 32 34 32 40 40 42 40 39 37 37 40 35 30 47 50 40 39 44 41
48 48 48 48 48 48 48 48 49 49 49 49 44 53 50 37 44 49 50 52 48 46 42 44 38 34 36 32 35 35 33 38 38 34 45 35 39 37 38 33 41 43 40 42 41 35 37

GFSGBSN_sfc_temp_090.txt.gz
Temp
62 62 61 61 60 60 60 59 59 59 58 58 58 57 57 57 57 57 57 56 56 56 57 57 57 58 59 59 64 70 67 68 73 72 71 72 70 69 64 69 71 68 72 75 76 76 76
60 61 60 60 60 59 59 59 59 58 58 58 57 57 57 57 57 56 56 56 56 56 56 56 57 57 56 52 81 81 77 78 76 76 74 75 73 75 69 68 67 71 72 72 75 74 75
60 60 59 58 58 58 59 58 58 58 58 57 57 56 56 56 56 56 56 55 55 55 56 56 57 60 59 61 81 83 80 76 79 78 73 78 78 72 72 65 72 70 63 67 69 71 69
59 59 58 57 57 57 57 57 57 57 57 57 57 56 56 55 55 55 55 54 54 55 56 58 58 62 57 79 81 77 80 77 79 79 77 78 79 72 68 71 67 62 62 53 65 69 71
59 58 58 57 56 56 56 56 56 57 57 57 56 55 55 55 54 54 54 54 55 56 58 58 58 61 58 72 72 78 79 73 77 77 76 78 74 65 66 58 55 58 50 54 59 70 69
58 58 58 57 56 56 56 56 56 56 56 56 55 55 55 54 54 54 53 54 58 56 59 67 69 58 64 66 74 76 78 76 71 71 68 66 64 58 59 55 44 50 53 57 57 66 67
58 58 57 57 57 56 56 56 56 55 56 56 55 55 54 54 54 53 54 65 57 54 61 60 62 60 66 74 76 72 76 73 70 67 56 62 54 50 56 59 59 58 55 54 59 64 60
57 57 57 57 56 56 56 57 56 55 55 55 54 54 54 54 53 53 56 61 58 57 51 66 66 65 69 70 61 70 76 64 62 55 62 58 50 59 63 63 60 57 53 51 57 61 60
56 56 56 56 56 56 57 57 56 55 55 54 54 53 53 53 53 54 61 59 66 63 49 61 65 65 66 67 62 65 69 65 59 56 57 53 59 65 62 58 56 56 52 52 52 57 60
54 55 55 55 55 56 56 55 55 54 54 53 53 53 52 52 50 62 59 65 65 61 45 53 58 64 67 68 59 72 72 65 61 55 58 58 64 61 59 55 58 50 60 58 55 52 43
53 53 53 54 54 53 53 54 54 54 53 53 52 52 52 53 53 59 61 65 64 57 35 58 59 72 68 61 64 65 72 65 55 57 59 53 57 56 55 57 60 53 60 57 55 51 49
52 53 53 52 51 52 53 53 53 52 52 52 52 52 52 56 56 63 64 63 58 41 35 51 60 57 58 63 63 67 65 67 65 58 59 57 66 62 59 62 61 62 56 55 54 49 37
51 52 51 51 51 52 52 52 52 52 52 52 52 52 51 59 55 63 61 56 42 38 56 50 51 55 54 54 58 58 58 56 52 45 47 55 56 62 63 54 59 57 49 37 35 35 35
51 51 50 50 50 51 52 51 51 51 51 52 52 51 56 63 63 61 58 49 36 49 50 55 53 53 49 55 56 55 53 50 58 54 49 45 43 58 62 56 51 52 50 38 28 32 38
50 50 50 50 51 51 51 51 51 51 51 51 50 55 57 59 61 60 51 40 43 47 50 47 50 47 49 54 51 50 50 50 54 51 41 41 44 58 61 62 59 51 40 53 41 42 37
50 50 51 51 51 51 51 50 51 51 51 51 51 55 56 60 61 55 47 42 47 52 50 49 40 47 41 46 45 46 47 53 49 52 52 46 36 53 56 54 60 55 58 40 41 28 30
52 52 52 51 51 51 50 50 50 50 50 50 49 50 55 61 58 50 39 45 48 52 50 45 44 42 43 42 44 43 44 51 51 50 52 47 41 43 52 43 47 50 47 46 43 41 32
51 51 51 51 51 51 51 50 50 50 50 48 52 43 57 59 45 49 44 47 42 49 51 48 47 45 43 44 41 41 41 47 50 49 42 42 37 33 42 54 52 45 51 48 33 36 42
51 51 51 51 51 50 50 50 50 50 50 50 50 50 58 54 37 43 46 46 47 46 47 46 44 47 48 42 37 43 44 52 49 47 42 43 36 29 39 48 46 43 47 47 47 43 35
50 50 50 50 50 50 50 50 50 50 50 49 49 38 49 52 52 44 41 42 42 48 46 48 46 48 45 41 45 40 41 45 49 49 42 40 36 33 28 36 40 33 42 49 43 33 37
50 50 50 50 50 50 50 50 50 50 50 48 49 43 48 38 44 46 44 42 39 39 47 49 45 44 41 36 38 38 43 45 49 43 39 35 29 37 41 42 41 41 38 47 44 43 34
50 50 50 50 50 50 50 50 50 50 50 49 39 46 49 45 45 44 39 42 41 43 42 41 41 45 45 39 40 36 41 41 39 45 36 41 29 33 32 42 43 36 43 41 40 40 43
50 50 50 50 50 50 50 49 49 50 49 52 53 55 50 43 44 41 40 42 41 43 44 46 45 42 40 43 47 47 48 47 45 40 36 36 32 31 27 37 38 31 44 46 49 48 47
50 50 50 50 50 50 50 49 49 49 49 50 54 54 46 38 45 44 43 44 41 44 40 45 46 41 47 53 52 49 47 46 46 45 46 36 32 31 27 29 25 44 56 54 45 45 48
49 49 50 50 50 50 50 49 49 49 49 50 56 50 47 38 48 44 43 44 46 47 44 45 48 51 52 47 36 34 37 40 41 45 44 43 34 28 27 27 39 43 49 48 45 36 45
49 49 50 50 49 49 49 49 49 49 49 51 53 54 48 39 42 48 43 45 40 40 41 43 51 53 48 37 32 26 27 30 33 40 48 44 37 30 31 28 25 34 48 55 54 33 42
49 49 49 49 49 49 49 49 49 49 49 49 49 54 48 36 48 48 42 40 45 41 37 42 42 43 45 33 28 28 30 41 31 34 33 34 33 30 30 32 32 40 48 53 36 31 40
49 49 49 49 49 49 49 49 49 49 49 50 48 53 46 39 45 50 50 44 43 41 34 40 39 37 37 30 30 30 28 36 37 41 36 35 34 34 37 34 26 43 45 36 35 37 38
48 48 48 48 48 48 48 49 49 49 49 49 45 53 54 43 44 50 51 52 50 49 43 43 38 34 36 32 34 32 29 36 36 29 45 31 37 33 33 31 38 42 39 40 39 36 36

GFSGBSN_sfc_temp_093.txt.gz
Temp
63 63 62 62 61 61 61 60 59 59 58 58 58 58 58 58 58 57 57 56 56 56 56 57 57 57 54 49 53 66 66 66 67 67 64 64 60 59 54 59 61 59 62 66 68 69 69
62 62 62 61 61 60 60 60 59 58 58 58 57 57 57 57 57 57 56 56 56 56 56 56 57 57 48 43 70 70 68 67 68 66 65 66 64 66 62 61 58 63 63 63 63 63 65
63 61 61 60 60 59 59 59 59 58 58 57 57 57 56 56 56 56 56 56 55 55 56 56 57 56 51 51 69 68 72 69 70 69 65 70 69 63 62 57 65 63 55 59 60 60 62
62 61 60 59 59 58 57 57 57 57 57 57 57 56 56 55 55 55 55 55 55 55 56 56 58 54 46 69 65 67 69 68 72 71 69 69 69 62 59 61 59 52 52 45 56 60 64
61 61 60 59 58 57 57 57 57 57 57 57 57 56 55 55 54 54 54 54 54 55 57 57 52 50 49 70 66 72 70 68 71 70 68 75 65 56 57 48 43 46 40 44 51 61 60
61 61 59 58 57 56 56 56 56 56 57 56 56 56 55 55 54 54 53 54 54 56 57 61 60 48 58 62 71 72 70 72 66 65 62 59 53 47 46 41 34 39 41 43 45 52 55
61 60 59 58 57 57 57 57 56 56 56 56 56 55 55 54 54 54 51 51 47 45 51 51 53 55 61 68 71 66 70 67 65 59 48 54 43 39 44 48 50 49 47 45 49 56 52
60 60 59 57 57 56 57 56 55 55 55 55 55 54 54 54 54 53 50 47 52 50 41 58 58 60 66 66 58 65 70 57 55 48 53 49 42 51 55 54 52 50 47 45 50 56 52
59 58 57 57 56 56 56 56 55 54 55 55 54 54 54 53 53 50 50 54 60 57 41 54 61 61 63 65 58 61 66 60 53 49 49 44 51 59 55 52 51 50 47 46 47 51 52
58 57 56 56 56 55 55 55 55 54 54 54 53 53 52 52 46 51 51 58 58 56 37 50 55 61 65 64 56 69 69 60 55 49 51 49 56 55 53 52 54 45 54 53 52 46 37
56 55 55 55 54 54 54 54 54 54 54 53 52 52 52 52 43 47 54 57 56 49 27 53 57 70 66 59 59 61 69 60 50 50 51 46 50 50 49 51 56 49 56 52 49 43 40
54 54 54 53 53 53 52 52 53 52 52 51 52 52 52 50 46 53 56 53 49 34 28 49 57 55 54 58 58 61 60 61 60 52 52 50 58 54 52 57 56 57 51 50 46 41 32
52 52 52 52 51 51 52 52 51 51 51 51 51 52 50 55 47 54 52 47 34 28 54 46 50 54 52 50 52 55 52 48 43 38 39 48 50 56 58 50 54 48 42 28 26 27 29
51 51 50 50 50 51 51 51 50 51 51 51 51 51 51 53 54 53 48 39 29 47 45 54 50 49 45 49 50 51 47 41 49 45 39 37 34 48 57 52 46 45 42 29 23 25 32
50 49 49 49 49 49 50 50 50 50 50 51 51 45 47 51 54 51 41 31 34 43 47 45 47 43 44 49 47 46 43 43 45 45 34 34 38 51 53 56 51 45 39 47 35 37 31
50 50 50 50 49 49 49 49 49 49 50 51 43 45 46 52 53 45 35 37 43 49 48 48 39 45 38 40 40 40 41 48 45 47 47 41 31 46 51 52 52 46 51 32 33 26 24
49 50 49 49 49 50 50 50 50 50 50 50 41 39 47 54 50 39 28 38 47 50 49 43 40 39 39 38 39 38 41 46 45 45 45 39 36 36 43 41 40 45 40 43 41 35 26
50 50 50 50 51 50 50 50 50 50 50 46 40 33 49 51 36 38 33 44 45 48 50 47 46 43 39 40 38 37 37 41 46 45 38 39 33 27 33 45 48 46 39 36 29 31 35
50 50 50 51 51 50 50 50 50 50 50 42 38 39 48 46 28 31 42 45 47 46 46 45 42 45 44 38 31 39 40 45 47 43 36 38 29 23 29 38 43 38 38 36 35 41 32
50 50 51 51 50 50 50 50 50 50 50 43 38 30 38 41 41 36 36 39 40 47 45 46 44 44 40 37 41 36 37 45 46 44 43 39 31 29 22 30 38 33 38 40 34 31 34
50 50 50 50 50 50 50 50 50 50 50 42 38 34 39 28 33 38 40 40 38 38 45 46 41 41 38 32 34 32 39 40 44 44 37 32 26 31 33 36 36 37 38 39 33 36 32
50 50 50 50 50 50 50 50 50 50 50 39 33 35 39 37 41 38 36 38 39 40 39 38 36 40 38 32 34 31 35 35 34 39 34 33 25 28 27 35 37 34 37 36 36 36 36
50 50 50 50 50 50 50 50 50 50 48 39 42 45 39 39 36 30 30 38 39 41 42 45 41 37 35 38 40 40 40 40 38 34 26 30 25 23 19 34 33 27 37 38 38 38 38
50 50 50 50 50 50 49 49 49 49 48 40 41 41 35 28 34 38 42 42 39 41 35 42 42 35 43 47 44 42 41 41 40 38 39 30 28 27 23 27 21 37 49 43 37 38 41
49 50 50 50 50 50 49 49 49 49 50 41 44 40 35 28 40 41 41 41 41 41 39 41 44 45 45 39 29 27 28 32 35 38 38 38 31 25 23 24 31 33 38 40 37 32 39
49 49 50 49 49 49 49 49 49 49 50 43 43 44 39 30 31 46 39 39 30 30 32 37 44 45 41 26 23 22 22 29 27 36 41 41 38 27 27 23 23 30 39 45 47 28 38
49 49 49 49 49 49 49 49 49 49 50 44 42 45 38 28 39 42 33 32 38 32 26 32 35 34 38 22 17 20 24 36 26 28 31 30 30 25 25 24 30 35 40 45 29 28 36
48 49 48 48 48 48 48 49 49 49 49 44 41 45 38 30 37 43 44 36 36 34 24 32 29 31 28 23 27 22 21 29 31 33 34 31 28 28 29 27 23 37 39 31 34 36 36
48 48 48 48 48 48 48 48 48 48 49 47 38 45 46 33 34 42 43 45 42 40 35 35 31 28 30 24 28 29 26 29 30 27 37 29 33 29 31 28 33 37 34 37 38 35 34

GFSGBSN_sfc_temp_096.txt.gz
Temp
64 64 63 63 62 62 62 61 60 59 59 59 59 58 58 58 58 58 57 57 57 57 57 57 57 57 52 47 50 65 67 66 64 64 61 59 56 54 49 53 54 53 57 61 64 64 64
63 63 63 62 62 62 62 61 60 59 58 58 58 58 58 58 57 57 57 56 56 56 56 56 57 57 48 42 66 69 65 63 64 60 61 60 59 60 56 55 51 58 59 58 60 59 59
64 62 62 61 61 61 61 60 59 59 58 58 57 57 57 57 57 56 56 56 55 55 56 56 57 56 47 48 63 62 67 64 63 63 60 63 63 57 57 53 59 57 51 53 54 56 55
63 63 62 61 60 59 59 58 58 58 58 58 57 57 56 56 56 55 55 55 55 55 55 56 57 55 45 65 62 62 62 62 67 67 65 66 64 59 55 57 55 49 48 41 52 57 59
63 63 62 61 60 59 58 58 57 57 57 57 57 57 56 55 55 55 55 54 54 55 56 57 50 50 45 66 61 67 67 64 66 66 64 72 61 54 53 44 40 42 37 41 46 56 54
63 63 62 61 60 59 58 57 57 56 56 55 56 56 55 55 54 54 53 54 54 54 55 59 56 46 52 58 67 69 67 69 63 61 59 56 50 44 43 39 31 36 38 37 40 48 49
63 62 62 61 60 59 58 57 56 55 55 56 56 56 55 54 54 54 51 45 47 44 47 46 48 50 58 64 66 64 67 63 60 55 45 50 41 37 41 43 46 45 43 41 46 51 49
62 62 62 61 60 58 58 57 55 55 55 55 56 55 54 54 54 53 49 42 49 48 39 53 53 55 60 62 56 61 66 55 52 44 48 44 38 48 51 49 47 45 42 41 48 53 50
60 61 61 60 59 57 57 56 55 55 55 55 55 54 54 53 53 48 45 49 56 53 37 49 55 55 58 62 55 57 62 56 50 46 46 41 48 55 51 48 46 46 42 43 44 48 47
59 59 59 59 58 57 56 56 54 54 54 54 54 53 53 52 48 46 48 57 55 52 32 46 52 58 62 62 53 65 66 59 52 47 48 45 53 51 49 47 49 41 51 50 48 41 36
58 58 58 57 56 55 54 54 54 54 54 53 52 53 52 52 41 46 54 53 53 47 26 50 54 68 63 56 57 58 66 58 49 49 47 43 46 46 44 46 51 46 52 49 47 40 37
57 57 57 55 54 53 53 53 53 53 53 53 52 52 52 49 45 49 52 53 49 32 27 46 55 53 52 55 55 58 57 59 57 49 48 46 52 50 48 53 52 53 48 45 42 39 31
55 55 54 53 53 53 52 52 52 52 52 51 51 51 50 51 44 52 51 46 32 29 51 44 46 53 50 48 49 51 48 44 40 35 35 43 44 49 53 46 49 47 39 28 25 23 28
51 51 51 51 51 51 51 50 50 51 51 50 50 50 49 51 51 51 47 38 29 42 42 50 49 47 43 46 46 46 43 38 43 41 34 31 31 43 50 45 41 42 44 32 23 23 28
51 50 50 50 50 50 50 49 49 50 50 50 50 43 43 48 51 49 40 31 34 41 46 44 46 39 41 45 44 43 40 40 42 41 33 31 33 46 50 49 47 42 35 43 35 36 30
50 49 49 49 49 49 49 49 49 48 48 49 41 42 44 51 50 45 36 36 40 47 48 46 37 41 34 38 38 38 39 43 41 44 42 37 29 42 45 48 49 46 47 32 30 24 23
50 50 49 49 48 48 48 49 48 48 48 49 40 37 47 51 49 39 28 35 43 49 48 41 39 37 37 36 37 36 38 40 42 42 41 36 33 34 40 37 35 37 35 37 37 34 26
49 49 49 49 48 48 49 49 49 49 50 46 39 32 47 49 36 36 33 42 46 47 48 46 43 41 38 38 36 35 35 39 44 42 35 37 31 26 31 41 44 40 37 36 29 29 32
50 50 50 50 50 49 49 49 49 49 49 41 37 37 47 46 28 30 41 43 45 44 44 43 41 42 42 36 30 36 37 44 44 40 34 36 28 22 28 34 40 36 38 37 34 33 30
50 50 50 51 50 49 49 50 50 50 50 42 36 30 37 39 39 35 35 38 38 45 43 45 42 42 37 34 38 33 35 42 44 40 44 39 30 28 22 27 32 29 34 37 34 26 30
48 50 50 50 50 50 50 50 50 50 50 41 36 32 38 28 33 37 38 38 36 36 43 42 38 37 35 31 32 31 35 36 40 43 35 32 24 28 31 33 33 32 32 34 33 35 29
50 50 50 50 50 50 49 49 49 50 50 39 31 34 37 36 39 36 35 36 37 38 37 36 33 37 35 30 31 29 32 31 31 37 30 33 20 27 27 33 34 31 35 36 37 37 36
50 50 50 50 50 50 49 49 49 50 48 38 39 42 38 37 35 31 30 37 37 38 40 42 38 34 33 35 37 37 37 37 35 32 25 27 23 22 19 30 30 23 32 37 35 35 36
50 50 50 50 50 49 49 49 49 50 46 39 39 39 32 27 33 35 39 40 37 39 34 40 39 33 40 43 41 39 37 38 37 35 35 28 22 23 21 27 17 32 43 41 34 33 34
49 49 50 50 50 49 49 49 49 50 50 41 40 38 33 26 38 39 40 37 37 37 35 37 40 42 41 36 28 26 26 30 33 34 34 35 27 22 21 22 28 30 33 32 33 29 34
49 49 49 49 49 49 48 49 49 50 50 42 40 40 37 30 31 42 34 36 29 27 29 33 40 41 37 24 21 21 21 26 25 32 37 35 35 26 24 21 19 28 32 39 39 26 34
49 49 49 49 49 48 48 48 49 49 50 42 40 41 37 28 36 38 31 30 34 29 24 29 33 32 34 18 18 21 22 33 24 26 28 27 28 23 23 23 28 31 35 41 28 26 32
48 49 49 48 48 48 48 48 48 49 49 43 39 41 36 27 34 40 41 33 33 30 22 30 27 28 26 21 21 21 16 28 26 32 31 29 26 26 26 24 21 34 36 30 32 33 33
48 48 48 48 48 48 48 48 48 48 49 46 36 42 42 32 34 39 41 42 41 39 32 31 29 28 31 23 28 28 25 27 28 24 34 26 29 27 28 25 31 33 32 35 36 33 31

GFSGBSN_sfc_temp_099.txt.gz
Temp
64 64 63 63 63 62 62 62 61 60 59 59 59 59 59 59 59 58 57 57 57 57 57 57 57 57 51 47 50 63 67 66 63 61 59 57 53 51 47 49 50 48 52 56 58 59 58
63 63 63 63 62 62 62 62 61 60 59 59 59 58 58 58 58 58 57 56 56 56 56 56 57 57 47 42 63 66 65 62 62 60 59 58 56 57 53 52 49 54 54 54 55 56 56
62 62 63 62 62 62 62 61 60 60 59 59 58 58 57 57 57 57 56 56 55 55 56 56 56 55 47 47 60 62 66 62 62 62 59 61 61 54 54 51 56 55 48 50 52 53 53
61 61 62 62 62 61 60 60 60 59 58 57 57 57 56 56 56 56 55 55 55 55 56 56 57 54 43 62 57 58 59 60 63 63 63 63 62 57 53 55 52 46 45 39 49 52 56
60 61 61 62 62 61 60 60 59 58 57 57 57 56 56 55 55 54 54 54 54 55 56 56 51 50 42 62 57 63 62 61 63 62 61 69 59 52 51 44 39 39 35 38 44 52 51
60 60 60 61 62 60 60 60 58 58 57 56 56 56 55 54 54 54 53 54 54 53 54 56 55 44 50 55 63 66 61 64 60 59 56 53 48 43 40 38 31 34 35 33 36 45 45
60 60 61 61 61 61 61 60 58 57 56 56 55 55 54 54 54 53 50 45 43 41 44 45 46 46 52 60 63 60 64 61 58 53 43 47 40 36 40 41 43 41 39 37 40 48 43
59 59 60 61 61 61 60 60 58 56 56 55 55 55 54 54 54 53 46 43 48 49 39 49 51 51 56 57 51 58 64 54 50 43 45 41 36 45 48 46 43 41 38 37 43 48 45
59 59 60 60 61 61 60 60 57 55 55 55 55 54 54 54 53 49 45 47 58 52 37 46 50 50 53 57 50 53 59 53 47 43 43 38 44 50 47 44 42 41 38 39 40 46 45
58 58 58 60 61 60 59 58 56 55 54 54 54 53 53 52 47 47 46 56 55 51 31 42 46 52 56 58 50 62 62 56 48 44 44 42 49 48 44 43 45 37 47 46 44 39 33
55 57 58 59 59 59 58 56 55 55 54 53 53 53 52 53 44 44 53 53 51 46 25 48 49 63 59 52 53 54 63 55 46 46 45 42 44 44 42 44 48 43 50 46 44 37 35
55 57 57 58 58 56 55 54 54 53 53 53 52 51 51 49 45 49 51 52 47 32 26 44 52 50 48 52 53 55 55 57 54 47 45 45 50 48 47 50 49 50 45 43 39 35 28
53 56 57 57 56 55 54 53 52 52 52 51 51 52 50 51 44 50 50 44 32 26 48 42 45 50 49 46 47 49 47 43 40 36 34 40 43 46 49 42 46 42 36 26 24 23 28
51 52 53 53 53 53 52 52 51 50 51 51 51 50 49 50 49 48 46 36 27 39 41 48 48 48 42 42 43 44 42 37 42 40 33 30 30 40 47 42 38 38 37 27 23 23 25
52 51 51 50 50 50 50 50 49 49 49 50 50 43 43 47 49 46 39 29 33 40 46 44 45 40 38 44 42 42 38 36 38 39 32 30 31 44 45 45 42 38 32 39 32 31 28
51 51 51 50 49 49 49 48 49 49 50 49 41 40 42 50 49 44 36 34 39 46 46 46 37 40 34 37 37 37 37 39 38 41 41 35 28 39 42 45 44 40 42 28 31 22 23
50 50 50 49 49 48 48 48 49 49 49 48 40 37 45 49 48 39 28 34 42 48 48 41 39 35 36 34 35 35 35 38 40 39 40 35 32 32 38 34 32 33 32 34 33 31 25
50 50 49 49 49 48 48 48 49 49 49 45 38 32 46 49 36 35 31 42 46 46 48 44 42 40 36 35 33 33 33 37 42 40 33 35 31 25 29 39 41 36 32 33 18 23 28
50 49 49 48 48 48 49 49 49 50 50 40 37 36 44 46 29 30 39 42 44 43 42 41 39 40 40 35 30 35 36 43 43 38 33 35 27 22 27 32 36 32 35 35 33 32 25
50 50 50 49 48 48 50 49 50 50 50 42 36 28 35 39 38 35 35 37 37 44 41 42 40 41 37 33 36 33 33 40 41 39 44 39 30 27 22 27 29 26 31 34 30 19 24
50 50 50 50 50 49 50 50 50 50 50 42 36 32 38 29 33 36 38 38 35 35 41 41 36 35 34 30 31 30 32 34 38 42 33 31 24 28 30 31 31 29 29 31 29 30 23
50 50 50 50 50 50 49 49 50 50 50 40 33 34 36 35 38 36 35 35 35 36 36 34 33 36 34 30 31 28 31 31 30 34 29 31 20 26 26 31 31 28 31 32 33 33 33
50 50 50 50 50 50 49 49 50 50 48 38 38 40 37 34 33 31 29 35 36 37 39 40 36 33 32 33 35 36 36 35 34 31 25 26 23 21 17 29 28 22 29 32 34 34 36
50 50 50 50 49 50 49 49 49 49 47 41 38 37 33 27 32 33 38 38 36 37 34 37 37 32 37 41 39 37 34 34 34 33 35 27 22 21 18 23 14 30 34 37 33 32 34
49 50 50 50 49 49 49 49 49 50 49 40 38 38 33 25 36 37 37 35 35 35 33 34 37 39 38 35 28 26 26 29 31 32 32 33 27 15 14 17 27 30 31 30 30 27 31
49 49 50 49 49 48 48 49 49 50 49 40 39 40 37 31 30 39 33 34 28 27 29 33 38 38 34 23 21 21 20 26 19 30 34 33 32 19 19 18 17 26 31 35 35 24 31
49 49 49 49 48 48 48 49 49 50 50 42 39 39 37 29 35 37 32 30 32 28 24 28 31 31 33 17 16 17 21 31 23 25 25 25 24 22 22 19 26 29 31 34 26 24 30
48 48 48 48 48 48 48 48 49 49 49 43 39 40 37 29 34 39 39 33 31 29 22 29 26 26 24 18 22 21 22 27 26 28 29 27 25 23 23 21 20 32 32 28 30 31 30
48 48 48 48 48 48 48 48 48 49 49 45 37 41 40 33 34 37 39 40 39 37 31 30 27 30 31 23 27 28 25 26 26 23 32 24 27 26 26 24 30 32 30 33 34 32 30

GFSGBSN_sfc_temp_102.txt.gz
Temp
61 62 62 62 63 63 63 62 62 60 60 60 60 60 60 60 60 59 58 57 56 57 57 57 57 57 50 46 51 61 66 65 61 60 57 55 52 50 46 48 48 47 50 54 55 56 54
60 60 61 61 62 62 62 62 62 60 60 60 59 59 59 59 59 58 57 56 56 56 56 56 56 57 45 42 61 62 62 60 59 57 56 57 55 55 51 49 48 52 51 53 53 54 53
60 60 60 60 60 61 62 61 61 60 60 59 59 58 58 58 58 57 57 56 55 55 56 56 56 54 45 50 57 58 60 58 58 59 55 59 59 52 51 49 54 53 46 48 50 51 51
59 59 59 59 60 60 61 61 61 60 60 59 59 58 57 56 56 56 56 55 55 55 55 56 56 51 41 59 54 55 55 58 61 60 60 60 59 54 51 54 51 44 42 37 48 49 53
59 59 59 59 59 59 60 61 60 60 60 59 58 57 55 55 55 54 54 54 55 55 56 56 51 46 40 60 54 60 59 58 60 59 59 66 57 50 48 42 37 37 32 36 42 51 48
59 59 59 59 59 59 60 60 61 60 59 58 57 56 55 55 54 53 53 54 54 53 53 55 54 42 48 52 59 61 57 60 58 56 54 51 46 42 39 37 28 32 33 30 34 44 45
58 58 58 60 59 60 60 60 60 59 59 58 57 56 55 54 53 52 50 48 46 44 43 43 44 45 50 57 60 58 59 57 57 52 43 45 38 35 40 40 41 39 36 34 37 45 40
56 57 57 59 60 60 60 60 61 59 58 57 56 55 55 53 53 52 49 44 50 51 38 47 48 48 53 54 48 55 61 52 49 42 44 40 35 43 45 43 41 40 36 35 40 45 42
56 56 56 58 59 61 60 60 60 59 58 57 55 55 54 52 52 48 45 47 56 54 40 44 48 47 50 53 48 49 56 51 46 42 41 36 43 48 44 41 39 38 35 36 37 42 41
56 55 56 57 58 60 59 59 60 58 57 55 54 53 52 52 46 46 40 53 54 52 35 39 43 47 52 53 46 57 58 53 45 42 41 39 46 45 42 41 41 34 43 43 40 35 28
55 54 55 57 57 58 58 59 59 57 56 54 53 52 51 52 43 44 51 54 53 49 19 45 44 58 53 49 51 50 59 51 44 44 42 40 42 42 40 43 45 39 46 43 41 35 31
53 54 56 57 57 57 57 57 57 55 55 53 52 52 51 47 45 49 52 53 49 31 22 41 49 46 45 49 49 52 52 54 52 45 42 43 47 46 44 47 46 48 42 41 37 35 26
52 53 54 56 56 56 57 57 55 54 53 52 51 51 48 47 41 49 51 45 29 23 45 40 42 46 46 45 46 47 44 39 38 34 33 39 41 44 47 42 46 42 36 28 24 23 26
53 52 52 54 56 55 55 54 53 52 51 51 50 50 49 49 46 48 47 36 22 35 38 46 44 45 39 42 42 43 40 36 41 39 33 32 30 40 46 42 38 37 36 28 22 23 24
52 52 51 51 51 52 52 52 51 50 50 49 48 41 42 46 48 47 41 26 28 36 42 41 44 39 37 42 43 42 37 36 38 39 34 31 32 44 45 45 41 37 31 37 30 30 26
52 51 51 50 50 49 49 49 49 49 48 48 38 39 40 48 48 44 34 32 37 44 44 43 37 40 34 37 37 38 36 39 39 41 41 35 28 37 41 43 42 38 39 25 26 19 21
50 51 51 50 50 49 49 48 48 47 47 48 40 34 44 48 48 39 28 33 41 46 46 40 38 36 37 36 36 35 35 38 39 39 40 35 31 30 37 33 30 32 29 31 31 26 20
50 50 49 49 50 50 49 48 48 48 48 46 39 31 45 48 34 35 32 39 45 43 46 43 42 40 37 37 35 34 33 36 41 40 32 34 30 24 29 37 38 34 31 31 16 19 24
50 49 49 49 49 49 49 49 48 50 49 41 36 35 44 43 28 30 37 40 41 42 41 41 39 41 41 35 31 34 35 41 41 37 33 34 26 22 25 30 34 30 32 33 29 29 23
50 49 49 48 49 49 49 49 49 50 50 41 33 27 35 40 38 35 35 36 36 43 40 40 39 40 37 33 35 32 33 37 40 38 43 38 29 26 21 26 28 26 29 30 26 13 22
49 50 49 47 47 49 50 50 50 50 50 41 34 29 36 29 32 35 37 37 35 34 40 41 36 36 34 30 30 29 31 32 36 41 33 31 24 27 29 29 30 29 28 28 26 28 21
50 49 49 48 47 50 50 50 50 50 50 39 33 34 36 34 37 35 35 35 35 36 36 34 33 35 34 30 30 28 31 30 30 32 28 30 19 26 25 29 28 26 29 29 29 29 29
50 49 49 49 49 49 49 49 50 50 48 38 38 39 37 34 33 31 30 35 36 37 37 39 36 33 32 32 33 34 35 34 33 30 24 26 22 21 14 28 27 21 27 28 31 33 32
49 49 49 49 49 49 49 49 49 49 48 41 38 37 33 28 33 34 37 37 35 36 33 35 36 32 35 39 37 35 32 32 31 31 32 25 21 21 18 22 10 24 35 33 30 30 32
49 49 50 49 49 49 49 49 49 49 48 40 37 37 34 26 35 35 35 34 35 34 32 33 35 36 36 34 28 27 26 28 30 29 29 32 26 15 13 13 22 28 29 28 28 25 30
49 49 49 49 48 48 48 49 49 50 48 39 37 37 37 32 30 39 33 34 28 27 29 32 37 37 33 22 21 21 19 25 20 28 32 31 32 18 14 12 14 23 31 34 34 23 29
48 49 49 48 48 48 48 49 49 50 49 41 38 38 37 29 35 36 31 30 31 28 24 28 31 31 32 16 14 14 21 30 23 24 23 24 23 19 19 19 23 28 29 34 24 22 28
48 48 48 48 48 48 48 48 49 49 49 42 38 38 37 30 33 38 38 32 31 29 22 29 25 26 23 18 22 19 22 26 25 28 26 25 22 21 22 19 18 30 30 26 28 29 28
48 48 48 48 47 48 48 48 49 49 48 45 36 40 40 33 34 37 39 39 37 36 30 29 26 27 24 23 26 28 23 26 26 21 30 22 27 24 25 23 29 30 29 32 32 29 28

GFSGBSN_sfc_temp_105.txt.gz
Temp
61 61 60 60 61 61 62 63 62 61 60 60 60 60 60 61 60 59 58 57 57 57 56 57 57 57 54 52 56 66 66 65 65 62 62 60 57 55 52 53 55 52 56 59 60 61 61
60 60 60 60 60 60 61 61 62 61 60 60 60 59 60 60 60 59 58 57 56 56 56 56 57 57 50 45 67 65 65 62 63 62 61 61 60 60 56 55 54 57 56 58 60 60 59
60 60 59 59 59 59 59 60 60 61 60 60 60 59 58 58 58 58 57 56 56 55 56 56 56 54 46 51 64 62 61 62 63 63 60 62 64 60 59 54 59 58 52 56 57 59 58
59 59 59 59 58 58 58 58 59 60 60 60 60 59 58 58 57 56 55 54 54 55 56 56 56 53 43 60 61 58 60 61 64 65 64 65 65 60 58 60 55 52 51 46 55 57 59
59 59 59 58 58 58 58 58 58 59 60 60 60 59 57 56 55 55 54 52 54 55 56 56 52 49 43 61 56 62 62 60 62 62 62 67 63 57 56 50 46 46 43 44 49 57 55
59 59 59 58 58 58 59 59 59 59 59 60 60 58 57 55 54 53 53 53 54 54 54 55 54 44 50 55 61 63 60 63 61 59 57 56 55 51 48 47 38 41 41 43 44 53 54
58 58 58 58 58 58 59 60 59 59 58 59 60 58 56 55 54 52 49 48 44 43 46 46 46 47 52 60 61 61 60 60 61 57 49 51 47 42 47 47 48 47 44 43 47 52 48
58 57 58 58 58 58 58 59 59 59 58 58 58 58 56 54 53 52 50 45 49 50 41 48 49 49 55 57 51 58 63 56 53 48 50 46 42 49 50 48 46 45 42 42 47 51 48
56 56 57 57 57 57 58 59 59 59 58 58 58 57 55 53 52 48 46 47 52 53 37 43 49 49 51 54 50 53 60 55 51 46 46 44 48 51 48 46 43 44 42 42 43 49 51
56 55 55 55 56 56 57 58 58 59 57 58 57 55 52 51 46 46 43 51 53 53 33 41 44 49 53 53 46 60 61 57 50 46 45 45 52 47 45 45 46 40 47 47 45 42 39
55 55 54 55 55 55 56 56 58 58 57 57 55 53 51 55 44 43 50 53 51 48 22 46 45 59 54 50 53 51 60 56 48 47 47 45 45 44 44 46 48 44 49 46 46 43 40
54 53 54 54 54 55 57 56 56 57 57 55 54 52 51 47 47 48 50 52 47 29 23 40 48 44 43 48 52 53 54 59 56 48 48 48 53 51 50 51 50 51 47 45 43 42 33
54 53 53 53 53 54 56 56 56 56 56 55 52 52 51 49 42 49 52 46 27 25 43 41 43 46 45 44 47 49 47 46 44 38 38 44 45 49 50 46 49 47 43 35 32 31 32
53 52 52 52 52 54 56 56 55 55 54 52 51 49 48 47 47 49 44 33 23 34 37 47 47 45 40 44 44 45 43 40 44 44 39 37 33 43 49 45 42 42 42 35 26 28 33
53 52 51 51 51 53 55 55 54 53 52 50 49 43 43 44 47 49 39 28 31 37 43 42 45 40 39 43 44 42 39 39 41 42 38 34 34 45 47 48 46 41 37 42 34 35 31
53 52 51 51 50 50 51 52 52 51 49 50 40 38 40 45 45 43 34 29 36 44 44 44 38 40 36 38 39 40 38 41 39 42 44 39 32 39 44 46 46 43 44 33 33 24 25
51 51 51 50 50 50 49 48 48 48 48 50 40 34 40 46 44 37 29 32 41 46 47 41 39 37 38 37 38 36 36 39 41 40 43 40 37 35 40 38 36 37 35 37 36 33 27
50 50 50 50 50 49 49 49 48 48 48 45 36 29 42 45 33 35 32 39 43 42 45 43 43 40 39 38 36 36 35 39 44 43 37 38 35 29 33 38 41 39 35 35 28 26 30
51 50 49 49 50 49 49 49 48 48 48 41 33 33 43 42 28 30 39 38 42 42 41 41 40 42 41 36 33 36 37 41 44 40 37 39 32 26 28 35 38 35 37 36 33 32 26
50 50 49 49 49 49 49 48 48 49 49 43 36 30 35 39 37 35 34 34 36 43 41 41 40 41 38 35 37 34 34 39 42 42 43 41 34 31 26 30 34 29 32 35 32 24 27
50 49 49 47 48 48 49 49 49 50 50 43 37 31 37 29 32 36 38 38 35 35 41 42 38 37 37 32 33 31 35 36 39 42 37 37 29 31 34 34 33 33 32 33 30 31 25
49 49 48 47 47 47 48 48 50 50 49 41 33 35 37 36 38 35 37 36 36 36 37 35 35 36 37 33 34 31 34 35 34 36 33 34 27 29 27 33 33 29 32 33 32 31 31
49 49 48 47 47 49 49 50 49 50 48 40 40 42 39 37 35 33 33 36 37 37 38 39 38 35 34 35 39 39 40 39 39 35 30 31 29 26 20 29 29 24 30 31 32 34 33
49 49 48 47 48 49 49 49 49 49 49 43 41 40 35 31 35 35 37 38 36 37 34 36 38 35 38 42 41 40 37 36 35 36 37 30 28 28 22 25 14 29 36 34 31 30 31
48 48 49 49 48 49 49 49 49 49 50 43 40 40 36 29 36 36 36 34 36 36 34 35 37 38 39 38 32 29 30 30 31 33 33 36 31 24 20 20 26 26 29 28 28 28 30
48 47 49 49 48 48 48 49 49 49 49 42 39 39 39 34 32 39 35 36 32 31 32 34 38 39 37 29 28 23 21 25 24 26 34 32 34 27 20 16 14 23 30 34 32 25 29
48 49 48 48 48 48 48 49 49 49 49 43 39 40 39 31 36 39 35 33 34 32 29 31 34 35 36 26 23 23 24 30 24 25 24 25 25 22 22 20 25 28 30 33 24 22 28
48 48 48 47 48 48 48 48 49 49 49 44 39 40 40 33 36 39 40 34 34 33 29 32 31 32 29 24 25 24 24 28 26 28 26 26 24 22 23 20 18 30 32 26 27 28 28
47 47 47 47 47 48 48 48 49 49 48 46 38 41 42 35 36 39 40 41 42 40 34 33 30 29 30 28 29 29 26 28 26 22 31 24 27 26 26 24 29 30 29 31 31 29 29

GFSGBSN_sfc_temp_111.txt.gz
Temp
61 61 61 61 60 60 61 61 60 59 59 60 60 60 61 61 61 60 59 58 58 58 58 58 58 58 65 66 71 77 66 67 76 77 77 76 73 72 68 73 75 71 74 75 77 77 75
61 61 61 60 60 60 60 60 59 59 59 59 59 59 60 60 61 60 59 57 57 57 57 57 58 57 63 56 82 82 79 78 79 78 77 77 75 77 71 70 70 74 74 73 75 75 75
60 60 60 59 59 59 59 59 59 59 59 59 59 59 59 59 60 59 58 57 56 56 56 57 58 64 59 61 82 84 78 79 81 79 74 79 79 73 73 68 75 72 65 69 72 74 72
60 59 59 59 59 59 59 58 59 59 58 59 59 58 58 58 58 58 57 56 56 55 56 57 57 61 53 77 83 79 80 77 80 80 77 80 79 73 71 74 70 64 65 59 72 75 74
59 59 59 59 59 58 58 58 58 58 58 58 58 58 58 57 57 57 56 54 54 55 55 56 56 58 57 70 69 77 78 73 77 77 77 77 74 68 70 62 59 63 56 61 68 75 70
59 59 59 59 59 59 58 58 58 58 58 58 58 58 58 57 57 55 54 54 54 54 55 59 60 51 62 65 76 76 80 77 72 72 68 67 67 62 64 61 50 58 61 65 63 71 71
59 59 59 59 59 59 59 59 58 57 57 57 57 58 58 57 57 53 52 51 47 47 51 56 63 63 68 75 76 73 76 72 72 68 58 65 58 55 61 64 63 62 60 60 66 72 66
58 58 58 58 58 59 59 58 57 57 57 57 57 57 57 57 55 54 58 50 58 64 56 61 63 66 70 74 64 71 78 64 64 58 64 60 54 63 67 66 63 61 57 57 64 68 65
57 57 57 57 58 58 58 58 57 56 56 56 56 57 57 57 55 52 54 57 64 66 48 57 66 65 67 69 62 65 72 68 62 59 60 57 61 67 63 61 59 59 56 56 57 64 67
56 56 56 57 57 57 57 56 56 56 56 56 56 56 56 55 49 51 49 58 63 62 36 52 61 64 68 68 60 72 73 69 63 56 60 56 65 62 60 57 61 52 63 60 57 55 49
56 56 56 56 56 56 55 55 55 55 56 55 55 56 55 54 52 47 54 56 59 52 27 60 63 70 67 60 65 68 75 68 58 59 59 54 57 56 54 55 60 54 62 59 58 54 54
56 55 55 55 55 55 54 54 54 55 55 55 55 55 54 53 55 57 59 58 52 35 30 53 61 56 56 59 60 66 64 70 69 59 61 60 65 61 60 62 62 63 57 56 56 53 42
55 55 55 54 54 54 54 54 54 54 55 55 56 55 53 55 47 61 56 48 34 32 56 52 54 57 56 56 57 60 57 56 52 46 47 54 55 61 61 53 56 56 50 39 37 38 38
54 54 54 54 54 54 53 53 53 53 54 55 55 53 55 57 58 56 50 39 30 49 51 58 58 57 52 57 57 57 55 52 57 56 48 39 35 53 58 55 50 51 48 37 26 32 39
54 54 54 54 54 53 52 52 53 53 54 55 53 49 47 49 54 55 44 33 40 51 58 55 55 50 52 56 55 54 54 54 58 58 44 40 41 55 56 57 54 51 43 53 41 44 40
53 53 53 54 53 52 51 52 52 53 54 52 47 44 43 50 52 47 39 37 47 58 58 57 48 52 48 52 51 52 52 57 56 58 60 48 36 50 53 55 55 51 53 39 43 30 31
52 52 53 53 53 52 51 51 52 54 52 53 46 37 42 49 49 40 33 39 44 58 58 53 51 51 52 50 53 51 50 53 57 53 56 53 47 44 49 47 46 46 43 44 45 41 31
51 52 52 52 52 52 51 50 52 52 50 47 41 33 43 47 34 35 35 40 49 54 56 54 54 54 51 52 49 48 47 48 56 54 45 49 44 36 42 52 51 50 46 46 36 34 41
51 51 51 52 52 52 51 50 50 48 48 44 35 33 40 43 32 34 39 41 48 51 51 51 48 51 50 46 42 46 46 49 52 51 47 45 39 33 38 45 48 44 46 46 45 43 36
50 50 50 51 51 52 51 50 49 48 48 44 36 30 33 35 38 38 36 40 44 53 52 53 51 54 49 45 48 41 43 46 50 51 46 50 44 41 36 40 45 38 44 47 43 33 37
50 50 49 50 51 51 51 50 50 48 47 45 40 37 43 32 35 38 42 40 41 41 50 52 47 47 46 40 42 39 42 43 47 45 48 47 38 43 45 47 45 43 43 44 42 42 34
49 49 49 48 51 51 51 50 49 48 47 42 37 40 43 43 44 37 37 36 39 41 44 43 45 49 49 44 46 42 46 45 43 48 45 46 36 38 37 44 44 39 44 45 45 44 44
49 49 48 46 50 50 50 50 50 48 47 40 45 54 48 38 37 35 36 39 42 46 48 53 51 50 47 49 52 54 55 53 51 46 42 42 39 34 29 39 38 32 39 43 45 47 46
49 48 49 47 49 50 50 49 49 48 47 45 51 49 41 37 40 40 44 46 45 48 45 51 53 49 50 55 54 52 51 49 48 48 49 41 38 37 31 32 22 38 46 44 41 43 46
46 48 49 49 49 49 48 48 48 48 48 45 53 48 44 38 43 44 46 48 51 50 48 48 48 51 54 50 42 38 38 39 42 46 45 46 41 33 28 30 36 36 33 31 30 34 36
46 47 48 48 48 48 48 48 48 47 48 48 54 53 48 41 38 50 48 49 45 45 43 42 49 53 51 43 40 33 31 37 31 36 44 45 44 36 32 24 22 29 38 42 37 27 36
47 48 48 48 48 48 48 46 46 46 48 49 52 52 48 42 48 53 48 48 54 49 45 43 44 44 49 39 34 34 35 43 33 30 31 33 34 30 30 27 30 34 35 39 24 26 34
48 48 48 48 48 48 48 47 46 47 49 50 50 53 50 45 48 52 53 49 51 51 42 46 42 42 42 36 37 37 35 39 36 33 33 33 31 30 31 26 24 36 37 29 30 32 33
48 48 48 47 46 47 47 47 48 49 49 49 51 54 56 49 45 53 52 54 53 54 51 48 45 44 46 41 44 40 34 37 35 29 39 29 32 31 30 29 33 35 32 33 34 32 31

GFSGBSN_sfc_temp_114.txt.gz
Temp
61 61 61 61 60 60 61 61 60 59 59 59 59 59 60 61 62 61 59 58 58 59 59 58 59 59 62 63 66 75 66 68 74 75 73 74 72 71 66 70 73 70 73 76 78 77 76
61 61 61 60 60 60 60 60 59 59 59 59 58 59 59 59 60 60 59 58 57 58 58 58 58 58 60 53 80 81 79 78 76 76 75 76 72 75 70 69 67 71 72 72 76 74 75
60 60 60 59 59 59 59 59 59 59 59 58 59 58 58 59 59 59 59 58 57 57 57 57 58 60 57 58 79 82 82 79 81 79 73 78 78 71 71 66 74 71 64 68 70 72 70
60 60 60 59 59 58 58 58 58 58 58 58 58 58 58 58 58 58 58 57 56 56 56 57 57 59 52 76 80 78 79 77 80 80 78 78 78 72 68 71 68 63 64 56 67 72 74
60 59 59 60 59 58 58 58 58 58 58 58 58 57 57 57 57 57 57 56 55 55 55 56 55 56 53 75 69 76 78 73 77 77 77 79 75 66 67 59 56 60 52 56 62 74 74
59 59 59 59 59 59 59 58 58 58 58 57 57 57 57 57 57 56 54 54 54 54 55 59 61 53 61 64 75 78 81 77 71 72 69 67 65 58 61 56 47 53 56 60 61 70 73
59 59 59 59 59 59 59 59 58 57 57 57 57 57 57 57 57 53 52 51 48 49 51 55 61 61 70 77 79 75 78 74 72 67 58 63 55 51 57 61 62 60 57 56 62 69 65
59 58 58 58 58 58 59 59 58 57 57 57 57 57 57 57 56 54 58 49 59 62 52 59 63 65 70 73 64 70 79 65 63 56 62 58 52 60 64 63 60 59 56 56 62 67 64
57 57 57 58 58 58 58 58 57 56 56 56 56 56 56 56 56 52 53 54 66 65 48 58 65 65 67 70 62 64 72 68 60 56 58 53 59 66 63 60 57 58 55 55 56 62 65
57 57 57 57 57 57 57 57 56 56 56 55 55 55 55 55 51 53 50 60 62 62 40 52 61 65 69 69 60 73 74 66 61 55 58 56 63 60 60 57 60 51 61 59 57 54 45
56 56 56 56 56 56 55 55 55 55 55 55 55 55 55 54 55 49 56 60 59 55 29 61 63 74 70 63 67 68 75 67 56 56 57 53 56 56 54 56 61 54 61 56 54 47 47
55 56 56 56 55 55 55 55 54 54 54 54 54 55 54 52 54 57 59 59 53 35 29 53 64 59 59 61 62 66 67 70 68 58 59 58 66 61 58 60 60 62 56 55 53 48 35
54 54 55 55 55 54 54 54 54 54 54 54 54 54 54 56 49 59 57 49 34 31 57 52 57 61 58 56 58 59 57 57 52 45 47 55 56 62 61 54 58 56 48 36 30 32 34
54 54 54 54 54 54 54 54 53 53 53 54 53 54 54 57 60 57 52 40 30 47 49 63 60 61 55 58 58 59 56 52 59 56 49 45 40 56 61 54 49 50 47 32 25 28 35
53 54 53 54 54 54 54 53 53 52 53 53 53 52 51 51 57 55 44 32 38 48 58 55 57 52 53 58 57 57 55 54 58 59 46 43 43 57 58 60 56 48 42 50 36 37 34
53 53 53 52 53 53 53 53 52 52 53 53 48 45 43 51 52 48 39 36 46 56 59 59 49 54 47 53 53 54 52 59 56 61 62 52 40 48 54 56 56 51 55 39 34 25 28
53 53 53 53 52 52 53 53 52 52 52 53 46 39 44 50 49 40 33 39 47 58 60 54 52 52 52 50 52 48 50 58 58 58 59 55 45 41 48 45 45 46 44 45 44 38 28
52 52 52 52 52 52 52 52 52 51 53 49 43 34 44 48 34 34 34 40 48 54 59 56 57 54 52 52 48 51 48 51 57 56 47 46 43 36 40 52 55 51 47 46 34 33 38
51 51 51 51 52 52 52 52 51 49 49 45 35 34 43 43 31 33 41 41 47 49 52 54 52 54 55 48 44 51 51 51 53 51 47 47 36 32 37 44 50 44 48 48 45 43 34
50 50 51 51 51 51 52 51 51 49 48 45 37 30 33 36 39 40 37 37 40 50 51 52 52 55 51 48 51 45 47 48 52 52 48 49 42 36 30 36 44 39 44 47 43 33 35
50 50 50 50 51 51 51 52 51 50 48 45 39 35 43 30 32 36 40 40 40 38 47 49 45 49 49 42 44 40 47 46 48 47 48 47 36 41 43 46 46 44 43 45 42 43 35
49 49 49 49 50 50 50 51 51 50 48 42 35 38 42 41 42 37 38 38 39 42 45 42 44 48 49 42 45 41 46 45 41 47 44 47 35 37 35 43 44 40 45 45 44 44 43
49 49 49 49 49 50 50 51 49 49 48 39 42 45 43 38 38 36 36 43 43 46 47 50 48 45 43 47 52 52 54 52 51 45 42 42 38 34 29 40 40 32 39 42 44 46 45
49 49 49 49 49 49 50 50 50 49 48 45 45 46 38 34 35 38 42 45 43 43 40 46 50 47 51 57 55 54 53 51 50 49 50 41 39 37 31 33 21 39 47 43 40 42 44
47 47 48 50 50 49 50 48 49 48 49 43 45 43 40 36 40 39 37 40 44 45 45 49 49 54 56 52 43 38 38 39 42 47 47 47 41 33 27 28 35 38 34 33 30 34 41
45 48 49 49 49 49 48 48 49 48 49 44 43 47 43 38 38 45 40 43 37 40 41 43 51 55 53 43 40 32 30 35 32 38 48 46 43 34 31 24 21 30 37 43 39 26 36
48 47 47 49 49 48 48 48 48 48 48 45 45 51 42 38 45 49 43 42 49 47 42 42 44 45 51 39 33 33 34 44 31 31 31 34 35 30 31 27 30 34 37 41 23 25 34
47 46 46 47 47 47 47 48 48 47 47 46 47 47 43 43 47 53 53 50 51 51 40 44 42 43 41 36 36 37 34 40 35 33 35 33 31 30 32 26 23 36 36 29 30 33 34
47 46 47 47 47 47 47 47 46 46 47 47 44 49 51 46 45 53 53 54 54 56 51 48 45 44 45 41 43 41 36 38 36 29 39 30 34 30 29 28 33 35 32 35 36 33 31

GFSGBSN_sfc_temp_117.txt.gz
Temp
61 61 61 61 60 60 60 60 59 59 59 59 59 59 59 60 60 60 59 59 59 59 59 59 59 59 56 55 59 72 68 68 69 70 68 67 64 62 57 61 62 59 62 66 68 68 67
61 60 60 60 59 59 60 60 59 58 58 58 58 58 58 59 59 59 59 59 58 58 58 58 58 58 52 46 71 77 70 69 71 69 68 68 66 67 61 60 58 63 65 65 67 67 67
60 60 59 59 59 59 59 59 58 58 58 58 58 58 58 58 58 58 58 58 57 57 57 57 58 58 51 51 70 72 74 72 72 71 67 71 70 63 63 58 65 63 55 60 61 62 63
60 60 60 59 59 58 58 58 58 58 58 58 58 58 57 57 57 57 57 57 57 56 56 57 58 55 45 68 69 66 67 68 74 73 71 71 70 64 59 62 60 55 54 47 58 63 66
60 60 59 59 58 58 58 58 58 58 58 58 58 57 57 56 56 56 57 57 56 56 56 57 51 49 45 69 64 70 70 67 71 73 70 76 67 59 58 50 44 48 39 46 52 63 63
59 59 59 59 59 58 58 58 58 58 58 57 57 57 56 56 56 55 54 55 55 54 54 58 56 47 54 59 70 72 72 72 67 66 64 61 55 48 46 43 35 41 43 46 48 55 61
59 59 59 59 58 58 59 59 58 57 57 57 57 57 56 56 56 53 52 50 45 42 49 47 50 51 62 70 73 69 74 69 66 61 50 56 44 39 45 50 52 52 50 48 54 60 57
58 59 59 59 58 58 58 58 58 57 57 56 56 56 56 56 56 54 55 49 52 55 44 52 54 57 62 66 58 64 71 59 57 48 53 49 44 52 57 56 54 52 49 48 54 59 58
57 57 57 58 58 58 58 58 57 56 56 56 55 55 55 55 56 52 51 53 61 60 41 52 59 55 57 63 56 58 64 61 55 50 50 46 51 59 57 54 52 52 49 49 49 54 54
57 57 57 57 58 58 57 57 57 56 56 55 55 54 54 54 50 51 48 56 59 57 33 45 55 60 63 63 55 66 67 61 54 50 52 49 57 55 54 52 53 46 56 56 52 44 36
56 56 56 56 56 56 56 56 56 56 55 55 54 54 54 54 50 49 53 56 57 53 22 56 59 72 67 57 61 63 70 61 51 51 50 47 50 50 50 52 56 49 55 51 51 45 41
56 56 56 56 56 55 55 55 55 55 55 54 54 54 54 51 49 54 58 57 52 34 24 49 59 57 56 58 59 62 62 63 62 53 53 51 59 56 54 58 56 57 51 47 45 40 29
55 55 55 55 55 55 55 54 54 54 54 54 54 54 52 53 48 57 57 49 33 26 52 49 52 57 54 52 54 56 53 50 44 39 39 49 50 56 59 51 51 48 40 29 25 26 28
54 54 54 54 54 54 54 54 54 54 54 53 53 53 51 53 55 56 50 39 27 40 44 58 56 56 50 54 53 54 50 45 52 50 41 38 33 48 52 49 43 45 41 27 23 24 28
54 54 53 53 53 53 54 54 53 53 53 52 52 46 50 52 55 54 44 31 32 42 51 49 51 46 47 53 53 51 49 47 51 52 43 38 39 52 55 54 49 44 37 46 33 34 28
54 53 53 53 53 52 53 53 53 53 52 52 43 45 45 49 54 49 38 34 39 50 52 51 42 49 44 47 47 47 47 54 52 55 53 46 38 46 50 52 51 47 50 34 31 23 23
52 53 53 53 52 52 52 52 52 53 52 52 43 40 44 49 50 42 33 36 43 51 54 49 46 45 47 45 47 41 41 48 54 53 52 45 39 37 45 41 39 42 39 41 38 31 23
52 52 52 52 52 52 52 52 52 52 52 49 43 34 44 49 36 34 34 40 48 48 53 49 50 49 45 46 44 42 40 41 49 49 41 41 37 29 36 48 50 45 43 42 28 28 30
51 51 51 52 52 52 52 52 52 52 50 43 36 35 43 42 32 31 39 41 45 45 47 49 48 50 48 43 37 43 44 49 50 47 41 42 31 27 32 40 44 40 44 45 40 37 30
50 50 51 51 51 51 51 51 52 51 50 43 36 30 33 36 39 36 36 37 39 47 46 49 49 49 46 42 45 40 43 46 49 47 48 46 35 32 29 34 38 34 41 43 38 25 30
50 50 50 50 50 50 51 51 51 51 50 45 37 33 35 28 32 35 38 39 38 38 48 48 44 42 42 37 40 40 44 41 46 47 45 40 31 37 40 43 43 37 38 41 39 37 30
49 49 49 49 50 50 50 50 50 51 50 41 33 34 38 35 38 34 35 36 38 41 43 39 39 43 43 39 40 36 43 40 39 42 39 41 30 33 31 40 40 38 41 42 42 41 40
49 49 49 49 49 50 50 50 50 50 49 40 41 43 40 37 36 32 33 36 38 43 45 47 44 42 40 42 47 47 47 47 45 39 35 36 31 29 24 34 34 27 34 38 41 40 38
49 49 49 49 49 50 50 50 50 50 49 43 43 41 36 32 35 33 38 39 40 43 39 47 45 38 45 49 50 49 47 46 46 43 43 33 33 30 26 28 18 32 40 39 37 35 36
49 49 49 49 49 49 49 50 49 50 49 43 44 42 37 32 37 39 39 41 43 45 41 44 46 48 50 46 36 34 32 34 39 43 41 42 33 26 22 21 29 32 31 27 25 26 33
48 48 49 49 49 49 49 49 49 49 48 45 43 43 40 35 34 43 40 39 34 33 36 38 48 51 46 35 31 27 25 31 24 35 45 42 38 26 23 19 9 26 34 41 36 18 31
48 47 47 47 47 48 49 49 49 49 49 44 42 45 41 35 39 44 37 36 41 37 32 37 40 41 44 29 27 25 27 38 26 27 29 28 27 24 21 18 23 33 33 40 19 18 33
47 46 45 47 47 48 48 48 48 48 48 45 42 46 42 36 38 46 48 41 41 40 34 37 35 36 34 29 27 26 24 31 29 30 30 28 25 20 20 17 18 32 33 27 28 31 30
47 47 45 44 47 48 48 48 48 48 48 46 41 45 46 39 38 46 47 49 50 49 41 39 37 36 35 29 31 29 25 27 27 22 36 23 25 27 24 21 31 34 31 34 34 30 30

GFSGBSN_sfc_temp_120.txt.gz
Temp
61 61 61 61 60 60 60 60 59 59 59 59 59 59 59 59 59 59 59 58 59 59 59 59 59 59 55 52 55 69 68 68 66 67 65 64 59 58 53 57 58 55 57 61 63 63 62
60 60 60 60 59 59 60 59 59 58 58 58 58 58 58 58 59 58 58 58 58 58 58 59 58 58 50 43 67 70 70 66 67 63 63 64 62 62 58 57 54 59 59 59 61 61 62
60 60 59 59 59 59 59 58 58 58 58 58 58 57 57 57 57 57 57 57 57 57 58 58 58 57 49 49 65 64 67 66 67 67 64 68 67 60 58 55 62 60 52 56 55 57 57
60 60 60 59 59 59 58 58 58 58 58 58 58 57 57 56 56 56 56 57 57 57 57 57 57 53 45 64 61 62 62 62 67 69 69 70 68 61 57 59 56 52 50 41 55 58 61
60 59 59 59 58 58 58 58 58 58 58 58 57 57 56 56 56 56 56 57 57 57 57 57 50 48 43 64 61 67 65 61 66 68 69 74 66 57 55 46 41 44 37 41 47 59 56
59 60 59 59 58 59 58 58 58 58 57 57 57 57 56 56 55 55 55 55 55 54 54 57 54 45 51 58 66 69 66 66 63 62 61 60 53 48 46 42 32 37 38 37 41 50 55
60 60 59 59 58 58 58 59 58 57 57 57 56 56 56 55 55 54 51 47 43 43 48 44 46 49 58 65 69 66 69 64 62 57 47 51 42 37 45 45 48 46 44 43 48 54 52
58 58 59 59 59 58 58 58 57 57 57 56 56 55 55 55 55 54 53 45 50 54 43 49 53 52 59 61 53 60 66 56 53 46 49 45 39 47 51 50 48 47 44 44 50 55 53
58 57 58 59 59 58 58 58 57 57 56 56 55 55 55 55 55 52 50 49 56 55 39 48 52 50 53 57 50 54 60 56 50 47 47 42 48 55 51 49 47 47 45 45 46 51 48
57 57 57 57 58 57 57 57 57 56 56 55 55 54 54 54 49 48 47 54 55 55 35 41 49 55 57 59 50 61 63 57 51 47 48 46 54 51 50 48 50 42 51 51 47 42 34
57 56 56 56 57 56 56 56 56 56 55 55 54 54 53 54 48 48 52 53 52 50 18 51 55 66 60 53 57 59 63 55 47 48 47 43 46 46 45 48 52 46 53 49 46 39 35
55 55 56 56 55 55 55 55 55 55 55 55 54 54 53 49 48 49 53 53 50 27 21 46 56 53 50 53 55 59 57 59 57 49 48 48 55 51 50 54 53 55 50 45 42 37 27
55 55 55 55 55 55 55 55 54 54 54 54 54 54 51 51 46 52 52 49 32 22 48 45 48 53 50 48 51 52 51 47 43 36 37 45 47 51 55 47 50 47 38 28 25 25 26
55 54 54 54 54 54 54 54 53 53 54 54 53 52 50 50 50 51 49 39 24 37 39 53 52 51 46 50 49 50 46 41 46 45 38 34 31 46 51 46 43 42 41 28 22 23 26
54 54 54 54 53 53 53 54 53 53 53 53 52 44 44 48 50 50 43 30 29 37 47 45 48 42 43 48 49 48 46 45 48 47 38 34 36 49 51 51 49 41 34 42 34 31 26
53 53 53 53 53 53 53 53 53 53 53 52 43 39 41 51 52 46 37 34 37 46 49 48 39 45 39 43 43 43 44 48 46 52 53 44 35 44 47 49 47 45 46 31 30 23 21
53 52 52 52 52 52 52 52 52 52 53 52 44 35 41 48 49 41 32 33 41 49 50 45 42 41 43 41 44 41 43 46 47 47 48 44 40 37 43 39 38 39 36 37 36 32 23
51 52 52 52 52 52 52 52 52 52 52 48 41 32 41 48 36 36 34 38 46 45 49 46 46 44 41 43 41 41 40 45 46 46 43 43 36 29 35 45 46 42 39 40 28 26 28
51 51 51 51 52 52 52 52 52 52 52 41 34 33 43 43 31 32 38 39 43 43 45 45 44 46 46 42 35 41 42 47 46 45 42 43 33 26 30 36 41 37 42 43 40 36 29
50 50 51 51 51 51 52 52 51 52 52 43 35 30 34 37 39 36 35 36 37 45 44 46 44 45 42 39 42 40 39 44 46 45 48 45 35 32 29 32 36 32 38 42 38 28 28
49 49 50 50 51 51 51 51 51 51 51 42 37 33 34 28 32 35 38 37 36 37 45 45 40 41 39 34 37 36 39 40 44 47 42 39 30 33 37 41 41 34 35 38 35 36 31
49 49 49 50 50 50 50 50 50 50 50 40 33 34 37 32 37 34 35 35 37 38 41 40 38 41 40 37 39 36 39 37 38 43 39 40 30 31 30 39 39 35 37 38 38 39 39
49 49 49 49 49 50 50 50 50 50 49 39 39 43 38 35 34 32 34 36 38 42 43 45 43 39 38 41 43 42 44 44 45 39 35 34 31 27 23 34 33 27 32 37 39 36 35
48 49 49 49 49 50 50 49 50 50 49 42 42 41 34 30 33 33 37 38 37 39 37 43 46 41 44 48 48 45 43 46 44 42 42 33 31 29 26 28 18 30 38 38 32 31 33
48 48 49 49 49 49 49 49 49 49 50 41 43 40 36 30 34 35 36 36 38 40 40 43 45 47 47 43 32 29 31 35 38 41 39 39 31 24 21 21 27 31 30 25 26 26 30
48 48 48 48 48 48 49 49 49 49 50 44 43 44 39 34 32 40 37 38 34 33 37 37 46 48 45 34 30 25 23 29 27 35 42 38 36 25 21 18 8 20 32 37 33 18 30
48 48 48 49 48 48 48 48 48 49 49 45 42 44 40 34 38 39 36 35 40 36 34 35 38 39 43 29 28 26 27 37 26 27 29 27 26 24 20 17 23 30 31 37 20 19 29
47 48 48 48 48 48 48 48 48 49 49 44 41 45 41 35 37 41 43 37 40 37 32 36 35 35 32 30 29 28 26 31 28 30 29 28 25 19 18 13 16 30 31 26 26 27 28
47 47 46 45 46 47 47 47 48 49 49 48 40 45 46 38 37 44 45 49 48 44 40 37 36 36 36 32 32 31 27 24 28 23 34 22 26 21 24 20 26 29 25 32 34 31 29

GFSGBSN_sfc_temp_123.txt.gz
Temp
62 62 61 61 60 60 60 60 59 58 58 58 58 58 59 59 59 59 58 58 58 59 59 59 59 59 55 49 51 65 68 67 64 64 61 60 56 54 49 53 55 51 53 57 59 59 57
60 60 60 60 60 60 60 59 58 58 58 58 58 57 58 58 58 58 57 57 57 58 58 58 58 59 50 43 62 66 65 64 63 60 59 60 57 58 54 53 50 55 55 55 58 59 59
60 60 59 59 59 59 59 58 58 58 58 57 57 57 57 57 57 57 57 57 57 58 59 58 58 57 49 48 60 59 61 60 62 62 58 62 62 57 56 53 57 57 50 53 55 58 55
60 60 59 59 58 58 58 58 58 58 58 57 57 57 56 56 56 56 56 56 57 59 59 57 57 54 44 62 58 59 57 59 63 63 64 64 62 57 54 57 54 50 47 41 53 58 58
60 59 59 59 58 58 58 57 57 58 58 57 57 56 56 55 55 55 55 56 57 57 57 57 50 50 43 63 58 64 63 60 63 64 64 70 61 54 52 45 40 42 34 39 46 57 54
59 60 59 59 58 58 58 58 57 57 57 57 56 56 56 55 55 54 55 55 55 55 55 57 55 43 50 56 64 66 63 64 61 61 59 58 51 45 43 40 31 37 37 33 40 50 53
60 59 59 59 58 58 58 59 58 58 57 56 56 56 55 55 55 54 51 46 43 42 48 42 44 46 53 61 65 63 66 62 60 56 47 51 42 37 44 44 44 42 39 38 42 50 47
59 59 59 59 59 58 58 58 58 57 56 56 55 55 55 55 55 54 48 42 45 50 41 48 50 49 56 57 49 57 63 55 52 45 47 43 37 46 49 48 45 43 40 39 44 50 48
58 58 58 59 59 58 58 58 57 56 56 56 55 55 54 54 55 51 44 45 50 54 39 45 50 48 50 54 48 50 57 55 49 45 45 40 46 52 48 45 43 42 40 41 42 47 47
57 58 58 58 58 58 58 57 57 56 56 55 55 54 53 53 47 45 44 50 50 55 34 39 45 50 54 55 45 57 60 55 49 45 45 43 51 49 46 44 45 38 48 47 44 39 33
57 57 57 57 57 57 56 56 56 56 56 55 54 54 53 54 47 43 50 50 52 49 20 48 49 62 57 50 54 54 60 54 45 46 45 41 44 43 42 45 48 42 49 46 45 37 34
56 56 56 56 55 55 55 55 55 55 55 55 54 54 53 47 47 47 50 53 49 25 22 44 52 49 47 50 52 55 54 56 55 46 45 45 50 48 47 51 50 51 45 42 39 37 28
55 55 55 55 55 55 55 55 55 54 54 54 54 54 51 49 43 48 51 48 30 20 45 42 44 48 46 45 48 51 48 45 41 36 35 41 43 48 51 44 46 44 38 30 24 24 25
55 55 55 55 55 54 54 54 54 54 54 54 53 53 50 48 47 49 49 39 22 36 37 48 48 48 43 47 46 48 44 40 45 42 35 33 31 43 49 44 41 39 38 26 22 23 25
54 54 54 54 54 54 54 54 54 54 53 53 52 43 44 45 49 47 42 30 28 34 44 42 45 40 40 46 46 44 42 42 45 46 37 33 34 46 49 48 48 39 33 39 31 30 26
54 54 53 53 53 53 53 53 53 53 53 52 42 41 39 48 48 45 37 32 35 44 46 45 37 42 36 39 39 39 40 46 46 48 48 41 33 42 45 47 45 43 44 30 28 22 21
53 53 53 53 53 53 53 53 53 53 53 51 41 32 39 46 49 40 30 32 38 47 48 42 39 39 39 38 40 39 40 45 46 45 46 42 37 35 41 39 37 37 35 35 33 28 22
51 51 52 52 52 52 52 53 53 52 52 48 38 31 39 48 35 36 32 36 44 43 47 45 43 41 38 39 37 39 39 44 47 45 43 44 37 29 36 43 44 40 37 36 27 27 27
51 51 51 52 52 52 52 52 52 52 51 42 34 34 40 44 30 32 37 37 41 40 42 42 41 42 44 39 34 39 42 46 45 43 39 40 30 26 32 35 39 36 39 40 37 32 29
50 51 51 51 51 51 51 52 52 52 52 44 35 29 33 38 38 34 33 35 35 42 41 43 41 43 39 38 39 36 38 44 45 44 48 44 33 32 29 32 36 33 37 40 37 26 29
50 50 50 50 51 51 51 51 51 51 52 42 36 32 37 29 32 35 36 36 34 36 43 44 38 39 37 32 34 33 39 41 43 46 40 38 30 32 35 39 39 36 36 37 34 33 27
49 49 49 50 50 50 50 50 51 51 51 39 32 32 37 34 33 32 34 33 33 37 38 38 37 39 38 34 37 35 38 36 38 41 37 38 29 32 32 38 39 34 35 35 36 36 35
48 49 49 49 49 50 50 50 50 50 49 37 36 37 35 34 33 31 31 34 36 39 42 43 42 37 36 40 42 42 42 41 41 38 35 35 30 28 25 33 33 26 33 35 37 35 33
48 48 49 49 49 50 50 50 50 50 49 38 37 36 32 27 32 32 35 35 36 37 36 41 42 38 44 45 43 41 40 39 41 41 41 33 32 29 26 29 18 29 35 35 32 30 32
48 48 49 49 49 49 49 49 49 49 50 40 38 37 34 28 33 34 35 35 38 39 38 39 42 45 46 41 33 30 30 31 34 38 38 39 32 26 22 22 27 29 30 24 25 27 30
47 48 48 48 48 48 48 49 49 49 50 42 40 39 38 29 30 38 35 36 32 32 33 36 43 47 43 33 31 26 24 29 25 32 41 37 38 28 22 18 9 21 32 35 32 19 29
48 48 48 48 48 48 48 48 48 49 49 43 38 42 38 32 34 37 34 33 37 36 33 36 39 38 41 31 27 26 25 35 26 26 27 27 27 26 22 19 24 31 32 35 18 20 28
47 47 47 48 48 48 48 48 48 49 49 45 40 42 39 34 37 40 40 37 35 35 33 36 35 35 32 29 28 26 24 30 28 29 30 28 26 21 21 17 18 32 31 26 24 25 28
47 48 48 47 47 48 48 48 48 48 48 48 35 43 44 37 35 43 41 43 42 45 40 37 35 33 35 31 31 30 26 22 26 23 33 24 26 23 27 24 26 28 24 28 30 27 29

GFSGBSN_sfc_temp_126.txt.gz
Temp
61 62 61 61 60 60 60 60 59 58 58 58 58 58 58 59 59 58 57 57 58 58 58 59 58 59 54 48 51 61 66 66 63 63 59 57 54 51 47 48 52 48 50 54 56 56 55
61 60 60 60 60 60 60 59 58 58 58 58 57 57 57 58 58 57 57 57 57 57 58 58 58 59 50 44 60 63 61 62 62 58 57 57 55 55 51 49 47 51 51 51 54 56 55
60 60 60 59 59 59 59 58 58 58 57 57 57 57 57 57 57 56 57 56 56 57 59 58 58 55 47 50 58 57 59 56 59 59 55 59 60 55 52 50 54 53 47 49 52 51 52
60 59 59 59 58 58 58 57 57 58 58 57 57 56 56 56 56 56 56 56 56 58 57 57 57 50 42 60 56 57 55 58 59 60 60 61 59 54 52 53 51 46 43 38 50 53 53
60 60 59 59 58 58 57 57 57 57 58 57 57 56 55 55 55 55 55 56 56 57 57 57 47 46 42 61 56 61 60 58 60 60 61 67 59 51 50 43 38 39 33 36 44 52 51
59 59 59 59 58 58 58 57 57 57 57 57 56 56 55 55 55 54 54 55 55 54 54 56 54 41 50 54 61 63 61 62 59 58 56 55 48 42 42 39 31 35 35 33 36 46 49
59 59 59 59 58 58 58 58 58 58 57 56 56 55 55 55 55 54 49 44 42 40 43 43 44 45 50 57 61 59 62 59 58 54 46 49 40 35 43 42 43 42 38 36 39 47 43
59 59 59 59 58 58 58 58 58 57 56 56 55 55 55 55 55 55 46 40 44 48 38 47 48 47 53 53 46 53 59 52 50 44 48 43 36 45 47 46 43 41 37 36 42 47 45
58 58 58 59 58 58 58 58 57 57 56 56 55 54 54 54 54 48 41 43 49 51 36 42 47 46 48 51 45 46 55 51 47 44 43 38 45 50 47 44 42 40 38 38 39 44 43
58 57 58 58 58 57 57 57 57 56 56 55 55 54 53 53 46 43 41 48 48 48 28 39 43 48 50 50 43 53 55 52 47 43 44 42 49 47 44 43 44 35 45 44 42 37 30
57 57 57 57 57 57 56 56 56 56 56 55 54 54 53 53 43 42 47 48 48 44 19 45 45 58 53 47 50 50 56 51 43 44 44 41 43 42 41 44 46 41 48 44 42 36 31
56 56 57 56 56 56 56 55 55 55 55 55 54 54 53 46 46 46 48 52 45 25 21 41 48 45 44 47 49 51 52 53 51 44 43 43 47 47 45 48 48 49 43 40 36 34 26
55 55 56 56 56 55 55 55 55 55 54 54 54 54 50 47 42 47 49 47 28 19 43 39 42 45 43 42 45 48 44 42 39 34 34 39 42 46 49 42 46 43 36 26 22 23 25
55 55 55 55 55 55 55 55 54 54 54 54 53 53 49 48 46 48 48 39 18 35 35 45 45 44 40 44 44 45 42 38 43 40 33 31 31 41 46 44 39 37 36 27 21 22 24
54 54 55 55 55 55 55 54 54 54 53 53 52 45 45 45 47 47 42 28 27 32 40 40 42 37 38 44 44 42 40 39 43 44 36 32 33 44 47 46 46 38 33 38 30 30 26
54 54 54 54 54 54 54 54 54 54 53 52 43 40 41 46 47 44 37 31 33 41 44 43 35 40 34 37 37 37 38 43 43 46 46 40 31 42 44 45 44 41 42 29 27 22 21
53 53 53 53 53 53 53 53 53 53 53 51 41 33 39 46 46 37 30 31 37 44 45 40 37 37 38 37 37 37 39 44 44 44 44 41 38 35 40 38 36 36 34 33 33 29 23
51 52 52 53 53 53 53 53 53 53 52 49 39 30 40 46 33 30 32 35 42 40 45 42 41 40 37 38 36 37 38 43 46 44 40 42 35 28 34 43 42 40 39 39 29 26 27
50 51 51 52 52 52 53 53 53 53 52 42 34 32 40 43 27 28 34 35 38 37 39 40 39 41 42 37 32 37 41 48 48 43 39 40 32 28 31 33 37 35 38 39 36 31 29
49 50 51 51 51 52 52 52 52 52 51 43 35 28 33 38 37 35 33 31 33 40 38 40 38 40 38 35 38 34 37 43 44 43 46 43 34 32 29 32 34 32 35 38 35 23 29
49 49 50 50 51 51 51 51 51 52 51 43 35 31 32 28 31 34 36 35 32 32 40 40 35 36 33 31 32 32 35 38 42 46 41 37 30 32 34 37 37 35 35 36 35 35 29
49 49 49 49 50 51 50 50 50 51 51 40 32 31 35 31 33 31 33 31 32 34 36 34 35 36 36 33 35 33 36 34 35 38 35 36 30 31 31 36 37 33 33 34 35 36 35
49 49 49 49 49 50 50 49 49 51 49 37 37 37 34 33 30 29 29 32 34 37 39 40 38 35 34 38 40 41 40 41 41 38 34 31 29 29 26 31 32 26 30 34 37 35 33
48 48 49 49 49 50 49 49 49 49 48 39 37 36 31 24 30 31 34 35 33 35 34 40 40 36 40 43 40 39 38 37 37 38 38 32 30 30 27 28 18 30 34 35 33 31 30
48 48 48 49 49 49 49 49 49 50 49 41 39 37 33 25 31 31 32 35 34 37 35 37 41 43 43 38 33 31 31 32 35 38 38 39 32 28 24 22 27 29 29 27 27 28 30
48 48 48 48 48 48 48 48 49 49 50 43 38 40 36 27 29 35 32 35 30 32 33 35 43 43 41 35 31 26 25 28 24 30 40 37 37 30 23 19 11 21 31 36 31 19 29
48 48 48 48 48 48 48 48 48 49 49 44 37 40 36 30 32 35 31 30 36 34 32 34 37 35 40 32 28 27 27 32 26 25 29 29 28 26 23 20 24 31 32 35 20 20 29
45 47 47 47 48 47 48 48 48 48 49 44 39 40 37 33 34 37 39 35 33 33 32 36 34 35 33 29 30 28 25 28 27 28 28 29 26 24 23 21 18 32 31 27 25 26 28
44 47 47 47 47 47 47 47 48 48 49 47 37 40 42 34 31 40 42 43 41 41 38 37 34 34 36 31 28 30 26 21 26 24 33 24 29 25 29 26 28 29 26 29 30 26 28

GFSGBSN_sfc_temp_129.txt.gz
Temp
60 61 61 60 60 60 61 60 59 59 58 58 58 58 58 59 59 58 57 57 57 58 58 60 59 59 59 55 59 66 65 66 69 69 66 65 62 61 57 58 59 57 58 60 62 61 62
60 60 60 60 60 60 60 59 58 58 58 58 57 57 57 58 58 57 57 57 57 57 59 60 59 59 55 51 66 64 63 65 66 67 65 66 63 63 59 57 57 58 58 59 60 63 61
60 60 60 59 59 59 59 58 58 58 57 57 57 57 57 57 57 57 57 56 56 57 59 59 58 57 50 55 63 62 61 63 65 65 63 66 65 63 61 56 60 59 54 57 60 60 60
60 60 60 59 59 58 58 58 57 58 57 57 57 56 56 56 56 56 56 55 56 57 58 59 57 55 48 62 62 60 60 61 62 64 64 65 65 62 60 61 57 54 52 50 57 59 58
59 59 59 59 58 58 57 57 57 57 58 57 57 56 55 55 55 55 55 55 56 57 57 57 53 50 49 63 60 64 64 63 61 62 63 68 65 58 58 51 48 48 46 45 51 58 57
59 59 59 59 58 58 58 57 57 57 57 57 56 56 55 55 55 54 55 55 55 55 55 57 55 48 56 57 63 63 64 64 62 60 60 59 56 52 50 49 44 44 43 45 45 54 55
59 59 59 59 58 58 58 58 57 57 57 56 56 55 55 55 55 54 51 49 47 46 48 48 50 49 53 58 62 62 64 63 63 58 51 54 49 45 50 50 49 47 45 44 48 53 49
59 59 58 59 58 59 59 59 57 57 57 56 55 55 55 55 55 54 50 46 48 48 41 48 48 49 53 56 51 57 64 57 55 49 52 49 44 50 51 49 48 47 44 45 48 52 51
58 58 59 59 59 59 58 58 57 57 56 55 55 55 54 54 54 49 46 47 54 53 40 45 48 47 50 53 48 50 59 56 52 48 48 46 50 52 50 47 45 45 43 44 44 49 51
57 57 57 58 58 58 57 57 57 56 56 55 55 54 53 53 48 46 45 52 51 53 36 43 45 50 51 51 46 56 57 56 52 48 48 47 53 49 47 47 48 40 49 48 45 43 38
57 57 57 57 57 57 56 56 56 56 56 55 54 54 53 53 47 45 50 50 51 48 28 46 46 59 54 48 52 53 59 56 48 47 49 47 47 46 45 47 50 45 50 48 46 43 40
56 56 57 57 57 56 56 56 55 55 55 55 54 54 53 48 47 49 50 51 49 33 26 44 48 46 45 49 52 54 54 58 55 49 49 48 53 51 51 51 50 52 48 45 43 42 33
55 56 56 56 56 56 56 55 55 55 55 54 54 54 51 49 45 50 51 49 32 27 45 42 44 46 46 46 48 50 47 46 44 39 39 45 47 51 53 47 49 49 43 34 32 31 32
55 55 55 55 56 55 55 55 55 55 54 54 54 53 51 50 49 50 49 39 23 38 38 47 47 46 44 47 48 48 45 43 47 46 39 38 37 46 50 49 45 43 43 35 26 28 34
54 54 55 55 55 55 55 55 54 54 54 53 51 46 47 47 49 49 43 28 33 36 43 42 46 43 43 47 47 47 45 44 48 49 42 38 38 49 49 50 52 42 39 45 37 35 31
53 54 54 54 54 54 54 54 54 54 54 52 44 43 43 47 48 46 37 33 36 42 45 45 39 43 38 40 42 43 43 47 46 48 50 45 38 46 49 51 49 46 48 37 35 26 25
52 52 53 53 54 54 54 54 54 54 53 51 42 37 42 47 47 39 31 33 38 45 46 42 39 39 40 39 41 41 42 47 49 48 49 46 41 41 46 43 43 41 40 40 40 35 28
52 52 52 52 53 53 54 54 54 54 52 50 39 31 42 47 33 32 32 37 43 42 46 44 44 41 39 40 39 40 40 45 49 48 43 47 41 35 40 46 47 45 43 43 34 32 34
51 51 52 52 52 52 53 53 53 53 52 43 35 33 42 44 28 28 36 37 40 39 40 41 39 43 44 39 35 39 42 49 49 46 42 42 37 33 36 40 43 37 42 43 41 40 35
51 50 50 51 51 52 52 51 52 53 52 45 34 28 33 38 36 34 32 33 34 40 40 40 39 41 40 38 41 38 39 45 46 47 47 45 38 35 31 37 41 36 39 42 40 33 36
50 50 50 50 49 50 51 52 52 51 52 42 36 32 35 27 30 34 35 35 33 32 40 41 37 38 37 34 36 36 39 41 45 47 45 42 34 37 39 40 41 40 40 40 37 40 34
49 49 49 49 49 49 50 51 52 51 51 42 31 32 35 32 36 32 33 33 33 35 37 36 36 39 38 34 37 36 39 40 39 43 40 39 33 35 34 39 39 36 39 40 40 40 40
48 49 48 48 49 50 50 51 50 51 49 38 39 39 37 33 32 31 32 34 35 37 39 41 39 37 36 39 43 44 44 45 43 41 38 37 34 32 28 35 32 28 36 38 40 42 41
48 48 48 49 49 49 50 49 49 49 48 39 39 38 33 28 32 32 34 35 34 36 34 39 41 36 43 48 46 44 42 41 41 41 42 35 32 33 29 29 22 39 38 39 38 40 40
47 48 48 49 49 49 49 49 48 48 48 41 40 38 34 28 34 34 34 35 36 36 34 37 40 43 47 43 35 31 33 32 36 39 40 41 36 30 27 27 33 37 34 32 33 36 39
47 47 48 48 48 48 49 49 49 48 48 41 40 42 38 30 30 37 34 35 31 31 33 36 44 46 43 36 32 25 24 31 30 34 41 39 39 31 28 23 21 32 35 39 38 29 35
47 47 48 48 48 48 48 48 48 48 48 42 39 43 38 30 34 37 32 32 37 35 31 35 36 37 42 32 28 26 27 36 28 30 30 31 30 28 29 25 31 38 36 39 28 31 34
46 46 47 47 48 48 48 48 48 48 48 44 39 43 39 32 35 39 40 35 35 36 30 36 35 35 32 29 29 30 29 32 32 33 32 32 28 27 28 24 23 36 35 32 34 32 35
46 44 45 46 47 47 47 48 48 47 47 45 37 42 42 36 34 41 43 43 42 41 35 36 34 34 35 32 32 32 28 29 31 27 34 29 34 30 32 32 32 37 32 33 35 34 32